[[{"header":{"parameterUnit":"m.s-1","parameterCategory":1,"la1":30.6,"la2":29.2853,"lo1":-89.7004,"lo2":-87.6739,"dx":0.0162,"dy":0.0183,"nx":112,"ny":82,"refTime":"2023-01-08T06:00:00:Z","depth":0,"parameterNumber":2,"parameterNumberName":"U-component_of_WINDS"},"data":[0.0,0.0,0.0,0.0,0.0,0.0,0.0,0.0,0.0,0.0,0.0,0.0,0.0,0.0,0.0,0.0,0.0,0.0,0.0,0.0,0.0,0.0,0.0,0.0,0.0,0.0,0.0,0.0,0.0,0.0,0.0,0.0,0.0,0.0,0.0,0.0,0.0,0.0,0.0,0.0,0.0,0.0,0.0,0.0,0.0,0.0,0.0,0.0,0.0,0.0,0.0,0.0,0.0,0.0,0.0,0.0,0.0,0.0,0.0,0.0,0.0,0.0,0.0,0.0,0.0,0.0,0.0,0.0,0.0,0.0,0.0,0.0,0.0,0.0,0.0,0.0,0.0,0.0,0.0,0.0,0.0,0.0,0.0,0.0,0.0,0.0,0.0,0.0,0.0,0.0,1.4777,1.5755,1.758,1.836,1.7458,1.8198,1.6958,1.2789,0.0,0.0,0.0,0.0,0.0,0.0,0.0,0.0,0.0,0.0,0.0,0.0,0.0,0.0,0.0,0.0,0.0,0.0,0.0,0.0,0.0,0.0,0.0,0.0,0.0,0.0,0.0,0.0,0.0,0.0,0.0,0.0,0.0,0.0,0.0,0.0,0.0,0.0,0.0,0.0,0.0,0.0,0.0,0.0,0.0,0.0,0.0,0.0,0.0,0.0,0.0,0.0,0.0,0.0,0.0,0.0,0.0,0.0,0.0,0.0,0.0,0.0,0.0,0.0,0.0,0.0,0.0,0.0,0.0,0.0,0.0,0.0,0.0,0.0,0.0,0.0,0.0,0.0,0.0,0.0,0.0,0.0,0.0,0.0,0.0,0.0,0.0,0.0,0.0,0.0,0.0,0.0,0.0,0.0,0.0,0.0,0.0,0.0,0.0,0.0,0.0,0.0,0.0,0.0,1.3773,1.6649,1.7263,1.7418,1.723,1.7379,1.61,1.287,0.0,0.0,0.0,0.0,0.0,0.0,0.0,0.0,0.0,0.0,0.0,0.0,0.0,0.0,0.0,0.0,0.0,0.0,0.0,0.0,0.0,0.0,0.0,0.0,0.0,0.0,0.0,0.0,0.0,0.0,0.0,0.0,0.0,0.0,0.0,0.0,0.0,0.0,0.0,0.0,0.0,0.0,0.0,0.0,0.0,0.0,0.0,0.0,0.0,0.0,0.0,0.0,0.0,0.0,0.0,0.0,0.0,0.0,0.0,0.0,0.0,0.0,0.0,0.0,0.0,0.0,0.0,0.0,0.0,0.0,0.0,0.0,0.0,0.0,0.0,0.0,0.0,0.0,0.0,0.0,0.0,0.0,0.0,0.0,0.0,0.0,0.0,0.0,0.0,0.0,0.0,0.0,0.0,0.0,0.0,0.0,0.0,0.0,0.0,0.0,0.0,0.0,0.0,1.3638,1.5012,1.7425,1.7699,1.7699,1.7699,1.7699,1.6389,1.338,1.2304,0.0,0.0,0.0,0.0,0.0,0.0,0.0,0.0,0.0,0.0,0.0,0.0,0.0,0.0,0.0,0.0,0.0,0.0,0.0,0.0,0.0,0.0,0.0,0.0,0.0,0.0,0.0,0.0,0.0,0.0,0.0,0.0,0.0,0.0,0.0,0.0,0.0,0.0,0.0,0.0,0.0,0.0,0.0,0.0,0.0,0.0,0.0,0.0,0.0,0.0,0.0,0.0,0.0,0.0,0.0,0.0,0.0,0.0,0.0,0.0,0.0,0.0,0.0,0.0,0.0,0.0,0.0,0.0,0.0,0.0,0.0,0.0,0.0,0.0,0.0,0.0,0.0,0.0,0.0,0.0,0.0,0.0,0.0,0.0,0.0,0.0,0.0,0.0,0.0,0.0,0.0,0.0,0.0,0.0,0.0,0.0,0.0,0.0,0.0,0.0,0.0,0.0,1.5674,1.6546,1.7582,1.7694,1.7694,1.7694,1.7694,1.6463,1.3569,1.2257,0.0,0.0,0.0,0.0,0.0,0.0,0.0,0.0,0.0,0.0,0.0,0.0,0.0,0.0,0.0,0.0,0.0,0.0,0.0,0.0,0.0,0.0,0.0,0.0,0.0,0.0,0.0,0.0,0.0,0.0,0.0,0.0,0.0,0.0,0.0,0.0,0.0,0.0,0.0,0.0,0.0,0.0,0.0,0.0,0.0,0.0,0.0,0.0,0.0,0.0,0.0,0.0,0.0,0.0,0.0,0.0,0.0,0.0,0.0,0.0,0.0,0.0,0.0,0.0,0.0,0.0,0.0,0.0,0.0,0.0,0.0,0.0,0.0,0.0,0.0,0.0,0.0,0.0,0.0,0.0,0.0,0.0,0.0,0.0,0.0,0.0,0.0,0.0,0.0,0.0,0.0,0.0,0.0,0.0,0.0,0.0,0.0,0.0,0.0,0.0,0.0,0.0,1.5895,1.7435,1.6605,1.6516,1.6516,1.6516,1.6516,1.5432,1.2915,1.1624,0.0,0.0,0.0,0.0,0.0,0.0,0.0,0.0,0.0,0.0,0.0,0.0,0.0,0.0,0.0,0.0,0.0,0.0,0.0,0.0,0.0,0.0,0.0,0.0,0.0,0.0,0.0,0.0,0.0,0.0,0.0,0.0,0.0,0.0,0.0,0.0,0.0,0.0,0.0,0.0,0.0,0.0,0.0,0.0,0.0,0.0,0.0,0.0,0.0,0.0,0.0,0.0,0.0,0.0,0.0,0.0,0.0,0.0,0.0,0.0,0.0,0.0,0.0,0.0,0.0,0.0,0.0,0.0,0.0,0.0,0.0,0.0,0.0,0.0,0.0,0.0,0.0,0.0,0.0,0.0,0.0,0.0,0.0,0.0,0.0,0.0,0.0,0.0,0.0,0.0,0.0,0.0,0.0,0.0,0.0,0.0,0.0,0.0,0.0,0.0,0.0,0.0,1.4999,1.6367,1.6389,1.6413,1.6413,1.6413,1.6413,1.5326,1.2872,0.0,0.0,0.0,0.0,0.0,0.0,0.0,0.0,0.0,0.0,0.0,0.0,0.0,0.0,0.0,0.0,0.0,0.0,0.0,0.0,0.0,0.0,0.0,0.0,0.0,0.0,0.0,0.0,0.0,0.0,0.0,0.0,0.0,0.0,0.0,0.0,0.0,0.0,0.0,0.0,0.0,0.0,0.0,0.0,0.0,0.0,0.0,0.0,0.0,0.0,0.0,0.0,0.0,0.0,0.0,0.0,0.0,0.0,0.0,0.0,0.0,0.0,0.0,0.0,0.0,0.0,0.0,0.0,0.0,0.0,0.0,0.0,0.0,0.0,0.0,0.0,0.0,0.0,0.0,0.0,0.0,0.0,0.0,0.0,0.0,0.0,0.0,0.0,0.0,0.0,0.0,0.0,0.0,0.0,0.0,0.0,0.0,0.0,0.0,0.0,0.0,0.0,1.3162,1.4964,1.6238,1.6568,1.6496,1.6413,1.6413,1.6413,1.5326,1.2872,0.0,0.0,0.0,0.0,0.0,0.0,0.0,0.0,0.0,0.0,0.0,0.0,0.0,0.0,0.0,0.0,0.0,0.0,0.0,0.0,0.0,0.0,0.0,0.0,0.0,0.0,0.0,0.0,0.0,0.0,0.0,0.0,0.0,0.0,0.0,0.0,0.0,0.0,0.0,0.0,0.0,0.0,0.0,0.0,0.0,0.0,0.0,0.0,0.0,0.0,0.0,0.0,0.0,0.0,0.0,0.0,0.0,0.0,0.0,0.0,0.0,0.0,0.0,0.0,0.0,0.0,0.0,0.0,0.0,0.0,0.0,0.0,0.0,0.0,0.0,0.0,0.0,0.0,0.0,0.0,0.0,0.0,0.0,0.0,0.0,0.0,0.0,0.0,0.0,0.0,0.0,0.0,0.0,0.0,0.0,0.0,0.0,0.0,0.0,0.0,0.0,0.0,1.3696,1.6087,1.7533,1.7068,1.6653,1.6423,1.6413,1.6413,1.5363,0.0,0.0,0.0,0.0,0.0,0.0,0.0,0.0,0.0,0.0,0.0,0.0,0.0,0.0,0.0,0.0,0.0,0.0,0.0,0.0,0.0,0.0,0.0,0.0,0.0,0.0,0.0,0.0,0.0,0.0,0.0,0.0,0.0,0.0,0.0,0.0,0.0,0.0,0.0,0.0,0.0,0.0,0.0,0.0,0.0,0.0,0.0,0.0,0.0,0.0,0.0,0.0,0.0,0.0,0.0,0.0,0.0,0.0,0.0,0.0,0.0,0.0,0.0,0.0,0.0,0.0,0.0,0.0,0.0,0.0,0.0,0.0,0.0,0.0,0.0,0.0,0.0,0.0,0.0,0.0,0.0,0.0,0.0,0.0,0.0,0.0,0.0,0.0,0.0,0.0,0.0,0.0,0.0,0.0,0.0,0.0,0.0,0.0,0.0,0.0,0.0,0.0,0.0,1.3729,1.6363,1.8019,1.7544,1.7378,1.7172,1.6841,1.682,1.5562,1.2603,0.0,0.0,0.0,0.0,0.0,0.0,0.0,0.0,0.0,0.0,0.0,0.0,0.0,0.0,0.0,0.0,0.0,0.0,0.0,0.0,0.0,0.0,0.0,0.0,0.0,0.0,0.0,0.0,0.0,0.0,0.0,0.0,0.0,0.0,0.0,0.0,0.0,0.0,0.0,0.0,0.0,0.0,0.0,0.0,0.0,0.0,0.0,0.0,0.0,0.0,0.0,0.0,0.0,0.0,0.0,0.0,0.0,0.0,0.0,0.0,0.0,0.0,0.0,0.0,0.0,0.0,0.0,0.0,0.0,0.0,0.0,0.0,0.0,0.0,0.0,0.0,0.0,0.0,0.0,0.0,0.0,0.0,0.0,0.0,0.0,0.0,0.0,0.0,0.0,0.0,0.0,0.0,0.0,0.0,0.0,0.0,0.0,0.0,0.0,0.0,0.0,0.0,1.3815,1.6539,1.8278,1.8019,1.7802,1.7595,1.7316,1.712,1.5963,1.353,0.0,0.0,0.0,0.0,0.0,0.0,0.0,0.0,0.0,0.0,0.0,0.0,0.0,0.0,0.0,0.0,0.0,0.0,0.0,0.0,0.0,0.0,0.0,0.0,0.0,0.0,0.0,0.0,0.0,0.0,0.0,0.0,0.0,0.0,0.0,0.0,0.0,0.0,0.0,0.0,0.0,0.0,0.0,0.0,0.0,0.0,0.0,0.0,0.0,0.0,0.0,0.0,0.0,0.0,0.0,0.0,0.0,0.0,0.0,0.0,0.0,0.0,0.0,0.0,0.0,0.0,0.0,0.0,0.0,0.0,0.0,0.0,0.0,0.0,0.0,0.0,0.0,0.0,0.0,0.0,0.0,0.0,0.0,0.0,0.0,0.0,0.0,0.0,0.0,0.0,0.0,0.0,0.0,0.0,0.0,0.0,0.0,0.0,0.0,0.0,0.0,0.0,1.4099,1.6696,1.8476,1.8476,1.8092,1.7812,1.7771,1.7378,1.6521,1.509,0.0,0.0,0.0,0.0,0.0,0.0,0.0,0.0,0.0,0.0,0.0,0.0,0.0,0.0,0.0,0.0,0.0,0.0,0.0,0.0,0.0,0.0,0.0,0.0,0.0,0.0,0.0,0.0,0.0,0.0,0.0,0.0,0.0,0.0,0.0,0.0,0.0,0.0,0.0,0.0,0.0,0.0,0.0,0.0,0.0,0.0,0.0,0.0,0.0,0.0,0.0,0.0,0.0,0.0,0.0,0.0,0.0,0.0,0.0,0.0,1.2228,0.0,0.0,0.0,0.0,0.0,0.0,0.0,0.0,0.0,0.0,0.0,0.0,0.0,0.0,0.0,0.0,0.0,0.0,0.0,0.0,0.0,0.0,0.0,0.0,0.0,0.0,0.0,0.0,0.0,0.0,0.0,0.0,0.0,0.0,0.0,0.0,0.0,0.0,0.0,0.0,0.0,1.4851,1.7326,1.8953,1.8953,1.887,1.864,1.8278,1.8154,1.7212,1.5132,1.4146,0.0,0.0,0.0,0.0,0.0,0.0,0.0,0.0,0.0,0.0,0.0,0.0,0.0,0.0,0.0,0.0,0.0,0.0,0.0,0.0,0.0,0.0,0.0,0.0,0.0,0.0,0.0,0.0,0.0,0.0,0.0,0.0,0.0,0.0,0.0,0.0,0.0,0.0,0.0,0.0,0.0,0.0,0.0,0.0,0.0,0.0,0.0,0.0,0.0,0.0,0.0,0.0,0.0,0.0,0.0,0.0,0.0,0.0,0.0,0.0,1.2784,0.0,0.0,0.0,0.0,0.0,0.0,0.0,0.0,0.0,0.0,0.0,0.0,0.0,0.0,0.0,0.0,0.0,0.0,0.0,0.0,0.0,0.0,0.0,0.0,0.0,0.0,0.0,0.0,0.0,0.0,0.0,0.0,0.0,0.0,0.0,0.0,0.0,0.0,0.0,0.0,1.5247,1.7942,1.9717,1.9717,1.9717,1.9624,1.9385,1.9168,1.8569,1.7387,1.5618,0.0,0.0,0.0,0.0,0.0,0.0,0.0,0.0,0.0,0.0,0.0,0.0,0.0,0.0,0.0,0.0,0.0,0.0,0.0,0.0,0.0,0.0,0.0,0.0,0.0,0.0,0.0,0.0,0.0,0.0,0.0,0.0,0.0,0.0,0.0,0.0,0.0,0.0,0.0,0.0,0.0,0.0,0.0,0.0,0.0,0.0,0.0,0.0,0.0,0.0,0.0,0.0,0.0,1.5243,1.5621,1.604,1.5952,1.6669,1.7863,1.5832,1.5607,1.6446,1.3609,0.0,0.0,0.0,0.0,0.0,0.0,0.0,0.0,0.0,0.0,0.0,0.0,0.0,0.0,0.0,0.0,0.0,0.0,0.0,0.0,0.0,0.0,0.0,0.0,1.5993,1.6115,0.0,0.0,0.0,0.0,0.0,0.0,0.0,0.0,0.0,0.0,0.0,0.0,1.5982,1.8669,2.0385,2.0385,2.0385,2.0385,2.0385,2.0089,1.9876,1.9803,1.7315,1.5691,0.0,0.0,0.0,0.0,0.0,0.0,0.0,0.0,0.0,0.0,0.0,0.0,0.0,0.0,0.0,0.0,0.0,0.0,0.0,0.0,0.0,0.0,0.0,0.0,0.0,0.0,0.0,0.0,0.0,0.0,0.0,0.0,1.1749,1.2042,0.0,0.0,0.0,0.0,0.0,0.0,0.0,0.0,0.0,0.0,0.0,0.0,0.0,1.5948,1.6183,1.7629,1.8356,1.8368,1.9823,2.0566,2.0602,2.0151,2.005,2.0188,1.8926,0.0,1.7222,1.6258,0.0,0.0,0.0,0.0,0.0,0.0,0.0,0.0,0.0,0.0,0.0,0.0,0.0,0.0,0.0,0.0,0.0,0.0,0.0,0.0,0.0,0.0,1.8322,1.8447,1.8582,1.8634,0.0,1.5812,1.3357,1.2551,1.1969,0.0,0.0,0.0,0.0,0.0,0.0,0.0,1.8205,1.9622,2.0385,2.0385,2.0385,2.0385,2.0385,2.0333,2.0172,1.9824,1.9399,1.8423,1.681,1.6105,0.0,0.0,0.0,0.0,0.0,0.0,0.0,0.0,0.0,0.0,0.0,0.0,0.0,0.0,0.0,0.0,0.0,0.0,0.0,0.0,0.0,0.0,0.0,0.0,0.0,0.0,0.0,0.0,0.0,1.081,1.1366,1.2099,1.1491,1.0913,0.0,0.0,0.0,0.0,0.0,0.0,0.0,0.0,0.0,1.7928,1.8242,1.8819,1.9735,2.0101,2.0147,1.9851,2.0587,2.0945,2.0933,2.1091,2.1157,2.1117,2.0235,1.9573,1.8995,1.7147,1.5691,1.4512,0.0,0.0,0.0,0.0,1.2869,1.3008,1.4605,1.5159,0.0,1.4813,0.0,0.0,0.0,0.0,0.0,0.0,0.0,0.0,0.0,0.0,1.8092,1.9225,1.9492,1.9564,1.9779,1.8573,1.6969,0.0,1.4549,1.3704,1.1914,0.0,0.0,0.0,0.0,1.7209,1.9148,2.0439,2.1207,2.1207,2.1207,2.1207,2.1207,2.1207,2.1114,2.0928,2.042,1.9779,1.8938,1.7502,1.595,0.0,0.0,0.0,0.0,0.0,0.0,0.0,0.0,0.0,0.0,0.0,0.0,0.0,0.0,0.0,0.0,0.0,0.0,0.0,0.0,0.0,0.0,0.0,0.0,0.0,0.0,0.0,0.0,1.1656,1.1733,1.2501,1.2176,1.1647,0.0,0.0,0.0,0.0,0.0,0.0,1.7277,1.734,1.8271,2.0323,2.0397,2.0909,2.1984,2.1506,2.1044,2.0647,2.0647,2.0647,2.0677,2.103,2.1199,2.1158,2.0362,2.0082,2.0024,1.7981,1.7059,1.6901,1.574,1.4971,1.4558,1.505,1.5168,1.5323,1.6956,1.7533,1.7467,1.7082,0.0,1.6052,1.4343,0.0,0.0,0.0,0.0,1.5138,1.7188,1.7731,1.8112,1.9599,1.9969,2.0052,2.0348,2.0338,1.972,0.0,1.7328,1.6439,1.4227,0.0,0.0,0.0,0.0,1.8743,2.0056,2.1141,2.1807,2.1807,2.1807,2.1807,2.1807,2.1807,2.1807,2.1807,2.1155,2.0772,2.0772,1.9124,1.7885,1.7174,0.0,0.0,0.0,0.0,0.0,0.0,0.0,0.0,0.0,0.0,0.0,0.0,0.0,0.0,0.0,0.0,0.0,0.0,0.0,0.0,0.0,0.0,0.0,0.0,0.0,0.0,0.0,0.0,0.0,1.3954,1.4582,0.0,0.0,0.0,0.0,1.5527,1.609,1.7355,1.9522,1.9635,2.0343,2.1934,2.1976,2.1716,2.1184,2.1121,2.1109,2.1086,2.1086,2.1086,2.1032,2.0592,2.0362,2.0308,1.9185,1.8947,1.9372,1.9355,1.8396,1.6984,1.6909,1.5917,1.4675,1.6138,1.6676,1.6906,1.8469,1.8998,1.8988,1.8967,1.7976,1.675,1.6626,1.557,0.0,0.0,1.7315,1.776,1.9702,2.0224,2.0245,2.0369,2.0354,2.04,2.0385,2.0089,1.9917,0.0,2.0203,1.9854,1.8817,0.0,1.8459,1.9276,1.9207,1.9679,2.1472,2.1745,2.1807,2.1807,2.1807,2.1807,2.1807,2.1807,2.1807,2.1807,2.1766,2.1735,2.1735,2.1621,2.0667,1.8712,1.8111,0.0,0.0,0.0,0.0,0.0,0.0,0.0,0.0,0.0,0.0,0.0,0.0,0.0,0.0,0.0,0.0,0.0,0.0,0.0,0.0,0.0,0.0,0.0,0.0,0.0,0.0,0.0,0.0,1.4544,1.4732,0.0,1.3958,1.5381,1.6596,1.7204,1.8353,1.9662,2.1185,2.0866,2.0882,2.1436,2.1459,2.1345,2.1092,2.0677,2.0452,2.0452,2.0452,2.0452,2.0484,2.1136,2.1469,2.1457,2.1042,2.0707,2.0459,2.0509,1.968,1.839,1.8818,1.8362,1.759,1.8565,1.8657,1.8354,1.8913,1.9108,1.9108,1.9108,1.8935,1.8741,1.8741,1.8543,1.8449,1.917,1.9377,1.9542,2.0213,2.0385,2.0467,2.0767,2.0829,2.0912,2.1248,2.1186,2.1124,2.128,2.0798,2.0184,1.9563,2.0075,2.0375,1.9787,2.0348,2.1062,2.1725,2.1807,2.1807,2.1807,2.1807,2.1807,2.1807,2.1807,2.1807,2.1807,2.1807,2.1807,2.1807,2.1807,2.1451,2.074,2.0527,1.8776,0.0,0.0,0.0,0.0,0.0,0.0,0.0,0.0,0.0,0.0,0.0,0.0,0.0,0.0,0.0,0.0,0.0,0.0,0.0,0.0,0.0,0.0,0.0,0.0,0.0,1.3354,1.39,1.5005,1.5209,1.5279,1.5284,1.676,1.8072,1.9018,2.0053,2.0912,2.1549,2.127,2.0965,2.0677,2.0741,2.0645,2.042,2.0193,2.0009,1.9781,2.0009,1.9966,1.9781,2.0687,2.1101,2.1101,2.1101,2.0846,2.042,2.042,2.0009,1.9383,1.9911,1.9682,1.9164,1.9584,1.9485,1.9129,1.9285,1.9336,1.9357,1.9479,1.9737,1.9986,1.9986,2.0193,2.0416,2.0581,2.0659,2.0653,2.0819,2.085,2.0932,2.1269,2.1352,2.1424,2.1735,2.1807,2.1807,2.1807,2.1311,2.0772,2.0474,2.1183,2.1528,2.0647,2.1245,2.1821,2.188,2.1855,2.1869,2.2025,2.1901,2.1869,2.2025,2.1611,2.1476,2.1787,2.1507,2.1476,2.1797,2.1362,2.1188,2.1361,2.1617,1.9864,1.6009,0.0,0.0,0.0,0.0,0.0,0.0,0.0,0.0,0.0,0.0,0.0,0.0,0.0,0.0,0.0,0.0,0.0,0.0,0.0,0.0,0.0,0.0,0.0,1.4061,1.4716,1.5171,1.5393,1.6269,1.7189,1.8079,1.8416,1.9207,2.0811,2.1012,2.0933,2.059,2.0869,2.0645,1.9802,1.9977,1.9748,1.9108,1.9748,1.9748,1.9098,1.9758,1.9736,1.9119,1.9173,1.9183,1.9183,1.9216,1.9173,1.9183,1.9216,1.9443,1.9841,2.0018,1.9714,1.915,1.915,1.915,1.9212,1.9658,1.9813,1.9886,2.0286,2.0395,2.0405,2.0405,2.0416,2.0529,2.101,2.1135,2.1238,2.1683,2.1807,2.1807,2.1807,2.1818,2.1828,2.1828,2.1849,2.1869,2.1869,2.188,2.188,2.1859,2.1859,2.1941,2.2153,2.2003,0.0,2.2142,2.2003,2.2035,2.2488,2.2115,2.2032,2.2478,2.1275,2.0866,2.1787,2.101,2.0917,2.1818,2.0612,2.0138,2.0574,2.1275,2.0453,1.8038,0.0,0.0,0.0,0.0,0.0,0.0,0.0,0.0,0.0,0.0,0.0,0.0,0.0,0.0,0.0,0.0,0.0,0.0,0.0,0.0,0.0,1.3093,1.3781,1.4008,1.4635,1.5269,1.5956,1.6866,1.7449,1.7478,1.8903,1.9759,1.9623,1.994,2.0193,2.0215,1.9748,1.9386,1.9297,1.9363,1.9297,1.9108,1.9297,1.9297,1.9108,1.9643,1.98,1.965,2.0456,2.0857,2.0857,2.1338,2.1304,2.0892,2.1372,2.1038,2.0193,1.9978,1.993,2.0058,2.0058,2.0058,2.0069,2.0203,2.0245,2.0265,2.0343,2.0612,2.0928,2.0928,2.1155,2.1455,2.158,2.1621,2.1642,2.1776,2.1807,2.1807,2.1807,2.2066,2.2304,2.2304,2.2832,2.3308,2.3308,2.3567,2.3536,2.2925,2.3091,2.3452,2.3803,2.3784,0.0,2.3814,2.3545,2.3292,2.3235,2.2831,2.2596,2.2686,2.2381,2.2338,2.2789,2.2563,2.2542,2.2801,2.2449,2.232,2.2475,2.124,2.0102,0.0,0.0,0.0,0.0,0.0,0.0,0.0,0.0,0.0,0.0,0.0,0.0,0.0,0.0,0.0,0.0,0.0,0.0,0.0,0.0,0.0,0.0,1.4033,1.4603,1.4603,1.4931,1.5479,1.628,1.6823,1.7355,1.7941,1.8774,1.9242,1.918,1.9228,1.9287,1.9353,1.8998,1.8841,1.8975,1.9075,1.9108,1.9108,1.9552,1.9624,1.9263,2.0096,2.0317,1.9943,2.0695,2.1023,0.0,2.1457,2.1387,2.1058,2.1457,2.126,0.0,0.0,0.0,0.0,0.0,2.0385,2.0416,2.0648,2.0674,2.0741,2.0901,2.1186,2.1404,2.1404,2.159,2.1807,2.1807,2.1807,2.1807,2.1807,2.1952,2.2202,2.2565,2.2859,2.3139,2.3316,2.3781,2.4105,2.3919,2.4395,0.0,2.4374,2.4229,2.4262,2.4609,2.4575,2.4553,2.464,2.4357,2.419,2.4195,2.365,2.3321,2.3512,2.2811,0.0,0.0,0.0,2.2522,2.2325,2.2548,0.0,0.0,0.0,0.0,0.0,0.0,0.0,0.0,1.8869,1.8908,0.0,0.0,0.0,0.0,0.0,0.0,0.0,0.0,0.0,0.0,0.0,0.0,0.0,0.0,0.0,0.0,1.482,1.541,1.541,1.541,1.5662,1.6355,1.6406,1.7052,1.8767,1.8354,1.8324,1.9112,1.8731,1.8448,1.8371,0.0,0.0,0.0,0.0,1.9096,1.9147,2.0151,2.0283,1.9573,2.0825,2.0966,2.019,2.0447,2.055,2.055,2.055,2.055,2.055,2.055,2.0788,2.1192,2.1425,2.1112,2.055,2.055,2.055,2.0602,2.1015,0.0,0.0,2.1673,2.1807,2.1807,2.1807,2.1807,2.1818,2.1869,2.188,2.189,2.1952,2.2263,2.276,2.3535,2.3852,2.4116,2.4581,2.4804,2.4772,2.4419,2.5044,2.5709,2.6013,2.5326,2.4858,2.5143,2.4956,2.49,2.5133,2.4914,2.4881,2.528,0.0,0.0,2.4584,2.316,2.2559,2.336,2.2594,2.1932,2.148,2.1945,2.1956,2.1497,2.1956,2.2569,2.3339,2.3339,2.3339,2.3287,2.093,2.0908,0.0,0.0,0.0,0.0,0.0,0.0,0.0,0.0,0.0,0.0,0.0,0.0,0.0,0.0,0.0,1.4438,1.5046,1.541,1.541,1.541,1.5596,1.6128,1.6666,1.7209,1.7672,1.8124,1.8425,1.8496,1.8405,1.8448,1.8674,1.8506,1.8506,1.8774,1.8841,1.9049,1.9418,1.9648,1.984,1.9987,0.0,0.0,2.0669,2.125,2.1538,2.1538,2.1538,2.1538,2.1538,2.1538,2.159,2.1662,2.172,2.1651,2.1538,2.1538,2.1538,2.1549,2.1642,2.1673,2.1683,2.1776,2.1807,2.1807,2.1807,2.1807,0.0,2.2263,2.2366,2.2449,2.2822,2.2987,2.309,2.328,2.3867,2.4629,2.5507,2.6541,2.7288,2.7201,2.7644,2.78,2.716,2.6537,2.6314,2.6779,2.6811,2.6796,2.6831,2.6443,2.6142,2.6032,2.5551,2.5304,2.539,2.5057,2.485,2.4799,2.428,2.3929,2.3836,2.3961,2.3961,2.3836,2.3961,2.4096,2.4239,2.4239,2.4239,2.4197,2.3014,2.2921,0.0,0.0,0.0,0.0,0.0,0.0,0.0,0.0,0.0,0.0,0.0,1.2408,1.3022,0.0,1.4304,1.4962,1.5241,1.5488,1.5703,1.5732,1.585,1.6065,1.661,1.7064,1.7376,1.7931,1.8212,1.8144,1.8144,1.8279,1.8539,1.8371,1.8405,1.864,1.8863,1.913,1.9353,1.9798,2.006,2.0172,2.0727,2.0949,2.0883,2.14,2.1655,2.1655,2.1769,2.1807,2.1807,2.1693,2.1693,2.1807,2.1693,2.1693,2.1807,2.1807,2.1807,2.1807,2.1807,2.1807,2.1807,2.1807,2.1807,2.1849,2.2087,2.2149,2.2242,2.2708,2.2842,2.2946,2.3412,2.3701,2.4002,2.4713,2.5228,2.5881,2.7066,2.7512,2.77,2.7956,2.7982,2.7857,2.7394,2.7112,2.704,2.7268,2.7309,2.7309,2.7309,2.7102,2.692,2.676,2.6341,2.611,2.611,2.5888,2.5681,2.5544,2.5096,2.4848,2.4848,2.4621,2.4497,2.4497,2.4724,2.4848,2.4848,2.4848,2.4848,2.4828,2.4416,2.4451,0.0,0.0,0.0,0.0,0.0,0.0,0.0,1.0903,1.166,1.2122,1.2789,1.3415,1.3802,1.4407,1.4947,1.5322,1.541,1.5566,1.6036,1.6095,1.6153,1.633,1.6641,1.7031,1.7461,1.7812,1.8008,1.8008,1.8008,1.8076,1.8303,1.8269,1.8343,1.8568,1.8953,1.9224,1.9394,2.0106,2.0404,2.0343,2.0881,2.1061,2.0906,2.1282,2.1464,2.1502,2.1655,2.1731,2.1731,2.1502,2.155,2.1655,2.1512,2.154,2.1731,2.1807,2.1807,2.1818,2.1901,2.1942,2.1952,2.2045,2.2076,2.2149,2.2511,2.2635,2.2729,2.3194,2.3318,2.3422,2.3888,2.4333,2.4887,2.6001,2.6425,2.6961,2.8285,2.8056,2.7693,2.8074,2.7825,2.7489,2.7309,2.7309,2.7309,2.7309,2.7309,2.7309,2.7309,2.7309,2.7309,2.7309,2.6978,2.675,2.675,2.6324,2.6055,2.6055,2.5595,2.5357,2.5357,2.4952,2.4755,2.4755,2.5117,2.5357,2.5357,2.5357,2.5357,2.5357,2.5357,2.5438,0.8778,0.8769,0.8837,0.9517,1.0213,1.1108,0.0,1.3326,1.387,1.4363,1.4784,1.5145,1.5176,1.5263,1.5322,1.54,1.541,1.5566,1.6036,1.6095,1.6388,1.7171,1.7275,1.748,1.79,1.7978,1.8008,1.8008,1.8008,1.8076,1.8303,1.8144,1.8277,1.8824,1.8919,1.9316,2.0091,2.0183,2.044,2.0837,2.0886,2.0906,2.0906,2.1138,2.132,2.1502,2.1502,2.154,2.1512,2.132,2.1244,2.1244,2.1244,2.1359,2.154,2.1731,2.1807,2.1859,2.2273,2.2418,2.248,2.2904,2.3029,2.3039,2.3091,2.3111,2.3205,2.367,2.3805,2.3908,2.4311,2.4766,2.5171,2.53,2.6007,2.6861,2.7882,2.8342,2.8574,2.8612,2.8598,2.8269,2.7441,2.7309,2.7309,2.7309,2.7309,2.7309,2.7309,2.7309,2.7309,2.7309,2.7258,2.7226,2.7226,2.6801,2.6542,2.6542,2.6061,2.5802,2.5802,2.5761,2.573,2.573,2.5782,2.5802,2.5802,2.5802,2.5802,2.5802,2.5802,2.5609,1.0865,1.0782,1.0526,1.1343,1.1865,1.2436,1.3368,1.4075,1.4639,1.5059,1.5293,1.541,1.541,1.541,1.541,1.541,1.5625,1.5947,1.6387,1.667,1.7093,1.7676,1.7744,1.7822,1.7988,1.8008,1.8008,1.8008,1.8008,1.8042,1.811,1.8042,1.8237,1.8719,1.8984,1.9406,2.0015,2.029,2.0516,2.0731,2.0731,2.0731,2.0731,2.0935,2.1128,2.132,2.132,2.132,2.132,2.1099,2.1089,2.1167,2.1061,2.1167,2.1359,2.154,2.1868,2.2232,2.2428,2.2677,2.2925,2.295,2.3052,2.3236,2.333,2.3495,2.3681,2.4136,2.426,2.4554,2.5871,2.6278,2.6567,2.7123,2.7551,2.7921,2.8326,2.8129,2.8045,2.8585,2.8269,2.7762,2.7357,2.7309,2.7309,2.7309,2.7309,2.7309,2.7309,2.7309,2.7309,2.7309,2.7309,2.7309,2.7309,2.7133,2.7019,2.7019,2.6584,2.6324,2.6324,2.6065,2.5875,2.5875,2.619,2.6324,2.6324,2.6324,2.6324,2.6324,2.6324,2.6185,1.198,1.2052,1.1883,1.2565,1.3152,1.3592,1.3951,1.451,1.5039,1.5352,1.541,1.541,1.541,1.5508,1.5586,1.5586,1.5957,1.6406,1.6814,1.7187,1.7539,1.7959,1.8008,1.8008,1.8008,1.8008,1.8008,1.8008,1.8008,1.8057,1.8174,1.8184,1.8393,1.8939,1.9297,1.9668,2.0088,2.0449,2.0605,2.0605,2.0605,2.0605,2.0605,2.0819,2.0984,2.1138,2.1138,2.1138,2.1089,2.0896,2.0896,2.1022,2.0996,2.1124,2.1328,2.1605,2.2012,2.2453,2.2791,2.305,2.3268,2.3227,2.3309,2.3495,2.3656,2.3885,2.4126,2.4404,2.4794,2.5379,2.6496,2.715,2.7598,2.8042,2.8219,2.8315,2.8315,2.7762,2.7489,2.8175,2.7762,2.7309,2.7309,2.7309,2.7309,2.7309,2.7309,2.7309,2.7309,2.7309,2.7309,2.7309,2.7309,2.7309,2.7309,2.7309,2.7309,2.7309,2.6988,2.6801,2.6801,2.648,2.6304,2.6304,2.6635,2.6801,2.6801,2.6801,2.6801,2.6801,2.6801,2.6801,1.138,1.1913,1.2382,1.2793,1.3719,1.4551,1.456,1.5002,1.54,1.541,1.541,1.541,1.541,1.5782,1.6075,1.6075,1.6416,1.6833,1.7305,1.7373,1.7539,1.7959,1.8008,1.8008,1.8008,1.8008,1.8008,1.8008,1.8008,1.8184,1.8559,1.8588,1.8968,1.9816,1.9883,2.0107,2.0576,2.0595,2.0605,2.0605,2.0605,2.0605,2.0605,2.0819,2.0906,2.0906,2.0906,2.0906,2.0906,2.0693,2.0605,2.0654,2.1045,2.1291,2.154,2.2006,2.2191,2.2358,2.3484,2.3711,2.3574,2.4023,2.4166,2.4166,2.4176,2.4305,2.4476,2.4497,2.5519,2.6433,2.5497,2.6638,2.7755,2.6857,2.7025,2.7357,2.7357,2.7309,2.7309,2.7357,2.7309,2.7309,2.7309,2.7309,2.7309,2.7309,2.7309,2.7309,2.7309,2.7309,2.7309,2.7309,2.7309,2.7309,2.7309,2.7309,2.7309,2.7309,2.7299,2.7289,2.7289,2.7278,2.7268,2.7268,2.7278,2.7289,2.7289,2.7289,2.7289,2.7289,2.7289,2.7289,1.2287,1.2632,1.2794,1.383,1.4279,1.4563,1.4927,1.5206,1.541,1.541,1.5644,1.587,1.587,1.6211,1.6514,1.6514,1.6875,1.7217,1.7363,1.7627,1.7852,1.7988,1.8008,1.8008,1.8008,1.8008,1.8008,1.8008,1.8008,1.8193,1.8578,1.8598,1.8997,1.9883,1.9912,2.0127,2.0595,2.0605,2.0605,2.0605,2.0605,2.0605,2.0605,2.0654,2.0693,2.0693,2.0693,2.0693,2.0693,2.0644,2.0781,2.1025,2.1132,2.1447,2.1842,2.2441,2.2677,2.2753,2.3264,2.3558,2.3692,2.3714,2.3807,2.3894,2.3764,2.4236,2.4802,2.5105,2.612,2.7162,2.7467,2.8252,2.8824,2.8131,2.8104,2.8034,2.7441,2.7309,2.7489,2.8128,2.7726,2.7489,2.8128,2.7715,2.7309,2.7309,2.7309,2.7309,2.7309,2.7309,2.7309,2.7309,2.7309,2.7309,2.7309,2.7309,2.7309,2.7309,2.7309,2.7309,2.7309,2.7309,2.7309,2.7309,2.7309,2.7309,2.7309,2.7309,2.7309,2.7309,2.7309,2.7309,1.2482,1.295,1.3284,1.4503,1.4713,1.4735,1.5177,1.54,1.5517,1.541,1.5762,1.6046,1.5889,1.6328,1.6697,1.6697,1.7353,1.7773,1.7627,1.7969,1.8149,1.8027,1.8008,1.8008,1.8008,1.8008,1.8008,1.8008,1.8008,1.8262,1.8802,1.8867,1.9258,2.0117,2.0146,2.0283,2.0605,2.0605,2.0605,2.0605,2.0605,2.0605,2.0605,2.0605,2.0605,2.0605,2.0605,2.0605,2.0605,2.0605,2.083,2.121,2.1366,2.1728,2.2158,2.2758,2.2959,2.3001,2.33,2.3523,2.3667,2.3547,2.359,2.3697,2.3726,2.4293,2.4982,2.5375,2.6737,2.8054,2.7966,2.8856,2.9488,2.8462,2.8222,2.8034,2.7441,2.7584,2.7998,2.8585,2.8222,2.7998,2.8585,2.7904,2.7309,2.7309,2.7309,2.7309,2.7309,2.7309,2.7309,2.7309,2.7309,2.7309,2.7309,2.7309,2.7309,2.7309,2.7309,2.7309,2.7309,2.7309,2.7309,2.7309,2.7309,2.7309,2.7309,2.7309,2.7309,2.7309,2.7309,2.7309,1.2001,1.293,1.3802,1.4771,1.5008,1.5097,1.5391,1.5651,1.5765,1.5449,1.5762,1.5948,1.5469,1.6093,1.6697,1.6697,1.775,1.8432,1.8066,1.8315,1.8422,1.8057,1.8008,1.8008,1.8008,1.8008,1.8008,1.8008,0.0,1.8379,1.9238,1.9287,1.9678,2.0576,2.0605,2.0605,2.0605,2.0605,2.0605,2.0605,2.0605,2.0605,2.0605,2.0605,2.0605,2.0605,2.0605,2.0605,2.0605,2.0625,2.0859,2.1268,2.1748,2.2178,2.2598,2.2945,2.3091,2.3178,2.3624,2.3624,2.3503,2.3503,2.3503,2.3539,2.3964,2.448,2.5047,2.5501,2.7498,2.908,2.7239,2.8444,2.9669,2.7762,2.7309,2.7309,2.7309,2.7998,2.8631,2.8678,2.8678,2.8678,2.8631,2.7904,2.7309,2.7309,2.7309,2.7309,2.7309,2.7309,2.7309,2.7309,2.7309,2.7309,2.7309,2.7309,2.7309,2.7309,2.7309,2.7309,2.7309,2.7309,2.7309,2.7309,2.7309,2.7309,2.7309,2.7309,2.7309,2.7309,2.7309,2.7309,1.2623,1.3496,1.4411,1.507,1.5221,1.5397,1.599,1.6215,1.6081,1.5508,1.5762,1.587,1.5078,1.5928,1.6697,1.6697,1.7506,1.8135,1.8027,1.8105,1.8091,1.8018,1.8008,1.8008,1.8008,1.8008,1.8008,1.8008,1.8008,1.8379,1.9238,1.9287,1.9678,2.0576,2.0605,2.0605,2.0605,2.0605,2.0605,2.0605,2.0605,2.0605,2.0605,2.0605,2.0605,2.0605,2.0605,2.0605,2.0635,2.0928,2.1318,2.1758,2.2187,2.2607,2.2945,2.3052,2.3091,2.3135,2.3222,2.3222,2.3188,2.3188,2.3188,2.3266,2.3751,2.485,2.6122,2.7041,2.8478,2.9523,2.8824,2.8844,2.8771,2.7584,2.7309,2.7309,2.7309,2.7489,2.7857,2.8538,2.8678,2.8491,2.7762,2.7441,2.7309,2.7309,2.7309,2.7309,2.7309,2.7309,2.7309,2.7309,2.7309,2.7309,2.7309,2.7309,2.7309,2.7309,2.7309,2.7309,2.7309,2.7309,2.7309,2.7309,2.7309,2.7309,2.7309,2.7309,2.7309,2.7309,2.7309,2.7309,1.3158,1.4115,1.506,1.5437,1.5666,1.5854,1.5927,1.6042,1.5831,1.4778,1.5068,1.5214,1.4167,1.5312,1.6377,1.6151,1.7321,1.8188,1.8037,1.813,1.8213,1.8037,1.8008,1.8008,1.8008,1.8008,1.8008,1.8008,1.8008,1.8379,1.9238,1.9287,1.9678,2.0576,2.0605,2.0605,2.0605,2.0605,2.0605,2.0605,2.0605,2.0605,2.0605,2.0605,2.0605,2.0605,0.0,2.0605,2.0635,2.1045,2.1494,2.1924,2.2344,2.2773,2.3091,2.3091,2.3091,2.3091,2.3091,2.3091,2.3091,2.3091,2.3227,2.3506,2.3935,2.526,2.6788,2.7672,2.9128,3.0326,2.9847,2.9817,2.9624,2.8222,2.7904,2.7809,2.7404,2.7631,2.8081,2.8585,2.8678,2.8398,2.7441,2.7309,2.7309,2.7309,2.7309,2.7309,2.7309,2.7309,2.7309,2.7309,2.7309,2.7309,2.7309,2.7309,2.7309,2.7309,2.7309,2.7309,2.7309,2.7309,2.7309,2.7309,2.7309,2.7309,2.7309,2.7309,2.7309,2.7309,2.7309,2.7309,1.3635,1.4611,1.5626,1.5806,1.6213,1.6381,1.5682,1.566,1.535,1.3815,1.4053,1.418,1.3008,1.4471,1.5752,1.5459,1.7096,1.8325,1.8057,1.8286,1.8383,1.8057,1.8008,1.8008,1.8008,1.8008,1.8008,1.8008,1.8008,1.8379,1.9238,1.9287,1.9678,2.0576,2.0605,2.0605,2.0605,2.0605,2.0605,2.0605,2.0605,2.0605,2.0605,2.0605,2.0605,2.0605,2.0605,0.0,2.0635,2.1045,2.1494,2.1924,2.2344,2.2773,2.3135,2.3222,2.3222,2.3135,2.3222,2.3222,2.3091,2.3091,2.3437,2.3912,2.4425,2.5809,2.7324,2.8075,2.9727,3.1125,3.0531,3.0902,3.0991,2.9314,2.8899,2.8678,2.7857,2.8222,2.8678,2.8538,2.8631,2.8445,2.7631,2.7489,2.7536,2.7668,2.7489,2.7357,2.7489,2.7394,2.7309,2.7309,2.7309,2.7309,2.7309,2.7309,2.7309,2.7309,2.7309,2.7309,2.7309,2.7309,2.7309,2.7309,2.7309,2.7309,2.7309,2.7309,2.7309,2.7309,2.7309,2.7309,1.3795,1.4559,1.5538,1.6002,1.6484,1.6706,1.6318,1.6023,1.535,1.3815,1.335,1.3037,1.2428,1.348,1.465,1.5312,1.6641,1.7695,1.7969,1.8076,1.8086,1.8018,1.8008,1.8008,1.8008,1.8008,1.8008,1.8008,1.8008,1.8379,1.9238,1.9287,1.9678,2.0576,2.0605,2.0605,2.0605,2.0605,2.0605,2.0605,2.0605,2.0605,2.0605,2.0605,2.0605,2.0605,2.0605,0.0,2.0635,2.1045,2.1494,2.1924,2.2344,2.2773,2.3178,2.3983,2.3777,2.3222,2.3983,2.3734,2.3091,2.3091,2.3437,2.4037,2.5259,2.67,2.8261,2.9919,3.0654,3.1036,3.1303,3.0902,3.0351,3.0034,2.9943,2.9897,2.9715,2.9176,2.8445,2.7668,2.8175,2.8631,2.8491,2.8445,2.8724,2.9578,2.8351,2.7584,2.8351,2.7762,2.7309,2.7309,2.7309,2.7309,2.7309,2.7309,2.7309,2.7309,2.7309,2.7309,2.7309,2.7309,2.7309,2.7309,2.7309,2.7309,2.7309,2.7309,2.7309,2.7309,2.7309,2.7309,1.4419,1.4984,1.5742,1.6328,1.6825,1.6896,1.5806,1.5429,1.4673,1.2584,1.2201,1.2083,1.1599,1.2759,1.3987,1.4621,1.6005,1.7197,1.7627,1.7871,1.8008,1.8008,1.8008,1.8008,1.8008,1.8008,1.8008,1.8008,1.8178,1.8613,1.9248,1.9744,2.0184,2.0595,2.0605,2.0605,2.0605,2.0605,2.0605,2.0605,2.0605,2.0605,2.0605,2.0605,2.0605,2.0605,2.0605,0.0,2.0635,2.1045,2.1317,2.1611,2.2256,2.2637,2.2885,2.3524,2.382,2.382,2.3777,2.3918,2.4152,2.4196,2.4543,2.5077,2.597,2.7653,2.9398,3.0416,3.1181,3.1781,3.2089,3.1933,3.1569,3.1036,3.0576,3.0215,3.0215,2.9806,2.9349,2.8899,2.9176,2.9314,2.8817,2.8678,2.8678,2.8667,2.7904,2.7441,2.7904,2.7584,2.7309,2.7309,2.7309,2.7309,2.7309,2.7309,2.7309,2.7309,2.7309,2.7309,2.7309,2.7309,2.7309,2.7309,2.7309,2.7309,2.7309,2.7309,2.7309,2.7309,2.7309,2.7309,1.497,1.5393,1.5908,1.6441,1.6992,1.6904,1.5068,1.4648,1.3936,1.1426,1.1113,1.1304,1.121,1.2296,1.3516,1.445,1.5613,1.6719,1.7471,1.7766,1.791,1.7998,1.8008,1.8008,1.8008,1.8008,1.8008,1.8008,1.8486,1.8965,1.9394,2.0184,2.0605,2.0605,2.0605,2.0605,2.0605,2.0605,2.0605,2.0605,2.0605,2.0605,2.0605,2.0605,2.0605,2.0605,2.0605,0.0,0.0,2.0947,2.1103,2.1268,2.208,2.2432,2.2559,2.3195,2.3924,2.46,2.4038,2.4628,2.5625,2.5818,2.5968,2.6187,2.6999,2.8629,3.0306,3.0678,3.156,3.2431,3.2636,3.2896,3.2896,3.212,3.1347,3.0756,3.0531,3.0486,3.0441,3.026,3.0215,2.9943,2.9176,2.8863,2.8585,2.8269,2.7857,2.7762,2.8175,2.8034,2.7857,2.7631,2.7441,2.7309,2.7309,2.7309,2.7309,2.7309,2.7309,2.7309,2.7309,2.7309,2.7309,2.7309,2.7309,2.7309,2.7309,2.7309,2.7309,2.7309,2.7309,2.7309,1.5,1.5393,1.5871,1.6093,1.6789,1.6816,1.465,1.4163,1.3549,1.1346,1.0635,1.0775,1.1953,1.2263,1.3159,1.5768,1.5793,1.6148,1.7963,1.7763,1.7578,1.7969,1.8008,1.8008,1.8008,1.8008,1.8008,1.8008,1.8769,1.9414,1.9834,2.0303,2.0605,2.0605,2.0605,2.0605,2.0605,2.0605,2.0605,2.0605,2.0605,2.0605,2.0605,2.0605,2.0605,2.0605,2.0605,0.0,0.0,2.0644,2.0869,2.1239,2.1758,2.2178,2.2644,2.3907,2.4714,2.5328,2.6045,2.6693,2.7261,2.7697,2.7249,2.6869,2.8668,2.9667,3.0453,3.1572,3.2125,3.2431,3.2636,3.2896,3.3081,3.2982,3.2896,3.2581,3.1669,3.1492,3.1214,3.0351,3.0215,3.017,3.0079,2.9314,2.9268,3.0946,2.9715,2.9222,3.0991,3.0441,2.9578,2.8678,2.7809,2.7309,2.7309,2.7309,2.7309,2.7309,2.7309,2.7309,2.7309,2.7309,2.7309,2.7309,2.7309,2.7309,2.7309,2.7309,2.7309,2.7309,2.7309,2.7309,1.5051,1.5321,1.5711,1.6297,1.6523,1.6193,1.4475,1.3909,1.3145,1.0977,1.042,1.0617,1.1634,1.1799,1.2497,1.4715,1.5041,1.5399,1.6463,1.7172,1.7481,1.7252,1.779,1.8115,1.8012,1.8008,1.8115,1.8334,1.8945,1.9473,1.9893,2.037,2.0605,2.0605,2.0605,2.0605,2.0605,2.0605,2.0605,2.0605,2.0605,2.0605,2.0605,2.0605,2.0605,2.0605,2.0605,0.0,0.0,2.0605,2.0713,2.0869,2.1318,2.1758,2.2259,2.3269,2.4691,2.6109,2.6168,2.7238,2.8653,2.8857,2.8847,2.89,2.968,3.047,3.1193,3.1661,3.2081,3.2431,3.2519,3.2822,3.3124,3.3124,3.3124,3.2982,3.2581,3.2481,3.2208,3.1214,3.1536,3.1581,3.0396,3.0351,3.0531,3.0722,3.0079,2.9897,3.0666,2.9897,2.913,2.8724,2.8362,2.7904,2.7357,2.7309,2.7309,2.7309,2.7309,2.7309,2.7309,2.7309,2.7309,2.7309,2.7309,2.7309,2.7309,2.7309,2.7309,2.7309,2.7309,2.7309,1.5061,1.5313,1.5566,1.6151,1.6201,1.5694,1.4111,1.3633,1.2891,1.0743,1.04,1.0733,1.1577,1.1695,1.2332,1.435,1.4632,1.5004,1.6084,1.697,1.7389,1.6995,1.7922,1.8387,1.786,1.7939,1.8135,1.8393,1.8848,1.9287,1.9707,2.0137,2.0468,2.0595,2.0605,2.0605,2.0605,2.0605,2.0605,2.0605,2.0605,2.0605,2.0605,2.0605,2.0674,2.0762,2.0762,0.0,0.0,2.0997,2.1145,2.1382,2.1516,2.1961,2.2514,2.2957,2.4687,2.6791,2.6478,2.7966,3.0097,3.0129,3.0374,3.0633,3.0633,3.1149,3.1705,3.1705,3.2025,3.2388,3.2475,3.2779,3.3124,3.3124,3.3124,3.3124,3.3124,3.3124,3.2896,3.2164,3.2394,3.2208,3.0845,3.0946,3.0946,3.0306,3.0215,3.0215,3.0215,2.9578,2.9037,2.8724,2.8678,2.8315,2.7394,2.7309,2.7309,2.7309,2.7309,2.7309,2.7309,2.7309,2.7309,2.7309,2.7309,2.7309,2.7309,2.7309,2.7309,2.7309,2.7309,2.7309,1.5013,1.5313,1.541,1.542,1.5752,1.5537,1.3404,1.3213,1.2891,1.0743,1.0621,1.1176,1.2121,1.2185,1.2896,1.5379,1.4904,1.5096,1.7615,1.7462,1.7241,1.7564,1.8594,1.8797,1.7514,1.7764,1.8008,1.8018,1.8373,0.0,1.9268,1.9697,2.0117,2.0595,2.0605,2.0605,2.0605,2.0605,2.0605,2.0605,2.0605,2.0605,2.0605,2.0605,2.081,2.119,0.0,0.0,0.0,2.1875,2.238,2.3133,2.2661,2.303,2.3732,2.3272,2.4926,2.7371,2.7382,2.9276,3.1705,3.1705,3.1705,3.1661,3.1661,3.1705,3.1705,3.1705,3.2025,3.2431,3.2636,3.2896,3.3124,3.3124,3.3124,3.3124,3.3124,3.3124,3.3124,3.3081,3.2307,3.1625,3.1581,3.08,3.0215,3.0215,3.0215,3.0215,3.0215,3.017,2.9806,2.8817,2.8678,2.8315,2.7394,2.7309,2.7309,2.7309,2.7309,2.7309,2.7309,2.7309,2.7309,2.7309,2.7309,2.7309,2.7309,2.7309,2.7309,2.7309,2.7309,2.7309,1.3562,1.387,1.4111,1.4111,1.3994,1.371,1.3003,1.2723,1.225,1.0962,1.1029,1.1392,1.1694,1.193,1.2915,1.5401,1.5516,1.5846,1.7451,1.802,1.7997,1.7271,1.7898,1.8261,1.7846,1.793,1.8008,1.8008,1.8364,1.8792,1.9268,1.9687,2.0117,2.0595,2.0605,2.0605,2.0605,2.0605,2.0605,2.0605,2.0605,2.0723,2.1025,2.1677,2.2196,0.0,0.0,0.0,0.0,2.2164,2.204,2.2379,2.2787,2.334,2.3815,2.3982,2.5637,2.777,2.7458,2.9015,3.1163,3.1163,3.1416,3.1705,3.1705,3.1705,3.1749,3.2069,3.2376,3.268,3.2896,3.3038,3.3124,3.3124,3.3124,3.3124,3.3124,3.3124,3.2896,3.2208,3.2351,3.2394,3.1713,3.1359,3.1169,3.1169,3.0621,3.0215,3.0215,2.9578,2.9037,2.8724,2.8128,2.7631,2.7309,2.7309,2.7309,2.7309,2.7309,2.7309,2.7309,2.7309,2.7309,2.7309,2.7309,2.7309,2.7309,2.7309,2.7309,2.7309,2.7309,2.7309,1.2792,1.319,1.3511,1.3511,1.3435,1.3253,1.288,1.2614,1.2183,1.1314,1.1442,1.1719,1.1719,1.2059,1.2896,1.4653,1.5103,1.5683,1.6917,1.7729,1.8115,1.7883,1.7807,1.7933,1.8351,1.8144,1.8008,1.8008,1.8217,1.8559,1.9023,1.9443,1.9873,2.0303,2.0517,2.0605,2.0605,2.0605,2.0693,2.082,2.082,2.1055,2.1475,2.207,2.2736,0.0,0.0,0.0,0.0,2.3256,2.3297,2.3907,2.3743,2.4271,2.5096,2.5009,2.6273,2.7977,2.7678,2.8763,3.0423,3.0781,3.1327,3.1805,3.1805,3.1805,3.1893,3.23,3.2562,3.2766,3.2896,3.3025,3.3124,3.3124,3.3124,3.3124,3.3124,3.3124,3.2896,3.2307,3.2667,3.2896,3.2264,3.1857,3.1492,3.1125,3.026,2.9498,2.9176,2.8585,2.824,2.8381,2.7871,2.7611,2.7731,2.7468,2.7309,2.7309,2.7143,2.7123,2.7299,2.7133,2.7133,2.7299,2.7309,2.7309,2.7309,2.7309,2.7309,2.7309,2.7309,2.7309,0.0,1.3087,1.3381,1.3327,1.3621,1.3699,1.2934,1.2738,0.0,1.171,1.1866,1.2155,1.2205,1.2478,1.295,1.3662,1.4168,1.496,1.6375,1.6972,1.7801,1.9172,1.826,1.7909,1.8944,1.8448,1.8042,1.8008,1.8008,1.8203,1.8723,1.9134,1.9603,2.0017,2.0496,2.0693,2.0644,2.0683,2.0869,2.1239,2.1239,2.1544,2.2048,2.2089,2.2836,0.0,0.0,0.0,0.0,2.4956,2.5589,2.6928,2.5337,2.5715,2.7092,2.6205,2.6797,2.8052,2.7957,2.8591,2.9584,3.058,3.1397,3.1977,3.1977,3.2001,3.2081,3.2344,3.255,3.2723,3.2723,3.2896,3.3124,3.3124,3.3124,3.3124,3.3124,3.3124,3.3124,3.3124,3.3025,3.2982,3.2982,3.212,3.108,3.0215,2.9222,2.8305,2.7447,2.7352,2.7494,2.7913,2.7949,2.8076,2.8375,2.7769,2.7342,2.73,2.6832,2.6812,2.7237,2.6843,2.6832,2.7299,2.7309,2.7309,2.7309,2.7309,2.7309,2.7309,2.7309,2.7309,1.1695,0.0,1.2276,1.1653,1.18,1.214,0.0,1.2253,1.2204,1.1995,1.2276,1.2733,1.3225,1.2981,1.3535,1.6065,1.6245,1.6563,1.802,1.8115,1.8438,1.9563,1.9062,1.8865,1.9554,1.9116,1.8553,1.8042,1.8008,1.8606,1.9991,2.017,2.0565,2.1315,2.1747,2.1688,2.1074,2.1406,2.1631,2.1738,2.1738,2.2315,2.337,2.4102,2.5137,0.0,0.0,0.0,2.6805,2.5872,2.5746,2.6163,2.6464,2.6846,2.7185,2.6969,2.7499,2.8277,2.7603,2.8339,2.9701,3.0499,3.1125,3.1663,3.1877,3.2216,3.255,3.2593,3.281,3.3025,3.3025,3.3038,3.3124,3.3124,3.3124,3.3124,3.3124,3.3124,3.3124,3.3124,3.2494,3.1945,3.1945,3.0531,2.9314,2.9084,2.8222,2.7683,2.7728,2.7777,2.7891,2.8306,2.8337,2.8129,2.7536,2.7648,2.7616,2.725,2.6837,2.6667,2.677,2.6677,2.6832,2.7299,2.7309,2.7309,2.7309,2.7309,2.7309,2.7309,2.7309,2.7309,1.1053,1.1563,1.2004,1.1563,1.1756,1.2113,1.2341,1.2377,1.2377,1.2377,1.2556,1.2806,1.3163,1.3271,1.3877,1.5706,1.6196,1.6998,1.8769,1.9499,1.9989,2.0266,2.0041,1.9903,0.0,1.9689,1.921,1.8529,1.8652,1.917,2.0139,2.0554,2.1068,2.1773,2.2389,2.221,2.12,2.167,2.1982,2.2168,2.2168,2.2636,2.3501,2.4451,2.5507,0.0,0.0,0.0,2.7725,2.6835,2.667,2.704,2.7174,2.7429,2.7805,2.7805,2.8099,2.8431,2.7966,2.8581,2.9638,2.9911,3.0579,3.1351,3.1476,3.1988,3.2516,3.2821,3.2982,3.3124,3.3124,3.3124,3.3124,3.3124,3.3124,3.3124,3.3124,3.3124,3.2939,3.2481,3.1989,3.1448,3.1036,2.9715,2.8863,2.9314,2.8354,2.7803,2.8466,2.7986,2.7745,2.8143,2.7829,2.7482,2.7184,2.7576,2.7503,2.6672,2.6198,2.6041,2.6293,2.6061,2.6268,2.6978,2.7195,2.7309,2.7309,2.7309,2.7309,2.7309,2.7309,2.7309,1.0904,1.1624,1.2359,1.2056,1.2354,1.2709,1.2709,1.2709,1.2709,1.2709,1.2709,1.2794,1.3092,1.3715,1.4363,1.4996,1.5928,1.7195,1.8908,2.029,2.1085,2.0917,2.0818,0.0,2.0401,2.0302,1.9998,1.9337,0.0,2.002,2.0363,2.1079,2.1718,2.2256,2.3053,2.2917,2.1819,2.1979,2.2256,2.2607,2.2607,2.2922,2.356,2.4327,2.5242,2.6246,0.0,0.0,2.8431,2.7725,2.7846,2.8431,2.7684,2.7846,2.851,2.851,2.851,2.851,2.855,2.8987,2.9505,2.9285,3.0053,3.1012,3.1012,3.1497,3.219,3.2679,3.2986,3.3124,3.3124,3.3124,3.3124,3.3124,3.3124,3.3124,3.3124,3.2982,3.2624,3.1769,3.1347,3.0902,3.0125,2.9201,2.8892,2.9738,2.8779,2.8299,2.9171,2.8107,2.7498,2.806,2.7332,2.6942,2.7267,2.7676,2.7386,2.6161,2.5776,2.5742,2.5975,2.5536,2.5689,2.6501,2.6967,2.7195,2.7195,2.7278,2.7309,2.7309,2.7309,2.7309,1.2051,1.3148,1.3538,1.1844,1.2065,1.2709,1.2709,1.2709,1.2709,1.2709,1.2709,1.3198,1.4856,1.4996,1.568,1.8274,1.8762,1.8738,1.8478,1.8512,1.9148,2.0706,0.0,2.0599,2.1536,2.1215,2.0846,2.0641,0.0,2.1371,2.2855,2.3048,2.3548,2.4382,2.4928,2.5009,2.4578,2.3473,2.2935,2.3003,2.3003,2.3826,2.54,2.5526,2.6494,2.8087,0.0,2.8391,2.8471,2.8351,2.8379,2.8471,2.8339,2.8379,2.851,2.851,2.851,2.851,2.8685,2.8943,2.9187,2.9315,2.9963,3.0693,3.0693,3.1057,3.1537,3.1625,3.2382,3.3124,3.3124,3.3124,3.3124,3.3124,3.3124,3.3124,3.3124,3.2438,3.1757,3.1625,3.026,2.9084,2.8945,2.8431,2.8078,2.8249,2.8343,2.8597,2.9065,2.8321,2.8173,2.9354,2.8714,2.8226,2.8263,2.8335,2.7951,2.6956,2.7211,2.7097,2.6444,2.5996,2.5844,2.5978,2.648,2.6718,2.6718,2.7123,2.7309,2.7309,2.7309,2.7309,1.0861,1.1752,1.246,1.2009,1.3308,1.4588,1.4204,1.4105,1.4058,1.3864,1.3842,1.4117,1.5005,1.5395,1.6395,1.8837,2.0162,2.0599,1.9802,2.0543,2.123,2.1419,0.0,2.1867,2.2436,2.228,2.2048,0.0,0.0,0.0,2.3467,2.3709,2.4145,2.4806,2.5318,2.5442,2.5109,2.4756,2.4317,2.3864,2.3864,2.4274,2.5115,2.6121,2.701,2.7805,0.0,2.851,2.851,2.851,2.851,2.851,2.851,2.851,2.851,2.851,2.851,2.855,2.8724,2.8922,2.9131,2.9341,2.9735,3.0168,3.0168,3.0545,3.0972,3.0972,3.1763,3.2604,3.2604,3.2842,3.2939,3.2438,3.2711,3.2797,3.1757,3.1581,3.1448,3.0946,2.985,2.9037,2.9037,2.8578,2.8386,2.8967,2.8905,2.9083,2.9833,2.8882,2.8405,2.9025,2.8303,2.7718,2.7718,2.8211,2.8091,2.7151,2.7286,2.7247,2.683,2.6885,2.6933,2.6933,2.7392,2.7376,2.6902,2.7126,2.7003,2.6563,2.6812,2.6936,1.0111,1.0846,1.1837,1.2591,1.4167,1.5491,1.5339,1.5257,1.5208,1.5181,1.5289,1.5473,1.5696,1.6671,1.7889,1.9253,2.0971,2.1806,2.0842,2.1987,2.2632,2.182,2.2324,2.2806,2.2979,2.3119,0.0,0.0,0.0,0.0,2.391,2.4211,2.4674,2.5275,2.5692,2.589,2.5802,2.6016,2.5663,2.4787,2.4787,2.4914,2.5168,2.6547,2.7307,2.7551,2.8219,2.851,2.851,2.851,2.851,2.851,2.851,2.855,2.859,2.8618,2.863,2.8657,2.8803,2.9,2.9197,2.9341,2.956,2.9792,2.9792,3.0093,3.0419,3.0419,3.111,3.1863,3.1989,3.2353,3.2496,3.1742,3.2241,3.2469,3.098,3.108,3.1212,3.0491,2.9662,2.9118,2.9118,2.8835,2.8897,2.9678,2.9482,2.952,3.0288,2.9297,2.8581,2.8791,2.7971,2.7516,2.773,2.8383,2.8502,2.777,2.7557,2.7435,2.7435,2.7571,2.7653,2.7653,2.7963,2.788,2.7326,2.7096,2.6706,2.6201,2.6374,2.6511,1.1475,1.2499,1.3419,1.3782,1.3417,1.338,1.4938,1.5147,1.5245,1.6099,1.6768,1.7463,1.8361,2.0156,2.136,2.101,2.1493,2.1511,2.0303,0.0,2.0552,2.1085,2.1627,2.2253,2.2947,0.0,0.0,0.0,0.0,0.0,2.5157,2.5217,2.5673,2.6726,2.6798,2.7263,2.8227,2.7487,2.6629,2.5694,2.5694,2.6163,2.701,2.7144,2.7632,2.8431,2.8471,2.851,2.851,2.851,2.851,2.851,2.851,2.8618,2.8803,2.9013,2.9052,2.9052,2.9052,2.9197,2.938,2.9419,2.956,2.9792,2.9792,2.9817,2.9854,2.9854,3.0281,3.0846,3.1323,3.1486,3.1512,3.143,3.1859,3.2235,3.2097,3.1406,3.0848,3.0762,2.9566,2.856,2.856,2.8825,2.9075,2.9157,2.9524,2.9777,2.9854,2.9064,2.8791,2.9624,2.8922,2.8712,2.9546,2.9663,2.9675,2.9624,2.8831,2.8422,2.8422,2.7592,2.7167,2.7167,2.7054,2.7258,2.7755,2.6757,2.6538,2.7106,2.6301,2.6154,1.0798,1.2174,1.3419,1.3094,1.3816,1.4913,1.5932,1.6445,1.6982,1.7981,1.8476,1.8795,1.9171,2.0408,2.1353,2.1126,2.1658,2.1791,2.086,2.141,2.1844,2.1627,2.2493,2.3316,0.0,0.0,0.0,0.0,0.0,0.0,2.53,2.5312,2.5492,2.5877,2.6238,2.6779,2.7486,2.7498,2.7477,2.7458,2.6917,2.6846,2.7226,2.7765,2.8179,2.851,2.851,2.851,2.851,2.851,2.851,2.851,2.8657,2.8724,2.8831,2.9013,2.9091,2.9091,2.9091,2.9236,2.9419,2.9419,2.956,2.9792,2.9792,2.9792,2.9792,2.9792,2.9942,3.0231,3.0771,3.1148,3.1263,3.0675,3.1385,3.1767,3.0247,3.0365,3.0704,3.0368,2.9516,2.9065,2.9721,2.9662,2.9557,2.9557,2.9671,2.9792,2.9792,2.9495,2.9417,2.9753,2.9495,2.9456,2.9753,2.9792,2.9792,2.9792,2.9495,2.93,2.93,2.8961,2.8803,2.8803,2.8719,2.8279,2.7355,2.6954,2.6344,2.5516,2.5635,2.5821,1.1367,1.2499,1.3751,1.3732,1.4648,1.5869,1.709,1.7636,1.8253,1.959,2.0128,2.0354,2.0354,2.0954,2.1463,2.1463,2.1862,2.209,2.1748,2.244,2.2866,2.2552,2.3399,0.0,0.0,0.0,0.0,0.0,0.0,0.0,0.0,2.5468,2.5564,2.5564,2.6238,2.6791,2.7138,2.7666,2.8162,2.851,2.7886,2.7603,2.7632,2.8219,2.851,2.851,2.851,2.851,2.851,2.851,2.855,2.8618,2.8803,2.8922,2.904,2.9248,2.9339,2.9339,2.9339,2.9404,2.9521,2.9521,2.965,2.9792,2.9792,2.9792,2.9792,2.9792,2.9792,2.988,3.0256,3.062,3.0723,3.0102,3.0848,3.1216,2.9553,2.999,3.0633,3.0267,2.9703,2.9539,3.0226,3.0043,2.9792,2.9792,2.9792,2.9792,2.9792,2.9792,2.9792,2.9792,2.9792,2.9792,2.9792,2.9792,2.9792,2.9792,2.9792,2.9792,2.9792,2.9792,2.9792,2.9792,2.9326,2.8593,2.7557,2.6823,2.6008,2.5041,2.5326,2.5547,1.3614,1.3879,1.4687,1.6187,1.5804,1.572,1.8239,1.8509,1.8777,2.0711,2.1694,2.2197,2.2197,2.2197,2.2197,2.2197,2.2197,2.2378,2.2939,2.3023,2.3228,2.3746,0.0,0.0,0.0,0.0,0.0,0.0,0.0,0.0,0.0,2.5805,2.6093,2.6093,2.714,2.7678,2.7678,2.8246,2.8498,2.851,2.851,2.851,2.851,2.851,2.851,2.851,2.851,2.851,2.851,2.851,2.8618,2.8831,2.9,2.9236,2.9419,2.9702,2.9792,2.9792,2.9792,2.9792,2.9792,2.9792,2.9792,2.9792,2.9792,2.9792,2.9792,2.9792,2.9792,2.9792,2.9792,2.9792,2.9792,2.9792,3.0218,3.062,3.0608,3.062,3.062,3.0608,3.0168,2.9792,2.9792,2.9792,2.9792,2.9792,2.9792,2.9792,2.9792,2.9792,2.9792,2.9792,2.9792,2.9792,2.9792,2.9792,2.9792,2.9792,2.9792,2.9792,2.9792,2.9792,2.9792,2.9792,2.8291,2.7839,2.8502,2.6299,2.5527,2.6185,2.5527,2.5455,1.1861,1.354,1.5307,1.504,1.6978,1.9056,1.9416,1.9706,2.0377,2.2079,2.2611,2.263,2.2258,2.2197,2.2197,2.2197,2.251,2.283,2.2987,2.3604,2.4121,2.4278,0.0,0.0,0.0,0.0,0.0,0.0,0.0,0.0,0.0,2.5456,2.5709,2.6093,2.6418,2.6947,2.7678,2.7846,2.8138,2.851,2.851,2.851,2.851,2.851,2.851,2.851,2.851,2.8578,2.8724,2.8855,2.8973,2.904,2.9236,2.9341,2.9419,2.9702,2.9792,2.9792,2.9792,2.9792,2.9792,2.9792,2.9792,2.9792,2.9792,2.9792,2.9792,2.9792,2.9792,2.9792,2.9792,2.9792,2.9792,2.9792,3.0218,3.0507,3.0118,3.0344,3.0507,3.0118,2.9905,2.9792,2.9792,2.9792,2.9792,2.9792,2.9792,2.9792,2.9792,2.9792,2.9792,2.9792,2.9792,2.9792,2.9792,2.9792,2.9792,2.9792,2.9792,2.9792,2.9792,2.9792,2.9869,3.0011,2.8949,2.8303,2.8011,2.6712,2.5821,2.5274,2.5422,2.5455,1.4057,1.5788,1.74,1.7436,1.8869,2.0422,2.0952,2.1169,2.1518,2.2493,2.2666,2.257,2.2246,2.2366,2.251,2.251,2.2987,2.3396,2.3568,2.4133,2.4568,0.0,0.0,0.0,0.0,0.0,0.0,0.0,0.0,0.0,0.0,2.5504,2.5769,2.6093,2.6514,2.7055,2.7678,2.7933,2.8198,2.851,2.851,2.851,2.851,2.851,2.851,2.851,2.8578,2.8724,2.8922,2.9052,2.917,2.9236,2.9341,2.947,2.956,2.974,2.9792,2.9792,2.9792,2.9792,2.9792,2.9792,2.9792,2.9792,2.9792,2.9792,2.9792,2.9792,2.9792,2.9792,2.9792,2.9792,2.9792,2.9792,3.0043,3.0193,2.9867,3.0055,3.0193,2.9854,2.9792,2.9792,2.9792,2.9792,2.9792,2.9792,2.9792,2.9792,2.9792,2.9792,2.9792,2.9792,2.9792,2.9792,2.9792,2.9792,2.9792,2.9792,2.9869,2.9934,2.9934,2.9585,2.9611,3.0075,2.8621,2.7851,2.7799,2.6682,2.579,2.5168,2.5559,2.5644,1.8072,1.9083,2.0097,2.1596,2.0983,2.0543,2.2493,2.2534,2.2209,2.2258,2.2221,2.2209,2.2258,2.2654,2.3035,2.3071,2.3529,2.3989,2.4458,2.452,0.0,0.0,0.0,0.0,0.0,0.0,0.0,0.0,0.0,0.0,0.0,2.5817,2.6117,2.6178,2.7176,2.7702,2.775,2.827,2.851,2.851,2.851,2.851,2.851,2.851,2.851,2.855,2.8764,2.8961,2.9131,2.9131,2.9287,2.9419,2.9419,2.9611,2.9792,2.9792,2.9792,2.9792,2.9792,2.9792,2.9792,2.9792,2.9792,2.9792,2.9792,2.9792,2.9792,2.9792,2.9792,2.9792,2.9792,2.9829,2.9854,2.9804,2.9829,2.9867,2.9867,2.9867,2.9867,2.9867,2.9829,2.9792,2.9792,2.9792,2.9792,2.9792,2.9792,2.9792,2.9792,2.9792,2.9792,2.9792,2.9792,2.9792,2.9792,2.9792,2.9792,2.983,3.0011,3.0113,3.0113,2.9353,2.9275,3.0037,2.781,2.701,2.773,2.6332,2.5612,2.5601,2.5812,2.5906,1.4407,1.6752,1.9375,2.0133,2.1024,2.1789,2.2258,2.227,2.2306,2.2727,2.2486,2.2318,2.2739,2.2939,2.3144,2.3565,2.4025,2.4398,2.4506,0.0,0.0,0.0,0.0,0.0,0.0,0.0,0.0,0.0,0.0,0.0,2.5312,2.5817,2.6298,2.6705,2.7342,2.7921,2.833,2.845,2.851,0.0,2.851,2.851,2.851,2.851,2.8578,2.8764,2.9106,2.9302,2.9353,2.9573,2.9663,2.9702,2.9702,2.9753,2.9792,2.9792,2.9792,2.9792,2.9792,2.9792,2.9792,2.9792,2.9792,2.9792,2.9792,2.9792,2.9792,2.9792,2.9792,2.9792,2.9792,3.0118,3.0331,2.9892,3.0118,3.0432,3.0432,3.0432,3.0432,3.0432,3.0093,2.9792,2.9792,2.9792,2.9792,2.9792,2.9792,2.9792,2.9792,2.9792,2.9792,2.9792,2.9792,2.9792,2.9792,2.9792,2.9908,3.0113,3.0113,3.019,3.033,3.0165,2.9896,2.9548,2.8383,2.762,2.7336,2.6343,2.5728,2.5601,2.5812,2.5822,1.5533,1.7651,1.9652,2.0699,2.1572,2.2197,2.2197,2.2197,2.2342,2.2903,2.2794,2.2758,2.33,2.3556,2.3809,2.4085,2.4566,2.4891,2.4891,0.0,0.0,0.0,0.0,0.0,0.0,0.0,0.0,0.0,0.0,2.5312,2.5312,2.5576,2.6093,2.6873,2.7162,2.7678,2.8498,2.851,2.851,2.851,2.851,2.855,2.8657,2.8657,2.8803,2.9106,2.9302,2.947,2.9599,2.974,2.9792,2.9792,2.9792,2.9792,2.9792,2.9792,2.9792,2.9792,2.9792,2.9792,2.9792,2.9792,2.9792,2.9792,2.9792,2.998,3.0181,3.0181,3.0181,3.0244,3.0495,3.0583,3.0608,3.057,3.0583,3.0545,3.0281,3.0218,3.0218,3.0218,2.9993,2.9792,2.9792,2.9792,2.9792,2.9792,2.9792,2.9792,2.9792,2.9792,2.9792,2.9792,2.9792,2.9869,3.0075,3.0049,3.0049,3.019,3.0305,3.0419,3.0533,3.0647,3.0482,3.0011,2.8846,2.8279,2.8398,2.7528,2.704,2.6958,2.7051,2.704,1.7075,1.8758,2.0085,2.1765,2.2197,2.2197,2.2197,2.2258,2.2474,2.3035,2.3071,2.3204,2.3818,2.4242,2.452,2.4604,2.5023,2.5312,0.0,0.0,0.0,0.0,0.0,0.0,0.0,0.0,0.0,0.0,0.0,2.5312,2.5312,2.5396,2.5901,2.6861,2.6982,2.7498,2.8498,2.851,2.851,2.851,2.855,2.8657,2.8831,2.8882,2.9106,2.9419,2.947,2.9599,2.9792,2.9792,2.9792,2.9792,2.9792,2.9792,2.9792,2.9792,2.9792,2.9792,2.9792,2.9792,2.9792,2.9792,2.9792,2.9792,2.9792,3.0118,3.047,3.047,3.047,3.0595,3.1122,3.0997,3.0859,3.1286,3.1135,3.0771,3.0306,3.0131,3.0093,3.0193,3.0131,3.0055,2.9993,3.003,3.0005,2.9817,2.9955,3.0005,2.9817,2.9905,2.993,2.9804,2.9792,2.9934,3.0254,3.019,3.019,3.0343,3.0533,3.0698,3.0736,3.0911,3.0911,3.0773,2.9355,2.89,2.9459,2.8743,2.8386,2.8386,2.8267,2.8187,1.3395,1.6189,1.9588,2.168,2.2197,2.2197,2.2197,2.2546,2.3059,2.3589,2.3324,2.328,2.4242,2.447,2.464,2.5131,2.5264,2.5312,0.0,0.0,0.0,0.0,0.0,0.0,0.0,0.0,0.0,0.0,2.5312,2.5312,2.5312,2.5745,2.6286,2.6873,2.7342,2.7909,2.8498,2.851,2.851,2.851,2.8685,2.8882,2.9052,2.9236,2.9341,2.9419,2.965,2.9753,2.9792,2.9792,2.9792,2.9792,2.9792,2.9792,2.9792,2.9792,2.9792,2.9792,2.9792,2.9792,2.9792,2.9792,2.9792,2.9792,2.9792,2.9842,2.9905,2.9905,2.9905,3.003,3.0583,3.0997,3.1298,3.1373,3.17,3.1976,3.1901,3.1512,3.1323,3.18,3.1499,3.1085,3.0796,3.0984,3.0859,2.993,3.0583,3.0846,2.9917,3.0344,3.0495,2.9867,2.9792,2.983,2.9869,2.9869,3.0164,3.0836,3.0736,3.0736,3.0949,3.0986,3.0986,3.0949,3.0024,2.9225,2.8585,2.8466,2.8386,2.8386,2.7689,2.7377,1.4157,1.6847,1.9504,2.1656,2.2414,2.263,2.263,2.3071,2.3601,2.4085,2.4001,2.4073,2.4819,2.4963,2.5035,2.5264,2.5312,0.0,0.0,0.0,0.0,0.0,0.0,0.0,0.0,0.0,0.0,0.0,2.5312,2.5312,2.5312,2.5528,2.5901,2.6442,2.6958,2.7498,2.8065,2.8366,2.851,2.851,2.8685,2.8922,2.9091,2.9314,2.947,2.965,2.9753,2.9792,2.9792,2.9792,2.9792,2.9792,2.9792,2.9792,2.9792,2.9792,2.9792,2.9792,2.9792,2.9792,2.9792,2.9792,2.9792,2.9792,2.9792,3.0005,3.0256,3.0256,3.0256,3.0382,3.0909,3.1223,3.1461,3.1775,3.2039,3.2303,3.2629,3.2014,3.1399,3.1461,3.1273,3.1185,3.1449,3.0947,3.0545,3.067,3.0583,3.0771,3.1537,3.0834,3.0143,2.9829,2.9792,2.9792,2.9792,3.0203,3.0609,3.0986,3.0874,3.0874,3.0986,3.0986,3.0986,3.0986,3.0621,3.0216,2.9858,2.9858,2.9858,2.9832,2.8991,2.8846,1.4634,1.6786,1.8387,2.0779,2.1981,2.2654,2.2951,2.3517,2.4073,0.0,2.4592,2.4843,2.524,2.5312,2.5312,2.5312,0.0,0.0,0.0,0.0,0.0,0.0,0.0,0.0,0.0,0.0,0.0,0.0,2.5312,2.5312,2.5312,2.5312,2.5552,2.6081,2.6609,2.715,2.7678,2.8246,2.855,2.8578,2.8764,2.8961,2.9157,2.9392,2.9599,2.9792,2.9792,2.9792,2.9792,2.9792,2.9792,2.9792,2.9792,2.9792,2.9792,2.9792,2.9792,2.9792,2.9792,2.9792,2.9792,2.9792,2.9792,2.9792,2.9792,3.008,3.0407,3.0407,3.0407,3.0532,3.106,3.1198,3.1336,3.1876,3.2001,3.2114,3.2554,3.2215,3.17,3.1298,3.1336,3.1612,3.2164,3.1348,3.0896,3.17,3.1135,3.1022,3.2102,3.1298,3.0419,2.9854,3.0478,3.0736,3.0138,3.066,3.0986,3.0986,3.0986,3.0986,3.0986,3.0986,3.0986,3.0986,3.0986,3.0986,3.0986,3.0986,3.0986,3.0986,3.0101,3.0063,1.277,1.4084,1.529,1.8399,2.0334,2.1753,2.2782,2.3761,2.446,2.4472,2.488,2.5276,2.53,2.5312,2.5312,2.5312,0.0,0.0,0.0,0.0,0.0,0.0,0.0,0.0,0.0,0.0,0.0,0.0,2.5312,2.5312,2.5312,2.5312,2.5552,2.6081,2.6609,2.715,2.7678,2.8246,2.8618,2.8803,2.9013,2.9197,2.938,2.965,2.9792,2.9792,2.9792,2.9792,2.9792,2.9792,2.9792,2.9792,2.9792,2.9792,2.9792,2.9792,2.9792,2.9792,2.9792,2.9792,2.9792,2.9792,2.9792,2.9792,2.9792,2.9817,2.9829,2.9829,2.9829,2.9967,3.0507,3.0658,3.0783,3.1311,3.1436,3.1436,3.1474,3.2277,3.2817,3.2252,3.2591,3.3023,3.3061,3.2998,3.2973,3.298,3.2943,3.219,3.0218,3.1687,3.2102,3.0018,3.2412,3.3298,3.1132,3.0986,3.0986,3.0986,3.0986,3.0986,3.0986,3.0986,3.0986,3.0986,3.0986,3.0986,3.0986,3.0986,3.0986,3.0986,3.0101,2.9704,1.1776,1.2848,1.3951,1.6762,1.9203,2.1091,2.1813,2.3556,2.5023,2.5023,2.518,2.5312,2.5312,2.5312,2.5312,0.0,0.0,0.0,0.0,0.0,0.0,0.0,0.0,0.0,0.0,0.0,0.0,0.0,0.0,2.5312,2.5312,2.5312,2.5396,2.5588,2.6429,2.7318,2.8222,2.8414,2.8618,2.8791,2.9,2.9197,2.9419,2.9702,2.9792,2.9792,2.9792,2.9792,2.9792,2.9792,2.9792,2.9792,2.9792,2.9792,2.9792,2.9792,2.9792,2.9792,2.9792,2.9792,2.9792,2.9792,2.9792,2.9792,2.9792,2.9792,2.9792,2.9792,2.9792,2.9842,3.0043,3.0357,3.0658,3.0846,3.1148,3.1298,3.0972,3.1474,3.2152,3.2667,3.293,3.3124,3.3124,3.3124,3.3124,3.3124,3.3124,3.2277,3.008,3.0482,3.144,3.2632,3.3749,3.4071,3.3247,3.1823,3.0986,3.0986,3.0986,3.0986,3.0986,3.0986,3.0986,3.0986,3.0986,3.0986,3.0986,3.0986,3.0986,3.0986,3.0101,2.9986,1.0606,1.162,1.28,1.5406,1.7411,1.9285,2.1452,2.3003,2.4242,2.5131,2.5312,2.5312,2.5312,2.5312,2.5312,0.0,0.0,0.0,0.0,0.0,0.0,0.0,0.0,0.0,0.0,0.0,0.0,0.0,0.0,0.0,2.5312,2.5312,2.548,2.5841,2.6513,2.7402,2.8498,2.8578,2.8697,2.8882,2.9118,2.9326,2.956,2.9702,2.9792,2.9792,2.9792,2.9792,2.9792,2.9792,2.9792,2.9792,2.9792,2.9792,2.9792,2.9792,2.9792,2.9792,2.9792,2.9792,2.9792,2.9792,2.9869,2.9895,2.9895,2.9934,2.9972,2.9934,2.9895,2.9908,2.983,3.0068,3.0331,3.0331,3.0595,3.0758,3.0419,3.0896,3.1612,3.2365,3.2616,3.2792,3.3074,3.3124,3.3124,3.3124,3.3124,3.2403,3.0457,3.0203,3.1292,3.4108,3.4397,3.4397,3.4397,3.2999,3.1797,3.1039,3.0986,3.0986,3.0986,3.0986,3.0986,3.0986,3.0986,3.0986,3.0986,3.0986,3.0986,3.0986,3.0432,3.047,0.0,0.0,0.0,1.4221,1.4917,1.6343,2.156,2.1993,2.2041,2.4675,2.5204,2.5216,2.53,2.5312,2.5312,0.0,0.0,0.0,0.0,0.0,0.0,0.0,0.0,0.0,0.0,0.0,0.0,0.0,2.5312,2.5312,2.5312,2.5312,2.5769,2.6837,2.6885,2.739,2.8474,2.8685,2.8882,2.9091,2.9314,2.956,2.9792,2.9792,2.9792,2.9792,2.9792,2.9792,2.9792,2.9792,2.9792,2.9792,2.9792,2.9792,2.9792,2.9792,2.9792,2.9792,2.9792,2.9792,2.9792,2.9792,2.9934,3.0113,3.0113,3.0228,3.0368,3.0152,3.0113,3.0049,2.9869,2.9792,2.9792,2.9792,2.9792,2.9792,2.9792,3.0608,3.1348,3.1361,3.1662,3.2152,3.2905,3.3006,3.3006,3.3111,3.3061,3.2536,3.116,3.0986,3.1849,3.411,3.4384,3.4397,3.4397,3.4397,3.3417,3.113,3.1013,3.1026,3.0986,3.0986,3.0986,3.0986,3.0986,3.0986,3.0986,3.0986,3.0986,3.0986,3.0986,3.0986,0.885,0.0,0.0,0.0,0.0,0.0,1.6703,1.788,1.9384,2.2426,2.2751,2.3063,2.4963,2.5312,0.0,0.0,0.0,0.0,0.0,0.0,0.0,0.0,0.0,0.0,0.0,0.0,0.0,0.0,2.5312,2.5312,2.5312,2.5312,2.5624,2.631,2.6681,2.7286,2.8142,2.857,2.8949,2.9302,2.938,2.956,2.9792,2.9792,2.9792,2.9792,2.9792,2.9792,2.9792,2.9792,2.9792,2.9792,2.9792,2.9792,2.9792,2.9792,2.9792,2.9792,2.9792,2.9792,2.9792,2.9792,2.9934,3.0113,3.0113,3.0228,3.0406,3.033,3.033,3.0254,3.0075,3.0011,2.9972,2.983,2.9792,2.9792,2.9792,3.003,3.0357,3.0746,3.0595,3.0708,3.1687,3.121,3.1248,3.2842,3.2232,3.1435,3.1065,3.0986,3.1548,3.2999,3.3901,3.4397,3.4397,3.4397,3.3417,3.113,3.1757,3.1849,3.1013,3.0986,3.0986,3.0986,3.0986,3.0986,3.0986,3.0986,3.0986,3.0986,3.0986,3.0659,0.0,0.0,1.0063,1.1066,0.0,0.0,1.6199,1.7207,0.0,0.0,2.3244,2.3496,2.5023,2.5312,0.0,0.0,0.0,0.0,0.0,0.0,0.0,0.0,0.0,0.0,0.0,2.5312,2.5312,2.5312,2.5312,2.5312,2.5312,2.5312,2.5552,2.6081,2.6418,2.701,2.7989,2.8395,2.8846,2.9419,2.9509,2.965,2.9792,2.9792,2.9792,2.9792,2.9792,2.9792,2.9792,2.9792,2.9792,2.9792,2.9908,2.9934,2.9934,3.0011,3.0049,3.0049,3.0049,3.0011,2.9934,3.0011,3.0113,3.0228,3.0305,3.0495,3.0634,3.0571,3.0444,3.0368,3.0254,3.0228,3.019,3.0011,2.9869,2.9792,2.9792,2.9792,2.9892,3.0218,3.0018,2.9993,3.062,3.0206,3.0336,3.1988,3.1539,3.0986,3.0986,3.0986,3.1431,3.2568,3.2868,3.3365,3.4319,3.4397,3.3822,3.2489,3.2136,3.1679,3.1013,3.0986,3.0986,3.0986,3.0986,3.0986,3.0986,3.0986,3.0986,3.0986,3.0621,3.019,0.0,0.0,0.0,0.0,1.1171,0.0,1.74,1.7676,0.0,0.0,2.4037,2.4097,2.4458,0.0,0.0,0.0,0.0,0.0,0.0,0.0,0.0,0.0,0.0,0.0,2.5312,2.5312,2.5312,2.5312,2.5312,2.5312,2.5312,2.5312,2.5528,2.6033,2.6106,2.6735,2.798,2.8206,2.8705,2.947,2.9702,2.9792,2.9792,2.9792,2.9792,2.9792,2.9792,2.9792,2.9792,2.983,2.983,2.9869,3.0049,3.0113,3.0152,3.033,3.0406,3.0406,3.0406,3.0292,3.0152,3.033,3.0406,3.0457,3.066,3.0849,3.0949,3.0773,3.0609,3.0444,3.0444,3.0444,3.0406,3.0267,3.0011,2.9792,2.9792,2.9792,2.9792,2.9792,2.9792,2.9792,2.9792,2.9869,3.0164,3.0874,3.0986,3.0986,3.0986,3.0986,3.1378,3.2398,3.1588,3.1914,3.4201,3.4162,3.4018,3.4018,3.2346,3.1248,3.0999,3.0986,3.0986,3.0986,3.0986,3.0986,3.0986,3.0986,3.0986,3.0986,3.0101,2.9665,1.1825,1.1596,1.156,1.1435,1.1752,0.0,1.2145,1.2241,1.3107,0.0,1.6087,1.6581,1.9119,0.0,0.0,0.0,0.0,0.0,0.0,0.0,0.0,0.0,0.0,0.0,2.5312,2.5312,2.5312,2.5312,2.5312,2.5312,2.5312,2.5312,2.5431,2.5681,2.6105,2.681,2.7829,2.8312,2.8935,2.9702,2.9792,2.9792,2.9792,2.9792,2.9792,2.9792,2.9792,2.9792,2.9792,2.9972,3.0049,3.0049,3.0075,3.019,3.0368,3.0406,3.0406,3.0406,3.0406,3.0368,3.0368,3.0406,3.0495,3.066,3.0698,3.0849,3.0986,3.0949,3.0911,3.0836,3.0685,3.0584,3.0546,3.0546,3.0139,2.9792,2.9792,2.9792,2.9792,2.9792,2.9792,2.9792,2.9792,3.0356,3.0798,3.0986,3.0986,3.0986,3.0986,3.0986,3.1078,3.1287,3.1117,3.1914,3.4201,3.2712,3.1653,3.1653,3.296,3.2908,3.1065,3.0986,3.0986,3.0986,3.0986,3.0986,3.0986,3.0986,3.0986,3.0986,3.0101,2.9303,1.2403,1.1897,1.193,1.2111,1.1903,0.0,0.0,1.2763,1.3198,1.5864,1.5876,1.6037,1.7994,0.0,0.0,0.0,0.0,0.0,0.0,0.0,0.0,0.0,0.0,0.0,0.0,2.5312,2.5312,2.5312,2.5312,2.5312,2.5312,2.5382,2.55,2.5606,2.5944,2.6549,2.7381,2.7928,2.86,2.9365,2.9654,2.9792,2.9792,2.9792,2.9792,2.9792,2.9792,2.9869,2.9972,3.0049,3.0228,3.0394,3.0394,3.0457,3.0571,3.0672,3.071,3.071,3.071,3.0647,3.0571,3.0672,3.0685,3.0736,3.0811,3.0911,3.0986,3.0986,3.0986,3.0986,3.0874,3.0811,3.0811,3.0811,3.0584,3.0394,3.0394,3.0394,3.0394,3.0394,3.0394,3.0394,3.0394,3.0723,3.0986,3.0986,3.0986,3.0986,3.0986,3.0647,3.0546,3.0949,3.0986,3.1444,3.2607,3.164,3.0986,3.0986,3.2058,3.2176,3.1039,3.0986,3.0986,3.0986,3.0986,3.0986,3.0986,3.0254,3.0279,3.0986,2.9665,2.9057,1.3215,1.2566,1.272,1.3042,1.2308,1.2063,0.0,0.0,0.0,0.0,0.0,0.0,0.0,0.0,0.0,0.0,0.0,0.0,0.0,0.0,0.0,0.0,0.0,0.0,0.0,2.4614,2.4759,2.5264,2.4878,2.4852,2.5323,2.5535,2.5688,2.5711,2.5875,2.6309,2.7042,2.7591,2.8225,2.89,2.9515,2.9792,2.9792,2.9792,2.983,2.9869,2.9869,2.9972,3.0152,3.019,3.0432,3.0698,3.0698,3.0736,3.0773,3.0949,3.0986,3.0986,3.0986,3.0874,3.0773,3.0949,3.0874,3.0811,3.0949,3.0986,3.0986,3.0986,3.0986,3.0986,3.0986,3.0986,3.0986,3.0986,3.0986,3.0986,3.0986,3.0986,3.0986,3.0986,3.0986,3.0986,3.0986,3.0986,3.0986,3.0986,3.0874,3.0761,3.0761,3.0356,3.0241,3.0723,3.0911,3.0986,3.0986,3.0986,3.0986,3.0911,3.0798,3.0798,3.0874,3.0949,3.0986,3.0986,3.0986,3.0986,3.0986,2.9653,2.9691,3.0949,2.9174,2.8821,1.536,1.4989,1.4938,1.3204,1.3777,1.4024,0.0,0.0,1.1557,1.1148,0.0,0.0,0.0,0.0,0.0,0.0,0.0,0.0,1.4376,1.6978,1.9179,0.0,0.0,0.0,0.0,0.0,2.2874,2.5131,2.3353,2.3189,2.5449,2.5758,2.5945,2.6131,2.6131,2.6532,2.7281,2.7797,2.8349,2.89,2.9515,2.9792,2.9792,2.9792,2.9895,3.0075,3.0075,3.019,3.0368,3.0546,3.066,3.0698,3.0698,3.0811,3.0986,3.0986,3.0986,3.0986,3.0986,3.0986,3.0986,3.0986,3.0986,3.0986,3.0986,3.0986,3.0986,3.0986,3.0986,3.0986,3.0986,3.0986,3.0986,3.0986,3.0986,3.0986,3.0986,3.0986,3.0986,3.0986,3.0986,3.0986,3.0986,3.0986,3.0986,3.0986,3.0394,2.9946,2.9946,3.047,3.0609,3.0011,3.0571,3.0986,3.0986,3.0986,3.0836,3.0482,3.0126,3.0088,3.0444,3.0798,3.0986,3.0986,3.0986,3.0986,3.0986,3.0113,3.0152,3.0949,2.9018,2.8585,1.5202,1.5406,1.581,1.3925,0.0,0.0,1.1778,0.0,1.0803,0.0,0.0,0.0,0.0,0.0,0.0,0.0,1.312,0.0,0.0,0.0,1.835,0.0,0.0,0.0,0.0,0.0,0.0,0.0,0.0,2.2965,2.5624,2.5945,2.6097,2.6213,2.6305,2.6509,2.6839,2.767,2.8222,2.8461,2.9365,2.9792,2.9792,2.9934,3.0011,3.0113,3.0228,3.0381,3.0571,3.066,3.0773,3.0874,3.0874,3.0911,3.0986,3.0986,3.0986,3.0986,3.0986,3.0986,3.0986,3.0986,3.0986,3.0986,3.0986,3.0986,3.0986,3.0986,3.0986,3.0986,3.0986,3.0874,3.0773,3.0773,3.0723,3.0634,3.0634,3.0836,3.0986,3.0986,3.0609,3.0318,3.0318,3.0318,3.0318,3.0318,3.0023,2.9985,3.0432,3.0798,3.0874,3.0533,3.0798,3.0986,3.0986,3.0571,3.0343,3.0406,3.0228,3.0343,3.071,3.0911,3.0986,3.0986,3.0533,3.0318,3.0318,2.9985,2.9972,3.0279,2.9199,2.9199,1.597,0.0,0.0,0.0,0.0,0.0,0.0,0.0,0.0,0.0,0.0,0.0,0.0,0.0,0.0,0.0,0.0,1.3461,0.0,1.4288,0.0,0.0,0.0,0.0,0.0,0.0,0.0,0.0,0.0,0.0,2.5795,2.6166,2.627,2.627,2.643,2.6499,2.6499,2.7557,2.8109,2.8122,2.9328,2.9869,2.9908,3.0075,3.019,3.0267,3.0419,3.0609,3.0773,3.0773,3.0874,3.0986,3.0986,3.0986,3.0986,3.0986,3.0986,3.0986,3.0986,3.0986,3.0986,3.0986,3.0986,3.0986,3.0986,3.0986,3.0986,3.0986,3.0986,3.0986,3.0986,3.0836,3.0698,3.0635,3.0432,3.0305,3.052,3.0609,3.0685,3.0685,3.0267,3.0011,3.0126,2.9946,2.9869,3.0088,3.0126,3.0356,3.0911,3.0986,3.0986,3.0986,3.0986,3.0986,3.0986,3.0241,3.0011,3.052,3.0368,3.0457,3.0986,3.0986,3.0911,3.0685,3.0088,2.9792,2.9792,2.9792,2.983,2.9895,2.9314,2.9574,0.0,0.0,0.0,1.4023,0.0,0.0,0.0,0.0,1.22,0.0,0.0,0.0,0.0,0.0,0.0,0.0,0.0,0.0,0.0,0.0,0.0,0.0,0.0,0.0,0.0,0.0,0.0,0.0,0.0,0.0,2.5915,2.6361,2.6499,2.6499,2.6499,2.6499,2.6499,2.7557,2.8109,2.8122,2.9467,3.0075,3.0113,3.0292,3.0495,3.066,3.0698,3.0798,3.0986,3.0986,3.0986,3.0986,3.0986,3.0986,3.0986,3.0986,3.0986,3.0986,3.0986,3.0986,3.0986,3.0986,3.0986,3.0986,3.0986,3.0986,3.0986,3.0986,3.0986,3.0986,3.0986,3.0986,3.0911,3.066,3.0215,3.0011,3.0798,3.0394,2.983,2.983,3.0113,3.0482,3.0911,3.0318,3.0049,3.0836,3.0949,3.0986,3.0986,3.0986,3.0986,3.0986,3.0986,3.0986,3.0986,3.0241,3.0126,3.0949,3.0241,3.0164,3.0986,3.0986,3.0609,2.9869,2.9792,2.9792,2.9792,2.9792,2.9934,3.0152,2.9236,2.9275,0.0,0.0,2.0639,1.6422,0.0,0.0,0.0,0.0,0.0,0.0,0.0,0.0,0.0,0.0,0.0,0.0,0.0,0.0,0.0,0.0,0.0,0.0,0.0,0.0,0.0,0.0,0.0,0.0,0.0,0.0,0.0,2.6871,2.6973,2.6499,2.6939,2.7162,2.7162,2.7876,2.8479,2.896,2.9861,3.0531,3.1046,3.122,3.1368,3.1418,3.1048,3.0949,3.0986,3.0986,3.0986,3.0986,3.0986,3.0986,3.0986,3.0986,3.0986,3.0986,3.0986,3.0986,3.0986,3.0986,3.0986,3.0986,3.0986,3.0986,3.0986,3.0986,3.0986,3.0986,3.0986,3.0911,3.0773,3.0698,3.0521,3.0394,3.0381,3.0495,3.0495,3.0113,3.0254,3.052,3.0949,3.0761,3.0685,3.0949,3.0986,3.0798,3.0279,3.0203,3.0432,3.0949,3.0495,3.0203,3.0203,3.0419,3.0495,3.0241,2.9946,2.9908,3.0203,3.0203,3.01,2.9792,2.9792,2.9792,2.9792,2.9792,2.9869,2.9934,2.9624,2.9365,2.1566,2.2197,0.0,1.8475,1.802,0.0,1.4085,0.0,1.4888,0.0,0.0,0.0,0.0,0.0,0.0,0.0,0.0,0.0,0.0,1.089,0.0,0.0,0.0,0.0,0.0,0.0,0.0,0.0,0.0,0.0,0.0,0.0,2.7417,2.7229,2.7384,2.7604,2.7855,2.8472,2.8987,2.9394,3.0179,3.092,3.1613,3.1553,3.1809,3.2254,3.1371,3.1198,3.1482,3.1123,3.1061,3.1099,3.1024,3.0986,3.0986,3.0986,3.0986,3.0986,3.0986,3.0986,3.0986,3.0986,3.0986,3.0986,3.0986,3.0986,3.0986,3.0986,3.0986,3.0986,3.0986,3.0911,3.0811,3.0811,3.0736,3.066,3.0457,3.0571,3.0609,3.0419,3.033,3.0368,3.0685,3.0798,3.0874,3.0986,3.0986,3.0798,3.0279,2.9985,3.0023,3.0495,3.0241,2.9972,2.9792,3.0533,3.0761,3.0241,3.0241,3.0088,2.9792,2.9792,2.9792,2.9792,2.9792,2.9792,2.9792,2.9792,2.9792,2.9792,2.9792,2.9417]},{"header":{"parameterUnit":"m.s-1","parameterCategory":1,"la1":30.6,"la2":29.2853,"lo1":-89.7004,"lo2":-87.6739,"dx":0.0162,"dy":0.0183,"nx":112,"ny":82,"refTime":"2023-01-08T06:00:00:Z","depth":0,"parameterNumber":3,"parameterNumberName":"V-component_of_WINDS"},"data":[0.0,0.0,0.0,0.0,0.0,0.0,0.0,0.0,0.0,0.0,0.0,0.0,0.0,0.0,0.0,0.0,0.0,0.0,0.0,0.0,0.0,0.0,0.0,0.0,0.0,0.0,0.0,0.0,0.0,0.0,0.0,0.0,0.0,0.0,0.0,0.0,0.0,0.0,0.0,0.0,0.0,0.0,0.0,0.0,0.0,0.0,0.0,0.0,0.0,0.0,0.0,0.0,0.0,0.0,0.0,0.0,0.0,0.0,0.0,0.0,0.0,0.0,0.0,0.0,0.0,0.0,0.0,0.0,0.0,0.0,0.0,0.0,0.0,0.0,0.0,0.0,0.0,0.0,0.0,0.0,0.0,0.0,0.0,0.0,0.0,0.0,0.0,0.0,0.0,0.0,2.1055,2.2396,2.3704,2.4365,2.4084,2.4315,2.2658,1.8393,0.0,0.0,0.0,0.0,0.0,0.0,0.0,0.0,0.0,0.0,0.0,0.0,0.0,0.0,0.0,0.0,0.0,0.0,0.0,0.0,0.0,0.0,0.0,0.0,0.0,0.0,0.0,0.0,0.0,0.0,0.0,0.0,0.0,0.0,0.0,0.0,0.0,0.0,0.0,0.0,0.0,0.0,0.0,0.0,0.0,0.0,0.0,0.0,0.0,0.0,0.0,0.0,0.0,0.0,0.0,0.0,0.0,0.0,0.0,0.0,0.0,0.0,0.0,0.0,0.0,0.0,0.0,0.0,0.0,0.0,0.0,0.0,0.0,0.0,0.0,0.0,0.0,0.0,0.0,0.0,0.0,0.0,0.0,0.0,0.0,0.0,0.0,0.0,0.0,0.0,0.0,0.0,0.0,0.0,0.0,0.0,0.0,0.0,0.0,0.0,0.0,0.0,0.0,0.0,2.0134,2.4509,2.5177,2.5284,2.5247,2.5287,2.3536,1.9353,0.0,0.0,0.0,0.0,0.0,0.0,0.0,0.0,0.0,0.0,0.0,0.0,0.0,0.0,0.0,0.0,0.0,0.0,0.0,0.0,0.0,0.0,0.0,0.0,0.0,0.0,0.0,0.0,0.0,0.0,0.0,0.0,0.0,0.0,0.0,0.0,0.0,0.0,0.0,0.0,0.0,0.0,0.0,0.0,0.0,0.0,0.0,0.0,0.0,0.0,0.0,0.0,0.0,0.0,0.0,0.0,0.0,0.0,0.0,0.0,0.0,0.0,0.0,0.0,0.0,0.0,0.0,0.0,0.0,0.0,0.0,0.0,0.0,0.0,0.0,0.0,0.0,0.0,0.0,0.0,0.0,0.0,0.0,0.0,0.0,0.0,0.0,0.0,0.0,0.0,0.0,0.0,0.0,0.0,0.0,0.0,0.0,0.0,0.0,0.0,0.0,0.0,0.0,1.8989,2.1439,2.4827,2.516,2.516,2.516,2.516,2.3407,1.9243,1.7612,0.0,0.0,0.0,0.0,0.0,0.0,0.0,0.0,0.0,0.0,0.0,0.0,0.0,0.0,0.0,0.0,0.0,0.0,0.0,0.0,0.0,0.0,0.0,0.0,0.0,0.0,0.0,0.0,0.0,0.0,0.0,0.0,0.0,0.0,0.0,0.0,0.0,0.0,0.0,0.0,0.0,0.0,0.0,0.0,0.0,0.0,0.0,0.0,0.0,0.0,0.0,0.0,0.0,0.0,0.0,0.0,0.0,0.0,0.0,0.0,0.0,0.0,0.0,0.0,0.0,0.0,0.0,0.0,0.0,0.0,0.0,0.0,0.0,0.0,0.0,0.0,0.0,0.0,0.0,0.0,0.0,0.0,0.0,0.0,0.0,0.0,0.0,0.0,0.0,0.0,0.0,0.0,0.0,0.0,0.0,0.0,0.0,0.0,0.0,0.0,0.0,0.0,2.2334,2.3631,2.5051,2.5211,2.5211,2.5211,2.5211,2.3403,1.911,1.7669,0.0,0.0,0.0,0.0,0.0,0.0,0.0,0.0,0.0,0.0,0.0,0.0,0.0,0.0,0.0,0.0,0.0,0.0,0.0,0.0,0.0,0.0,0.0,0.0,0.0,0.0,0.0,0.0,0.0,0.0,0.0,0.0,0.0,0.0,0.0,0.0,0.0,0.0,0.0,0.0,0.0,0.0,0.0,0.0,0.0,0.0,0.0,0.0,0.0,0.0,0.0,0.0,0.0,0.0,0.0,0.0,0.0,0.0,0.0,0.0,0.0,0.0,0.0,0.0,0.0,0.0,0.0,0.0,0.0,0.0,0.0,0.0,0.0,0.0,0.0,0.0,0.0,0.0,0.0,0.0,0.0,0.0,0.0,0.0,0.0,0.0,0.0,0.0,0.0,0.0,0.0,0.0,0.0,0.0,0.0,0.0,0.0,0.0,0.0,0.0,0.0,0.0,2.3345,2.6216,2.6127,2.6114,2.6114,2.6114,2.6114,2.4165,1.9558,1.8115,0.0,0.0,0.0,0.0,0.0,0.0,0.0,0.0,0.0,0.0,0.0,0.0,0.0,0.0,0.0,0.0,0.0,0.0,0.0,0.0,0.0,0.0,0.0,0.0,0.0,0.0,0.0,0.0,0.0,0.0,0.0,0.0,0.0,0.0,0.0,0.0,0.0,0.0,0.0,0.0,0.0,0.0,0.0,0.0,0.0,0.0,0.0,0.0,0.0,0.0,0.0,0.0,0.0,0.0,0.0,0.0,0.0,0.0,0.0,0.0,0.0,0.0,0.0,0.0,0.0,0.0,0.0,0.0,0.0,0.0,0.0,0.0,0.0,0.0,0.0,0.0,0.0,0.0,0.0,0.0,0.0,0.0,0.0,0.0,0.0,0.0,0.0,0.0,0.0,0.0,0.0,0.0,0.0,0.0,0.0,0.0,0.0,0.0,0.0,0.0,0.0,0.0,2.2394,2.5142,2.6101,2.6202,2.6202,2.6202,2.6202,2.4232,1.9586,0.0,0.0,0.0,0.0,0.0,0.0,0.0,0.0,0.0,0.0,0.0,0.0,0.0,0.0,0.0,0.0,0.0,0.0,0.0,0.0,0.0,0.0,0.0,0.0,0.0,0.0,0.0,0.0,0.0,0.0,0.0,0.0,0.0,0.0,0.0,0.0,0.0,0.0,0.0,0.0,0.0,0.0,0.0,0.0,0.0,0.0,0.0,0.0,0.0,0.0,0.0,0.0,0.0,0.0,0.0,0.0,0.0,0.0,0.0,0.0,0.0,0.0,0.0,0.0,0.0,0.0,0.0,0.0,0.0,0.0,0.0,0.0,0.0,0.0,0.0,0.0,0.0,0.0,0.0,0.0,0.0,0.0,0.0,0.0,0.0,0.0,0.0,0.0,0.0,0.0,0.0,0.0,0.0,0.0,0.0,0.0,0.0,0.0,0.0,0.0,0.0,0.0,1.9061,2.2769,2.555,2.645,2.6334,2.6202,2.6202,2.6202,2.4232,1.9586,0.0,0.0,0.0,0.0,0.0,0.0,0.0,0.0,0.0,0.0,0.0,0.0,0.0,0.0,0.0,0.0,0.0,0.0,0.0,0.0,0.0,0.0,0.0,0.0,0.0,0.0,0.0,0.0,0.0,0.0,0.0,0.0,0.0,0.0,0.0,0.0,0.0,0.0,0.0,0.0,0.0,0.0,0.0,0.0,0.0,0.0,0.0,0.0,0.0,0.0,0.0,0.0,0.0,0.0,0.0,0.0,0.0,0.0,0.0,0.0,0.0,0.0,0.0,0.0,0.0,0.0,0.0,0.0,0.0,0.0,0.0,0.0,0.0,0.0,0.0,0.0,0.0,0.0,0.0,0.0,0.0,0.0,0.0,0.0,0.0,0.0,0.0,0.0,0.0,0.0,0.0,0.0,0.0,0.0,0.0,0.0,0.0,0.0,0.0,0.0,0.0,0.0,2.0021,2.4951,2.8127,2.7381,2.6651,2.6219,2.6202,2.6202,2.4232,0.0,0.0,0.0,0.0,0.0,0.0,0.0,0.0,0.0,0.0,0.0,0.0,0.0,0.0,0.0,0.0,0.0,0.0,0.0,0.0,0.0,0.0,0.0,0.0,0.0,0.0,0.0,0.0,0.0,0.0,0.0,0.0,0.0,0.0,0.0,0.0,0.0,0.0,0.0,0.0,0.0,0.0,0.0,0.0,0.0,0.0,0.0,0.0,0.0,0.0,0.0,0.0,0.0,0.0,0.0,0.0,0.0,0.0,0.0,0.0,0.0,0.0,0.0,0.0,0.0,0.0,0.0,0.0,0.0,0.0,0.0,0.0,0.0,0.0,0.0,0.0,0.0,0.0,0.0,0.0,0.0,0.0,0.0,0.0,0.0,0.0,0.0,0.0,0.0,0.0,0.0,0.0,0.0,0.0,0.0,0.0,0.0,0.0,0.0,0.0,0.0,0.0,0.0,2.0023,2.5378,2.8837,2.8144,2.7879,2.7547,2.7017,2.6984,2.4845,1.983,0.0,0.0,0.0,0.0,0.0,0.0,0.0,0.0,0.0,0.0,0.0,0.0,0.0,0.0,0.0,0.0,0.0,0.0,0.0,0.0,0.0,0.0,0.0,0.0,0.0,0.0,0.0,0.0,0.0,0.0,0.0,0.0,0.0,0.0,0.0,0.0,0.0,0.0,0.0,0.0,0.0,0.0,0.0,0.0,0.0,0.0,0.0,0.0,0.0,0.0,0.0,0.0,0.0,0.0,0.0,0.0,0.0,0.0,0.0,0.0,0.0,0.0,0.0,0.0,0.0,0.0,0.0,0.0,0.0,0.0,0.0,0.0,0.0,0.0,0.0,0.0,0.0,0.0,0.0,0.0,0.0,0.0,0.0,0.0,0.0,0.0,0.0,0.0,0.0,0.0,0.0,0.0,0.0,0.0,0.0,0.0,0.0,0.0,0.0,0.0,0.0,0.0,2.053,2.5775,2.9251,2.8837,2.8558,2.8227,2.7779,2.7464,2.5608,2.16,0.0,0.0,0.0,0.0,0.0,0.0,0.0,0.0,0.0,0.0,0.0,0.0,0.0,0.0,0.0,0.0,0.0,0.0,0.0,0.0,0.0,0.0,0.0,0.0,0.0,0.0,0.0,0.0,0.0,0.0,0.0,0.0,0.0,0.0,0.0,0.0,0.0,0.0,0.0,0.0,0.0,0.0,0.0,0.0,0.0,0.0,0.0,0.0,0.0,0.0,0.0,0.0,0.0,0.0,0.0,0.0,0.0,0.0,0.0,0.0,0.0,0.0,0.0,0.0,0.0,0.0,0.0,0.0,0.0,0.0,0.0,0.0,0.0,0.0,0.0,0.0,0.0,0.0,0.0,0.0,0.0,0.0,0.0,0.0,0.0,0.0,0.0,0.0,0.0,0.0,0.0,0.0,0.0,0.0,0.0,0.0,0.0,0.0,0.0,0.0,0.0,0.0,2.1351,2.6208,2.9496,2.9496,2.8953,2.8575,2.8508,2.7879,2.6503,2.4149,0.0,0.0,0.0,0.0,0.0,0.0,0.0,0.0,0.0,0.0,0.0,0.0,0.0,0.0,0.0,0.0,0.0,0.0,0.0,0.0,0.0,0.0,0.0,0.0,0.0,0.0,0.0,0.0,0.0,0.0,0.0,0.0,0.0,0.0,0.0,0.0,0.0,0.0,0.0,0.0,0.0,0.0,0.0,0.0,0.0,0.0,0.0,0.0,0.0,0.0,0.0,0.0,0.0,0.0,0.0,0.0,0.0,0.0,0.0,0.0,1.4573,0.0,0.0,0.0,0.0,0.0,0.0,0.0,0.0,0.0,0.0,0.0,0.0,0.0,0.0,0.0,0.0,0.0,0.0,0.0,0.0,0.0,0.0,0.0,0.0,0.0,0.0,0.0,0.0,0.0,0.0,0.0,0.0,0.0,0.0,0.0,0.0,0.0,0.0,0.0,0.0,0.0,2.1811,2.6871,3.0257,3.0257,3.0125,2.9831,2.9251,2.9052,2.7545,2.4216,2.2529,0.0,0.0,0.0,0.0,0.0,0.0,0.0,0.0,0.0,0.0,0.0,0.0,0.0,0.0,0.0,0.0,0.0,0.0,0.0,0.0,0.0,0.0,0.0,0.0,0.0,0.0,0.0,0.0,0.0,0.0,0.0,0.0,0.0,0.0,0.0,0.0,0.0,0.0,0.0,0.0,0.0,0.0,0.0,0.0,0.0,0.0,0.0,0.0,0.0,0.0,0.0,0.0,0.0,0.0,0.0,0.0,0.0,0.0,0.0,0.0,1.5202,0.0,0.0,0.0,0.0,0.0,0.0,0.0,0.0,0.0,0.0,0.0,0.0,0.0,0.0,0.0,0.0,0.0,0.0,0.0,0.0,0.0,0.0,0.0,0.0,0.0,0.0,0.0,0.0,0.0,0.0,0.0,0.0,0.0,0.0,0.0,0.0,0.0,0.0,0.0,0.0,2.2604,2.7961,3.1553,3.1553,3.1553,3.1404,3.1023,3.0675,2.9645,2.7758,2.4994,0.0,0.0,0.0,0.0,0.0,0.0,0.0,0.0,0.0,0.0,0.0,0.0,0.0,0.0,0.0,0.0,0.0,0.0,0.0,0.0,0.0,0.0,0.0,0.0,0.0,0.0,0.0,0.0,0.0,0.0,0.0,0.0,0.0,0.0,0.0,0.0,0.0,0.0,0.0,0.0,0.0,0.0,0.0,0.0,0.0,0.0,0.0,0.0,0.0,0.0,0.0,0.0,0.0,1.8085,1.8534,1.9074,1.8969,1.9821,2.1241,1.8994,1.8723,1.96,1.6219,0.0,0.0,0.0,0.0,0.0,0.0,0.0,0.0,0.0,0.0,0.0,0.0,0.0,0.0,0.0,0.0,0.0,0.0,0.0,0.0,0.0,0.0,0.0,0.0,2.4336,2.4933,0.0,0.0,0.0,0.0,0.0,0.0,0.0,0.0,0.0,0.0,0.0,0.0,2.4203,2.9304,3.2702,3.2702,3.2702,3.2702,3.2702,3.215,3.173,3.1615,2.7642,2.511,0.0,0.0,0.0,0.0,0.0,0.0,0.0,0.0,0.0,0.0,0.0,0.0,0.0,0.0,0.0,0.0,0.0,0.0,0.0,0.0,0.0,0.0,0.0,0.0,0.0,0.0,0.0,0.0,0.0,0.0,0.0,0.0,1.6209,1.6163,0.0,0.0,0.0,0.0,0.0,0.0,0.0,0.0,0.0,0.0,0.0,0.0,0.0,1.9049,1.9286,2.1055,2.1924,2.1939,2.3625,2.4455,2.4552,2.3962,2.3842,2.4059,2.3528,0.0,2.0479,1.9375,0.0,0.0,0.0,0.0,0.0,0.0,0.0,0.0,0.0,0.0,0.0,0.0,0.0,0.0,0.0,0.0,0.0,0.0,0.0,0.0,0.0,0.0,2.9039,2.9237,2.9522,2.9604,0.0,2.4291,1.9756,1.8651,1.7912,0.0,0.0,0.0,0.0,0.0,0.0,0.0,2.7767,3.0874,3.2702,3.2702,3.2702,3.2702,3.2702,3.2619,3.2282,3.1648,3.0969,2.9483,2.6967,2.5773,0.0,0.0,0.0,0.0,0.0,0.0,0.0,0.0,0.0,0.0,0.0,0.0,0.0,0.0,0.0,0.0,0.0,0.0,0.0,0.0,0.0,0.0,0.0,0.0,0.0,0.0,0.0,0.0,0.0,1.5296,1.5715,1.6389,1.5112,1.3781,0.0,0.0,0.0,0.0,0.0,0.0,0.0,0.0,0.0,2.1365,2.1739,2.2428,2.3571,2.4712,2.5102,2.4789,2.5651,2.6039,2.6024,2.5416,2.5158,2.5166,2.5382,2.4885,2.3773,2.2195,2.0775,1.939,0.0,0.0,0.0,0.0,1.7713,1.8621,2.1103,2.1954,0.0,2.1553,0.0,0.0,0.0,0.0,0.0,0.0,0.0,0.0,0.0,0.0,2.8468,3.0617,3.1118,3.1234,3.1653,2.9365,2.6381,0.0,2.2457,2.0558,1.6137,0.0,0.0,0.0,0.0,2.6691,2.9275,3.216,3.3938,3.3938,3.3938,3.3938,3.3938,3.3938,3.3789,3.3491,3.268,3.1653,3.0381,2.8078,2.534,0.0,0.0,0.0,0.0,0.0,0.0,0.0,0.0,0.0,0.0,0.0,0.0,0.0,0.0,0.0,0.0,0.0,0.0,0.0,0.0,0.0,0.0,0.0,0.0,0.0,0.0,0.0,0.0,1.6228,1.6149,1.6894,1.638,1.5213,0.0,0.0,0.0,0.0,0.0,0.0,2.0636,2.0711,2.1969,2.4708,2.4799,2.5591,2.7209,2.7588,2.755,2.7091,2.7091,2.7091,2.7069,2.6497,2.6237,2.6244,2.6596,2.6833,2.6876,2.4863,2.4082,2.3859,2.1566,2.0893,2.1183,2.1148,2.1663,2.2718,2.4961,2.575,2.5653,2.5206,0.0,2.3521,2.1517,0.0,0.0,0.0,0.0,2.2818,2.6658,2.7632,2.8362,3.1212,3.1879,3.2012,3.2564,3.2547,3.1482,0.0,2.7264,2.5375,2.0604,0.0,0.0,0.0,0.0,2.935,3.1106,3.3426,3.4899,3.4899,3.4899,3.4899,3.4899,3.4899,3.4899,3.4899,3.3856,3.3243,3.3243,3.068,2.8483,2.6829,0.0,0.0,0.0,0.0,0.0,0.0,0.0,0.0,0.0,0.0,0.0,0.0,0.0,0.0,0.0,0.0,0.0,0.0,0.0,0.0,0.0,0.0,0.0,0.0,0.0,0.0,0.0,0.0,0.0,1.8392,1.9483,0.0,0.0,0.0,0.0,1.8587,1.9261,2.0775,2.3266,2.34,2.4843,2.7948,2.8064,2.8364,2.8957,2.9004,2.8988,2.8956,2.8956,2.8956,2.8948,2.8277,2.7962,2.7952,2.7719,2.8024,2.8585,2.7386,2.5791,2.4087,2.3925,2.2784,2.1553,2.4498,2.5617,2.6096,2.9131,3.0183,3.0166,3.0133,2.8148,2.5731,2.5602,2.3469,0.0,0.0,2.6599,2.7544,3.1378,3.2365,3.2398,3.2597,3.2652,3.2646,3.2702,3.215,3.1797,0.0,3.2332,3.1467,2.8837,0.0,2.9114,2.9471,3.0004,3.1416,3.4279,3.48,3.4899,3.4899,3.4899,3.4899,3.4899,3.4899,3.4899,3.4899,3.4833,3.4783,3.4783,3.4601,3.2755,2.9022,2.8224,0.0,0.0,0.0,0.0,0.0,0.0,0.0,0.0,0.0,0.0,0.0,0.0,0.0,0.0,0.0,0.0,0.0,0.0,0.0,0.0,0.0,0.0,0.0,0.0,0.0,0.0,0.0,0.0,1.9973,2.0511,0.0,1.8068,1.9955,2.1386,2.1629,2.3756,2.5509,2.6573,2.6948,2.7649,2.8771,2.8803,2.8912,2.9097,2.9393,2.955,2.955,2.955,2.955,2.9528,2.8629,2.8233,2.8218,2.8115,2.8435,2.8949,2.8554,2.8303,2.8183,2.7899,2.7546,2.7282,2.8115,2.8592,2.9019,3.0121,3.0506,3.0506,3.0506,3.0084,2.956,2.956,2.9107,2.8889,3.0236,3.0636,3.0971,3.2348,3.2702,3.2834,3.3315,3.3415,3.3547,3.4005,3.3905,3.3806,3.4054,3.3365,3.2067,3.0053,3.1512,3.2293,3.0397,3.194,3.3707,3.4767,3.4899,3.4899,3.4899,3.4899,3.4899,3.4899,3.4899,3.4899,3.4899,3.4899,3.4899,3.4899,3.4899,3.4246,3.2871,3.2613,2.905,0.0,0.0,0.0,0.0,0.0,0.0,0.0,0.0,0.0,0.0,0.0,0.0,0.0,0.0,0.0,0.0,0.0,0.0,0.0,0.0,0.0,0.0,0.0,0.0,0.0,2.0368,2.1201,2.0748,2.1873,2.1871,1.9784,2.2342,2.4312,2.4673,2.6977,2.8455,2.8662,2.8943,2.9189,2.9393,2.9348,2.9416,2.9572,2.9728,2.9875,3.0027,2.9875,2.9881,3.0027,2.9339,2.9042,2.9042,2.9042,2.9225,2.9572,2.9572,3.0087,3.0794,3.0082,3.0092,3.0447,3.0156,3.022,3.0539,3.0787,3.087,3.0903,3.1172,3.1586,3.1984,3.1984,3.2315,3.2752,3.3017,3.3061,3.3133,3.3398,3.3448,3.358,3.4038,3.417,3.4286,3.4783,3.4899,3.4899,3.4899,3.4104,3.3082,3.1906,3.3492,3.4037,3.1491,3.3268,3.4752,3.4345,3.4638,3.4998,3.5247,3.5048,3.4998,3.5247,3.4584,3.4369,3.4866,3.4419,3.4369,3.4883,3.4187,3.3743,3.3611,3.3447,3.037,2.4302,0.0,0.0,0.0,0.0,0.0,0.0,0.0,0.0,0.0,0.0,0.0,0.0,0.0,0.0,0.0,0.0,0.0,0.0,0.0,0.0,0.0,0.0,0.0,2.1446,2.1972,2.197,2.0803,2.3727,2.4778,2.2128,2.5464,2.7751,2.7555,2.8526,2.9212,2.9406,2.9257,2.9416,2.9989,2.9897,3.0049,3.0506,3.0049,3.0049,3.0489,3.0065,3.0103,3.0522,3.0534,3.0551,3.0551,3.053,3.0534,3.0551,3.053,3.0964,3.1522,3.0315,3.0141,3.0572,3.0572,3.0572,3.0671,3.1383,3.1631,3.1747,3.2464,3.2718,3.2735,3.2735,3.2752,3.2934,3.3624,3.3822,3.3988,3.47,3.4899,3.4899,3.4899,3.4916,3.4932,3.4932,3.4965,3.4998,3.4998,3.5015,3.5015,3.4982,3.4982,3.4607,3.3469,3.429,0.0,3.3453,3.429,3.5263,3.5902,3.5306,3.5173,3.5885,3.3965,3.3392,3.4866,3.3624,3.3475,3.4916,3.2906,3.1611,3.1306,3.0667,2.9621,2.8178,0.0,0.0,0.0,0.0,0.0,0.0,0.0,0.0,0.0,0.0,0.0,0.0,0.0,0.0,0.0,0.0,0.0,0.0,0.0,0.0,0.0,2.1366,2.2822,2.2637,2.3765,2.4614,2.457,2.5726,2.63,2.5669,2.7059,2.8153,2.8485,2.9286,2.9728,2.9689,3.0049,3.0284,3.0363,3.0321,3.0363,3.0506,3.0363,3.0363,3.0506,3.0907,3.1155,3.1295,3.1499,3.1587,3.1587,3.1193,3.1216,3.1564,3.1169,3.156,3.2315,3.1435,3.1511,3.21,3.21,3.21,3.2116,3.2332,3.2398,3.2431,3.2636,3.3066,3.3491,3.3491,3.3856,3.4336,3.4535,3.4601,3.4634,3.4849,3.4899,3.4899,3.4899,3.5313,3.5694,3.5694,3.6539,3.7301,3.7301,3.7715,3.7757,3.6688,3.6953,3.7349,3.7543,3.7878,0.0,3.7652,3.7406,3.6826,3.5609,3.4823,3.4464,3.4685,3.4137,3.4562,3.6382,3.6108,3.6075,3.6489,3.5926,3.5546,3.5448,3.255,3.0587,0.0,0.0,0.0,0.0,0.0,0.0,0.0,0.0,0.0,0.0,0.0,0.0,0.0,0.0,0.0,0.0,0.0,0.0,0.0,0.0,0.0,0.0,2.3354,2.4606,2.4606,2.5411,2.6017,2.6054,2.6728,2.7177,2.717,2.8164,2.9002,2.9464,3.0037,3.0347,3.0305,3.0551,3.0671,3.0589,3.0526,3.0506,3.0506,3.0617,3.0803,3.1053,3.1545,3.1891,3.2149,3.2251,3.2295,0.0,3.1962,3.2008,3.2272,3.1962,3.235,0.0,0.0,0.0,0.0,0.0,3.2702,3.2752,3.3044,3.3166,3.3193,3.3531,3.3905,3.4253,3.4253,3.4551,3.4899,3.4899,3.4899,3.4899,3.4899,3.5131,3.5274,3.4997,3.5968,3.6761,3.6162,3.7418,3.8576,3.8278,3.904,0.0,3.9007,3.8775,3.8639,3.8535,3.895,3.9102,3.8585,3.8603,3.8338,3.7525,3.6505,3.5996,3.6292,3.521,0.0,0.0,0.0,3.6042,3.5727,3.5564,0.0,0.0,0.0,0.0,0.0,0.0,0.0,0.0,2.7011,2.6145,0.0,0.0,0.0,0.0,0.0,0.0,0.0,0.0,0.0,0.0,0.0,0.0,0.0,0.0,0.0,0.0,2.5159,2.6691,2.6691,2.6691,2.6589,2.6238,2.7169,2.7759,2.7627,2.9019,3.0049,3.0365,3.0716,3.0932,3.0955,0.0,0.0,0.0,0.0,3.0559,3.0642,3.0882,3.1308,3.1941,3.2144,3.2518,3.3028,3.2962,3.2967,3.2967,3.2967,3.2967,3.2967,3.2967,3.3348,3.3832,3.2756,3.2587,3.2967,3.2967,3.2967,3.305,3.3713,0.0,0.0,3.4684,3.4899,3.4899,3.4899,3.4899,3.4916,3.4998,3.5015,3.5032,3.5131,3.5628,3.5985,3.5389,3.6816,3.7946,3.6615,3.8014,3.9357,3.8702,3.9693,4.0844,4.1529,4.0531,3.9302,3.8259,3.9078,3.9368,3.8242,3.9013,3.9818,4.026,0.0,0.0,3.9152,3.6795,3.5927,3.7384,3.6158,3.5098,3.4459,3.4118,3.4134,3.4402,3.4134,3.5087,3.735,3.735,3.735,3.7176,3.017,2.8191,0.0,0.0,0.0,0.0,0.0,0.0,0.0,0.0,0.0,0.0,0.0,0.0,0.0,0.0,0.0,2.3794,2.5479,2.6691,2.6691,2.6691,2.6877,2.738,2.8083,2.8783,2.9484,3.0238,3.0741,3.0858,3.0935,3.0932,3.0773,3.0875,3.0875,3.0712,3.0671,3.0933,3.1532,3.1596,3.1983,3.2695,0.0,0.0,3.3812,3.4257,3.4468,3.4468,3.4468,3.4468,3.4468,3.4468,3.4551,3.4667,3.4424,3.4398,3.4468,3.4468,3.4468,3.4485,3.4634,3.4684,3.47,3.4849,3.4899,3.4899,3.4899,3.4899,0.0,3.5628,3.5794,3.5926,3.6522,3.6787,3.6862,3.6719,3.7919,3.8846,3.7994,3.9534,4.1032,4.0902,4.1569,4.2402,4.3046,4.2469,4.2009,4.234,4.2596,4.2675,4.2422,4.2113,4.1333,3.9895,3.8972,3.8504,3.8634,3.8128,3.8357,3.9686,3.895,3.8387,3.8238,3.816,3.816,3.8238,3.816,3.8375,3.8884,3.8884,3.8884,3.8818,3.6124,3.5464,0.0,0.0,0.0,0.0,0.0,0.0,0.0,0.0,0.0,0.0,0.0,2.0753,2.1888,0.0,2.4102,2.5211,2.6134,2.6826,2.7199,2.7249,2.7384,2.7756,2.8411,2.9186,3.0021,3.067,3.1072,3.1112,3.1112,3.1032,3.0855,3.0955,3.0935,3.0794,3.1161,3.1525,3.1892,3.2627,3.3222,3.3656,3.4325,3.4693,3.4755,3.4922,3.4994,3.4994,3.4923,3.4899,3.4899,3.497,3.497,3.4899,3.497,3.497,3.4899,3.4899,3.4899,3.4899,3.4899,3.4899,3.4899,3.4899,3.4899,3.4965,3.5346,3.5446,3.5595,3.634,3.6555,3.6721,3.7466,3.793,3.8226,3.8236,3.96,4.0527,3.9106,4.0788,4.2351,4.1642,4.2376,4.3204,4.3522,4.3284,4.3168,4.3532,4.3598,4.3598,4.3598,4.3267,4.2666,4.1703,4.0951,4.0496,4.0496,4.0151,4.0214,4.0878,4.026,3.9862,3.9862,3.9497,3.9299,3.9299,3.9663,3.9862,3.9862,3.9862,3.9862,3.9829,3.9073,3.8566,0.0,0.0,0.0,0.0,0.0,0.0,0.0,1.9077,2.0196,2.0944,2.1549,2.2381,2.3786,2.4337,2.5061,2.6471,2.6691,2.6962,2.7705,2.7807,2.7908,2.8213,2.8822,2.9499,3.0243,3.0852,3.119,3.119,3.119,3.1151,3.0995,3.1015,3.1063,3.1133,3.17,3.2152,3.2437,3.3627,3.4382,3.4622,3.5098,3.54,3.5492,3.5245,3.5111,3.5088,3.4994,3.4947,3.4947,3.5088,3.5081,3.4994,3.5105,3.5065,3.4947,3.4899,3.4899,3.4916,3.5048,3.5114,3.5131,3.528,3.533,3.5446,3.6025,3.6224,3.6373,3.7119,3.7317,3.7483,3.8228,3.8941,3.9538,3.9564,4.1083,4.2016,4.0208,4.1693,4.3054,4.1916,4.2643,4.3462,4.3598,4.3598,4.3598,4.3598,4.3598,4.3598,4.3598,4.3598,4.3598,4.3598,4.3069,4.2704,4.2704,4.2026,4.1595,4.1595,4.0961,4.058,4.058,4.0028,3.9713,3.9713,4.0293,4.058,4.058,4.058,4.058,4.058,4.058,3.9929,1.9374,1.754,1.6026,1.7302,1.8143,1.9387,0.0,2.3316,2.4085,2.4815,2.5542,2.61,2.6285,2.637,2.6471,2.6674,2.6691,2.6962,2.7705,2.7807,2.8314,2.9666,2.9922,3.0277,3.1004,3.114,3.119,3.119,3.119,3.1151,3.0995,3.1112,3.1418,3.1958,3.2038,3.2711,3.4022,3.4263,3.4701,3.5374,3.5458,3.5492,3.5492,3.5354,3.5222,3.5088,3.5088,3.5065,3.5105,3.5222,3.5268,3.5268,3.5268,3.5198,3.5065,3.4947,3.4899,3.4982,3.5644,3.5876,3.5976,3.6655,3.6854,3.687,3.6953,3.6986,3.7135,3.788,3.8096,3.8261,3.9,3.973,4.0282,4.0293,4.1418,4.2265,4.1434,4.2019,4.2663,4.2519,4.2599,4.2912,4.3492,4.3598,4.3598,4.3598,4.3598,4.3598,4.3598,4.3598,4.3598,4.3598,4.3515,4.3466,4.3466,4.2787,4.2373,4.2373,4.1707,4.1293,4.1293,4.1226,4.1177,4.1177,4.1259,4.1293,4.1293,4.1293,4.1293,4.1293,4.1293,4.0884,2.1972,2.0656,1.9487,2.1,2.1516,2.2092,2.3809,2.4688,2.5355,2.6082,2.6488,2.6691,2.6691,2.6691,2.6691,2.6691,2.7063,2.7621,2.8383,2.8873,2.9531,3.0615,3.0734,3.0869,3.1157,3.119,3.119,3.119,3.119,3.1171,3.1131,3.1171,3.1509,3.2178,3.2634,3.336,3.4406,3.4879,3.5267,3.5549,3.5549,3.5549,3.5549,3.5452,3.5337,3.5222,3.5222,3.5222,3.5222,3.5377,3.536,3.5314,3.54,3.5314,3.5198,3.5065,3.5252,3.5578,3.5893,3.629,3.6688,3.7087,3.7161,3.7185,3.7701,3.7783,3.7897,3.8626,3.8825,3.9009,3.9743,4.0177,4.0618,4.1468,4.2122,4.2486,4.2194,4.27,4.3082,4.2679,4.2912,4.3265,4.3568,4.3598,4.3598,4.3598,4.3598,4.3598,4.3598,4.3598,4.3598,4.3598,4.3598,4.3598,4.3598,4.3317,4.3135,4.3135,4.244,4.2026,4.2026,4.1612,4.1409,4.1409,4.1811,4.2026,4.2026,4.2026,4.2026,4.2026,4.2026,4.1905,2.3137,2.2548,2.2173,2.3447,2.3973,2.4332,2.4847,2.5451,2.6048,2.659,2.6691,2.6691,2.6691,2.686,2.6996,2.6996,2.7638,2.8416,2.9196,2.977,3.0378,3.1106,3.119,3.119,3.119,3.119,3.119,3.119,3.119,3.1275,3.1478,3.1495,3.1938,3.2886,3.3423,3.4066,3.4793,3.5329,3.56,3.56,3.56,3.56,3.56,3.552,3.5446,3.5354,3.5354,3.5354,3.536,3.5475,3.5475,3.5423,3.5733,3.5772,3.5673,3.578,3.5921,3.6108,3.6473,3.6978,3.751,3.7811,3.7852,3.7875,3.8509,3.8598,3.8609,3.9149,3.9297,3.9456,4.0221,4.0537,4.1012,4.2266,4.2735,4.2881,4.2881,4.3265,4.3462,4.2974,4.3265,4.3598,4.3598,4.3598,4.3598,4.3598,4.3598,4.3598,4.3598,4.3598,4.3598,4.3598,4.3598,4.3598,4.3598,4.3598,4.3598,4.3598,4.3085,4.2787,4.2787,4.2274,4.1993,4.1993,4.2522,4.2787,4.2787,4.2787,4.2787,4.2787,4.2787,4.2787,2.2216,2.2112,2.2746,2.3501,2.4686,2.5653,2.567,2.6182,2.6674,2.6691,2.6691,2.6691,2.6691,2.7266,2.7773,2.7773,2.8433,2.923,2.9973,3.0091,3.0378,3.1106,3.119,3.119,3.119,3.119,3.119,3.119,3.119,3.1495,3.2226,3.2276,3.2936,3.4409,3.4438,3.4827,3.5549,3.5583,3.56,3.56,3.56,3.56,3.56,3.552,3.5492,3.5492,3.5492,3.5492,3.5492,3.5571,3.56,3.5684,3.6451,3.6692,3.666,3.736,3.7023,3.6396,3.7674,3.8223,3.8469,3.9201,3.9435,3.9435,3.9451,3.9372,3.9265,3.9299,3.9296,3.9466,4.0216,4.0922,4.1636,4.236,4.3039,4.3568,4.3568,4.3598,4.3598,4.3568,4.3598,4.3598,4.3598,4.3598,4.3598,4.3598,4.3598,4.3598,4.3598,4.3598,4.3598,4.3598,4.3598,4.3598,4.3598,4.3598,4.3598,4.3598,4.3582,4.3565,4.3565,4.3549,4.3532,4.3532,4.3549,4.3565,4.3565,4.3565,4.3565,4.3565,4.3565,4.3565,2.3858,2.3633,2.3812,2.5538,2.5894,2.5937,2.6383,2.6605,2.6691,2.6691,2.7097,2.7418,2.7418,2.8078,2.8602,2.8602,2.9228,2.982,3.0074,3.0531,3.092,3.1157,3.119,3.119,3.119,3.119,3.119,3.119,3.119,3.1512,3.2259,3.2293,3.2987,3.4438,3.4489,3.4861,3.5583,3.56,3.56,3.56,3.56,3.56,3.56,3.5594,3.5571,3.5571,3.5571,3.5571,3.5571,3.5577,3.5904,3.6417,3.6694,3.7053,3.7547,3.8192,3.8211,3.7961,3.8337,3.8822,3.9333,3.9662,3.972,3.9668,3.9746,3.994,3.9983,3.9029,3.9369,3.9987,3.9778,4.0255,4.107,4.2301,4.2764,4.3066,4.3492,4.3598,4.3462,4.3005,4.3312,4.3462,4.3005,4.3295,4.3598,4.3598,4.3598,4.3598,4.3598,4.3598,4.3598,4.3598,4.3598,4.3598,4.3598,4.3598,4.3598,4.3598,4.3598,4.3598,4.3598,4.3598,4.3598,4.3598,4.3598,4.3598,4.3598,4.3598,4.3598,4.3598,4.3598,4.3598,2.4832,2.468,2.4657,2.6573,2.6681,2.6378,2.6757,2.7012,2.708,2.6759,2.73,2.7722,2.7452,2.8281,2.8993,2.8993,3.0057,3.0784,3.0531,3.1123,3.1515,3.1224,3.119,3.119,3.119,3.119,3.119,3.119,3.119,3.163,3.2649,3.2679,3.3355,3.4844,3.4895,3.5131,3.56,3.56,3.56,3.56,3.56,3.56,3.56,3.56,3.56,3.56,3.56,3.56,3.56,3.56,3.6079,3.6829,3.71,3.7635,3.8379,3.9024,3.9269,3.9244,3.9067,3.9344,3.9781,3.9875,3.9849,3.9831,4.0178,4.0431,4.0469,3.983,4.0014,4.044,4.0501,4.0642,4.115,4.2596,4.2943,4.3066,4.3492,4.3402,4.3113,4.2679,4.2943,4.3113,4.2679,4.3174,4.3598,4.3598,4.3598,4.3598,4.3598,4.3598,4.3598,4.3598,4.3598,4.3598,4.3598,4.3598,4.3598,4.3598,4.3598,4.3598,4.3598,4.3598,4.3598,4.3598,4.3598,4.3598,4.3598,4.3598,4.3598,4.3598,4.3598,4.3598,2.509,2.524,2.5354,2.6716,2.7076,2.7026,2.686,2.7453,2.7793,2.6894,2.73,2.7553,2.6793,2.7943,2.8993,2.8993,3.0821,3.2005,3.1292,3.1802,3.1989,3.1275,3.119,3.119,3.119,3.119,3.119,3.119,0.0,3.1833,3.3322,3.3406,3.4083,3.5549,3.56,3.56,3.56,3.56,3.56,3.56,3.56,3.56,3.56,3.56,3.56,3.56,3.56,3.56,3.56,3.5633,3.6129,3.6931,3.7669,3.8413,3.914,3.9842,4.0096,4.0045,3.9807,3.9807,3.9901,3.9901,3.9901,4.0061,4.0785,4.0843,4.0773,4.1411,4.1056,4.0769,4.2045,4.1973,4.1884,4.3265,4.3598,4.3598,4.3598,4.3113,4.2648,4.2617,4.2617,4.2617,4.2648,4.3174,4.3598,4.3598,4.3598,4.3598,4.3598,4.3598,4.3598,4.3598,4.3598,4.3598,4.3598,4.3598,4.3598,4.3598,4.3598,4.3598,4.3598,4.3598,4.3598,4.3598,4.3598,4.3598,4.3598,4.3598,4.3598,4.3598,4.3598,4.3598,2.6026,2.6486,2.689,2.7755,2.7961,2.8065,2.8406,2.866,2.8422,2.6996,2.73,2.7418,2.6116,2.7588,2.8993,2.8993,3.0398,3.141,3.1224,3.136,3.1413,3.1207,3.119,3.119,3.119,3.119,3.119,3.119,3.119,3.1833,3.3322,3.3406,3.4083,3.5549,3.56,3.56,3.56,3.56,3.56,3.56,3.56,3.56,3.56,3.56,3.56,3.56,3.56,3.56,3.565,3.6248,3.6924,3.7686,3.843,3.9157,3.9842,4.0028,4.0096,4.007,4.002,4.002,4.0062,4.0062,4.0062,4.0197,4.0932,4.1053,4.0906,4.0469,4.086,4.1389,4.107,4.1675,4.2554,4.3402,4.3598,4.3598,4.3598,4.3462,4.3204,4.271,4.2617,4.2741,4.3265,4.3492,4.3598,4.3598,4.3598,4.3598,4.3598,4.3598,4.3598,4.3598,4.3598,4.3598,4.3598,4.3598,4.3598,4.3598,4.3598,4.3598,4.3598,4.3598,4.3598,4.3598,4.3598,4.3598,4.3598,4.3598,4.3598,4.3598,4.3598,4.3598,2.683,2.7332,2.7738,2.8066,2.8408,2.8527,2.8151,2.8354,2.7981,2.5725,2.6099,2.6285,2.4477,2.6522,2.8366,2.8045,3.0076,3.1582,3.1241,3.1481,3.1546,3.1241,3.119,3.119,3.119,3.119,3.119,3.119,3.119,3.1833,3.3322,3.3406,3.4083,3.5549,3.56,3.56,3.56,3.56,3.56,3.56,3.56,3.56,3.56,3.56,3.56,3.56,0.0,3.56,3.565,3.6451,3.7229,3.7973,3.87,3.9445,4.0096,4.0096,4.0096,4.0096,4.0096,4.0096,4.0096,4.0096,4.0333,4.0713,4.1457,4.1627,4.1546,4.1316,4.131,4.1266,4.0987,4.1323,4.1917,4.2943,4.3174,4.3235,4.3539,4.3372,4.3035,4.2679,4.2617,4.2803,4.3492,4.3598,4.3598,4.3598,4.3598,4.3598,4.3598,4.3598,4.3598,4.3598,4.3598,4.3598,4.3598,4.3598,4.3598,4.3598,4.3598,4.3598,4.3598,4.3598,4.3598,4.3598,4.3598,4.3598,4.3598,4.3598,4.3598,4.3598,4.3598,4.3598,2.7422,2.7845,2.8118,2.8151,2.8729,2.8881,2.7368,2.7538,2.7131,2.4049,2.434,2.456,2.253,2.5001,2.7215,2.6776,2.9687,3.1819,3.1275,3.1752,3.1921,3.1275,3.119,3.119,3.119,3.119,3.119,3.119,3.119,3.1833,3.3322,3.3406,3.4083,3.5549,3.56,3.56,3.56,3.56,3.56,3.56,3.56,3.56,3.56,3.56,3.56,3.56,3.56,0.0,3.565,3.6451,3.7229,3.7973,3.87,3.9445,4.007,4.002,4.002,4.007,4.002,4.002,4.0096,4.0096,4.0595,4.1313,4.1987,4.2116,4.2176,4.2619,4.1772,4.0839,4.126,4.1008,4.094,4.2158,4.2443,4.2617,4.3204,4.2943,4.2617,4.271,4.2648,4.2772,4.3372,4.3462,4.3432,4.3325,4.3462,4.3568,4.3462,4.3522,4.3598,4.3598,4.3598,4.3598,4.3598,4.3598,4.3598,4.3598,4.3598,4.3598,4.3598,4.3598,4.3598,4.3598,4.3598,4.3598,4.3598,4.3598,4.3598,4.3598,4.3598,4.3598,2.7517,2.7894,2.8322,2.8869,2.9585,2.9908,2.8916,2.832,2.7131,2.4049,2.3122,2.2581,2.158,2.3408,2.5439,2.6522,2.8822,3.0649,3.1123,3.1309,3.1326,3.1207,3.119,3.119,3.119,3.119,3.119,3.119,3.119,3.1833,3.3322,3.3406,3.4083,3.5549,3.56,3.56,3.56,3.56,3.56,3.56,3.56,3.56,3.56,3.56,3.56,3.56,3.56,0.0,3.565,3.6451,3.7229,3.7973,3.87,3.9445,4.0045,3.9523,3.967,4.002,3.9523,3.9696,4.0096,4.0096,4.0595,4.1218,4.1421,4.151,4.1507,4.1369,4.1145,4.0907,4.0703,4.1008,4.1393,4.1624,4.1689,4.1722,4.1852,4.2253,4.2772,4.3325,4.2974,4.2648,4.2741,4.2772,4.2585,4.1949,4.2834,4.3402,4.2834,4.3265,4.3598,4.3598,4.3598,4.3598,4.3598,4.3598,4.3598,4.3598,4.3598,4.3598,4.3598,4.3598,4.3598,4.3598,4.3598,4.3598,4.3598,4.3598,4.3598,4.3598,4.3598,4.3598,2.7261,2.7668,2.8254,2.8933,2.9662,2.9712,2.7725,2.6995,2.5673,2.185,2.1079,2.0876,2.0141,2.2155,2.4288,2.5388,2.7791,2.9786,3.0531,3.0954,3.119,3.119,3.119,3.119,3.119,3.119,3.119,3.119,3.1565,3.2239,3.3339,3.4112,3.4873,3.5583,3.56,3.56,3.56,3.56,3.56,3.56,3.56,3.56,3.56,3.56,3.56,3.56,3.56,0.0,3.565,3.6451,3.7015,3.7432,3.8548,3.9208,3.9538,3.9639,3.9644,3.9644,3.967,3.9904,4.0196,4.017,4.0645,4.1326,4.1763,4.168,4.1406,4.1199,4.082,4.0405,4.0161,4.0235,4.0497,4.0907,4.1227,4.1492,4.1492,4.1787,4.211,4.2443,4.2253,4.2158,4.2522,4.2617,4.2617,4.26,4.3174,4.3492,4.3174,4.3402,4.3598,4.3598,4.3598,4.3598,4.3598,4.3598,4.3598,4.3598,4.3598,4.3598,4.3598,4.3598,4.3598,4.3598,4.3598,4.3598,4.3598,4.3598,4.3598,4.3598,4.3598,4.3598,2.7007,2.7487,2.8117,2.8621,2.9431,2.9279,2.6099,2.5372,2.4137,1.979,1.9249,1.9432,1.9079,2.0979,2.3003,2.4288,2.6573,2.8596,2.9808,3.054,3.1021,3.1173,3.119,3.119,3.119,3.119,3.119,3.119,3.2019,3.2848,3.3592,3.4873,3.56,3.56,3.56,3.56,3.56,3.56,3.56,3.56,3.56,3.56,3.56,3.56,3.56,3.56,3.56,0.0,0.0,3.6282,3.6643,3.6931,3.8244,3.8853,3.9073,3.9674,3.9718,3.9464,3.9809,4.009,4.032,4.0428,4.0958,4.1605,4.1875,4.1753,4.1426,4.1176,4.0578,3.996,3.9768,3.9553,3.9553,4.0111,4.0668,4.1093,4.126,4.1294,4.1327,4.1459,4.1492,4.1689,4.2253,4.2491,4.2679,4.2912,4.3204,4.3265,4.2974,4.3066,4.3204,4.3372,4.3492,4.3598,4.3598,4.3598,4.3598,4.3598,4.3598,4.3598,4.3598,4.3598,4.3598,4.3598,4.3598,4.3598,4.3598,4.3598,4.3598,4.3598,4.3598,4.3598,2.6991,2.7487,2.798,2.7943,2.9007,2.9127,2.5439,2.4592,2.3526,1.9701,1.842,1.8293,1.9269,1.9721,2.0957,2.3993,2.5092,2.648,2.917,2.9931,3.0446,3.1123,3.119,3.119,3.119,3.119,3.119,3.119,3.251,3.3626,3.4353,3.5165,3.56,3.56,3.56,3.56,3.56,3.56,3.56,3.56,3.56,3.56,3.56,3.56,3.56,3.56,3.56,0.0,0.0,3.5667,3.6146,3.688,3.7686,3.8413,3.9023,3.9204,3.9647,4.0045,3.9536,3.9761,4.0415,4.1063,4.1759,4.2074,4.0942,4.1021,4.1343,4.0593,4.0207,3.996,3.9768,3.9553,3.9424,3.9481,3.9553,3.9788,4.0443,4.0581,4.0771,4.1393,4.1492,4.1525,4.1591,4.2158,4.219,4.0974,4.1852,4.2221,4.094,4.1327,4.1949,4.2617,4.3235,4.3598,4.3598,4.3598,4.3598,4.3598,4.3598,4.3598,4.3598,4.3598,4.3598,4.3598,4.3598,4.3598,4.3598,4.3598,4.3598,4.3598,4.3598,4.3598,2.6806,2.708,2.7419,2.8299,2.8619,2.7976,2.5134,2.4152,2.2767,1.9012,1.8003,1.8023,1.8755,1.8928,1.9759,2.2231,2.3162,2.4347,2.6539,2.7547,2.8527,2.9732,3.0051,3.0448,3.112,3.119,3.1376,3.1836,3.2814,3.3728,3.4455,3.5194,3.56,3.56,3.56,3.56,3.56,3.56,3.56,3.56,3.56,3.56,3.56,3.56,3.56,3.56,3.56,0.0,0.0,3.56,3.5785,3.6146,3.6924,3.7686,3.8456,3.9404,3.9707,3.9728,4.0295,4.0478,4.045,4.0737,4.1293,4.1756,4.1228,4.099,4.0836,4.0524,4.0242,3.996,3.9889,3.964,3.9388,3.9388,3.9388,3.9481,3.9788,3.9844,4.0041,4.0771,4.0547,4.0512,4.136,4.1393,4.126,4.1142,4.1591,4.1722,4.116,4.1722,4.2285,4.2585,4.2851,4.3174,4.3568,4.3598,4.3598,4.3598,4.3598,4.3598,4.3598,4.3598,4.3598,4.3598,4.3598,4.3598,4.3598,4.3598,4.3598,4.3598,4.3598,4.3598,2.6621,2.6792,2.6962,2.8045,2.8061,2.7114,2.4441,2.3613,2.2327,1.856,1.7743,1.7818,1.826,1.8139,1.8632,2.0733,2.144,2.2508,2.4767,2.5821,2.697,2.8637,2.9104,2.9712,3.0779,3.1072,3.141,3.1938,3.2645,3.3406,3.4134,3.4878,3.5363,3.5583,3.56,3.56,3.56,3.56,3.56,3.56,3.56,3.56,3.56,3.56,3.5718,3.596,3.596,0.0,0.0,3.6276,3.6167,3.6118,3.7081,3.7658,3.8126,3.9564,3.9893,3.9719,4.0676,4.0786,4.0488,4.044,4.0769,4.1209,4.1209,4.087,4.0489,4.0489,4.0261,3.9996,3.9925,3.9676,3.9388,3.9388,3.9388,3.9388,3.9388,3.9388,3.9553,4.0076,3.9915,4.0041,4.1026,4.0974,4.0974,4.1426,4.1492,4.1492,4.1492,4.1949,4.2349,4.2585,4.2617,4.2881,4.3522,4.3598,4.3598,4.3598,4.3598,4.3598,4.3598,4.3598,4.3598,4.3598,4.3598,4.3598,4.3598,4.3598,4.3598,4.3598,4.3598,4.3598,2.6468,2.6792,2.6691,2.6708,2.7283,2.6843,2.3158,2.2885,2.2327,1.856,1.7589,1.7543,1.7928,1.7242,1.7427,1.9908,2.0096,2.1116,2.4525,2.5349,2.6297,2.8177,2.8633,2.9153,3.0032,3.0768,3.119,3.1207,3.1904,0.0,3.3372,3.4117,3.4844,3.5583,3.56,3.56,3.56,3.56,3.56,3.56,3.56,3.56,3.56,3.56,3.6045,3.6795,0.0,0.0,0.0,3.7889,3.7524,3.7111,3.847,3.8615,3.8257,3.9606,4.0182,4.0294,4.031,4.0388,4.0489,4.0489,4.0489,4.0524,4.0524,4.0489,4.0489,4.0489,4.0261,3.996,3.9768,3.9553,3.9388,3.9388,3.9388,3.9388,3.9388,3.9388,3.9388,3.9424,3.9985,4.0478,4.0512,4.106,4.1492,4.1492,4.1492,4.1492,4.1492,4.1525,4.1787,4.2522,4.2617,4.2881,4.3522,4.3598,4.3598,4.3598,4.3598,4.3598,4.3598,4.3598,4.3598,4.3598,4.3598,4.3598,4.3598,4.3598,4.3598,4.3598,4.3598,4.3598,2.3608,2.4085,2.4441,2.4441,2.4239,2.3568,2.1694,2.1019,2.0187,1.7976,1.7313,1.717,1.7297,1.692,1.7413,1.9891,2.0221,2.1124,2.38,2.5147,2.6308,2.7439,2.9279,3.0543,3.0833,3.1055,3.119,3.119,3.1887,3.2632,3.3372,3.41,3.4844,3.5583,3.56,3.56,3.56,3.56,3.56,3.56,3.56,3.5893,3.6417,3.5987,3.622,0.0,0.0,0.0,0.0,3.772,3.7793,3.7616,3.7644,3.781,3.8205,3.9135,3.929,3.9113,4.0045,4.0119,3.9797,3.9797,4.012,4.0489,4.0489,4.0489,4.0455,4.0226,3.998,3.9732,3.9553,3.946,3.9388,3.9388,3.9388,3.9388,3.9388,3.9388,3.9553,4.0041,3.995,3.9915,4.0409,4.0684,4.0805,4.0805,4.1194,4.1492,4.1492,4.1949,4.2349,4.2585,4.3005,4.3372,4.3598,4.3598,4.3598,4.3598,4.3598,4.3598,4.3598,4.3598,4.3598,4.3598,4.3598,4.3598,4.3598,4.3598,4.3598,4.3598,4.3598,4.3598,2.2046,2.256,2.2824,2.2824,2.2415,2.168,2.0463,1.98,1.9032,1.7548,1.7043,1.6853,1.6853,1.6636,1.7036,1.884,1.9331,2.0438,2.3125,2.4515,2.587,2.7604,2.9563,3.0827,3.0922,3.1112,3.119,3.119,3.1633,3.2226,3.2949,3.3677,3.4421,3.5165,3.5447,3.56,3.56,3.56,3.5752,3.6062,3.6062,3.6468,3.7195,3.6822,3.692,0.0,0.0,0.0,0.0,3.8136,3.8111,3.7708,3.7812,3.7824,3.7916,3.8603,3.8678,3.8507,3.9345,3.9771,3.9827,3.9575,3.9917,4.0436,4.0436,4.0436,4.0366,4.0066,3.9854,3.9661,3.9553,3.9445,3.9388,3.9388,3.9388,3.9388,3.9388,3.9388,3.9553,3.9985,3.9717,3.9553,4.0021,4.032,4.0581,4.0839,4.1459,4.2029,4.2253,4.2679,4.2767,4.2275,4.2612,4.2619,4.2097,4.3013,4.3598,4.3598,4.3333,4.33,4.3582,4.3317,4.3317,4.3582,4.3598,4.3598,4.3598,4.3598,4.3598,4.3598,4.3598,4.3598,0.0,2.1781,2.1624,2.1589,2.1381,2.0796,1.9358,1.9019,0.0,1.7239,1.6751,1.6615,1.6723,1.6447,1.6502,1.7408,1.8053,1.954,2.2746,2.3904,2.5541,2.8626,2.9653,3.0253,3.0539,3.0932,3.1171,3.119,3.119,3.1529,3.2266,3.2975,3.3697,3.4496,3.5234,3.5661,3.5667,3.5735,3.6146,3.688,3.688,3.7222,3.7901,3.7877,3.7911,0.0,0.0,0.0,0.0,3.8892,3.8479,3.7578,3.8645,3.8395,3.746,3.8039,3.827,3.8259,3.8304,3.9172,4.0163,3.9583,3.9738,4.02,4.02,4.0231,4.0242,4.0031,3.9839,3.9696,3.9696,3.9553,3.9388,3.9388,3.9388,3.9388,3.9388,3.9388,3.9388,3.9388,3.9445,3.9481,3.9481,4.0111,4.0873,4.1492,4.2221,4.2865,4.3396,4.3456,4.295,4.1578,4.1436,4.0947,3.9689,4.1955,4.3439,4.3373,4.2837,4.2804,4.3482,4.2853,4.2837,4.3582,4.3598,4.3598,4.3598,4.3598,4.3598,4.3598,4.3598,4.3598,1.8139,0.0,1.8903,1.8559,1.8257,1.7914,0.0,1.7218,1.7109,1.6778,1.6477,1.667,1.7913,1.707,1.7285,2.0562,2.0793,2.1683,2.4859,2.6983,2.8873,3.0634,3.058,3.0634,3.1217,3.0892,3.0801,3.1171,3.119,3.1587,3.2463,3.2674,3.3395,3.4698,3.5488,3.6095,3.6502,3.7077,3.7466,3.7652,3.7652,3.779,3.8043,3.7561,3.7442,0.0,0.0,0.0,3.7666,3.8266,3.8351,3.8067,3.7883,3.7637,3.7417,3.7549,3.7333,3.7018,3.7474,3.7779,3.8015,3.8256,3.8781,3.9275,3.9102,3.943,3.9839,3.9803,3.9625,3.9445,3.9445,3.946,3.9388,3.9388,3.9388,3.9388,3.9388,3.9388,3.9388,3.9388,3.9859,4.025,4.025,4.126,4.2158,4.2317,4.2943,4.3037,4.2192,4.2067,4.1545,4.0145,4.0004,4.0079,4.0252,4.1379,4.1822,4.1268,4.2025,4.2572,4.2738,4.2589,4.2837,4.3582,4.3598,4.3598,4.3598,4.3598,4.3598,4.3598,4.3598,4.3598,1.6008,1.6629,1.7345,1.7102,1.6828,1.6596,1.6452,1.6425,1.6425,1.6425,1.6289,1.6465,1.7349,1.7732,1.8499,2.0148,2.1788,2.3885,2.6867,2.9183,3.0708,3.1133,3.086,3.0647,0.0,3.039,3.0372,3.0838,3.1197,3.1592,3.2073,3.2734,3.3634,3.4759,3.5917,3.6601,3.6812,3.7533,3.8075,3.8396,3.8396,3.8621,3.9016,3.8381,3.7994,0.0,0.0,0.0,3.7043,3.7621,3.7738,3.7474,3.7401,3.7238,3.6983,3.6983,3.6785,3.6554,3.6861,3.708,3.7344,3.8198,3.8442,3.8372,3.8269,3.8632,3.9183,3.9463,3.9481,3.9388,3.9388,3.9388,3.9388,3.9388,3.9388,3.9388,3.9388,3.9388,3.9517,3.9844,4.0216,4.0615,4.0907,4.1852,4.2491,4.2158,4.2434,4.2307,4.1225,4.1103,4.0559,3.9183,3.9286,3.934,3.9095,3.975,4.0393,4.0876,4.1321,4.1674,4.1976,4.1707,4.2038,4.3069,4.3416,4.3598,4.3598,4.3598,4.3598,4.3598,4.3598,4.3598,1.494,1.5817,1.6779,1.6517,1.632,1.6194,1.6194,1.6194,1.6194,1.6194,1.6194,1.6376,1.6985,1.8619,1.9814,1.9587,2.28,2.6164,2.8567,3.051,3.1482,3.0865,3.072,0.0,2.9893,2.9748,2.993,3.05,0.0,3.1501,3.1582,3.2771,3.3846,3.4684,3.6099,3.6854,3.6858,3.7783,3.8548,3.9157,3.9157,3.9404,3.9799,3.9312,3.8684,3.801,0.0,0.0,3.6554,3.7043,3.6952,3.6554,3.7074,3.6952,3.6492,3.6492,3.6492,3.6492,3.646,3.6688,3.7175,3.8165,3.8037,3.7538,3.7538,3.7871,3.8362,3.8945,3.9224,3.9388,3.9388,3.9388,3.9388,3.9388,3.9388,3.9388,3.9388,3.9481,3.9753,4.0389,4.0668,4.1008,4.1558,4.2093,4.2235,4.1596,4.1388,4.0984,4.0151,4.0142,3.9638,3.8181,3.8585,3.8478,3.7358,3.7832,3.893,4.0672,4.0362,4.0407,4.1069,4.0768,4.111,4.2307,4.3052,4.3416,4.3416,4.3549,4.3598,4.3598,4.3598,4.3598,1.5741,1.6942,1.7603,1.6116,1.5975,1.6194,1.6194,1.6194,1.6194,1.6194,1.6194,1.72,2.0494,2.0174,2.0808,2.5037,2.7109,2.8445,2.9287,3.0506,3.117,3.0843,0.0,2.9971,3.0053,2.9538,2.9633,3.0674,0.0,3.1241,3.1967,3.2237,3.2936,3.4261,3.519,3.6135,3.7134,3.8873,3.9825,3.9943,3.9943,3.9458,3.8557,3.8474,3.7838,3.6769,0.0,3.6585,3.6523,3.6616,3.6569,3.6523,3.66,3.6569,3.6492,3.6492,3.6492,3.6492,3.6305,3.6224,3.6204,3.6201,3.6429,3.666,3.666,3.7094,3.7584,3.7689,3.8506,3.9388,3.9388,3.9388,3.9388,3.9388,3.9388,3.9388,3.9388,3.9879,4.0374,4.0478,4.1459,4.2317,4.2412,4.2052,4.1725,4.1586,4.0572,3.936,3.8136,3.8449,3.8073,3.6169,3.6506,3.6785,3.6585,3.6677,3.7093,3.7966,3.8503,3.906,3.967,4.0708,4.1359,4.1574,4.2274,4.2655,4.2655,4.33,4.3598,4.3598,4.3598,4.3598,1.3995,1.5009,1.6165,1.672,1.836,1.9941,2.0192,2.0238,1.9984,1.8994,1.8792,1.9341,2.1133,2.1885,2.3688,2.8192,2.8728,2.8946,3.006,3.0528,3.0674,3.0447,0.0,2.9619,2.9706,2.9432,2.9728,0.0,0.0,0.0,3.2079,3.2483,3.3156,3.4221,3.5007,3.5999,3.7226,3.8487,3.9295,3.9618,3.9618,3.9322,3.8767,3.8096,3.7519,3.6983,0.0,3.6492,3.6492,3.6492,3.6492,3.6492,3.6492,3.6492,3.6492,3.6492,3.6492,3.646,3.6274,3.6116,3.5973,3.5752,3.5832,3.5953,3.5953,3.6402,3.6911,3.6911,3.7853,3.8856,3.8856,3.914,3.9517,3.9879,3.9681,3.961,4.0374,4.0512,4.0615,4.0974,4.1274,4.1469,4.1469,4.0909,4.0352,3.9961,3.9062,3.8073,3.7088,3.7217,3.7018,3.6084,3.6554,3.6951,3.6951,3.66,3.6692,3.737,3.7729,3.8023,3.8318,3.9301,3.9836,3.9836,4.0515,4.1067,4.1426,4.177,4.2081,4.2406,4.2804,4.3002,1.297,1.3883,1.5462,1.7816,1.9907,2.1818,2.334,2.3161,2.2442,2.163,2.1386,2.1494,2.2055,2.4257,2.6899,2.9718,2.94,2.9202,3.0396,3.0402,3.017,2.9896,2.9692,2.9521,2.9412,2.9525,0.0,0.0,0.0,0.0,3.2165,3.2719,3.3421,3.4313,3.4879,3.5799,3.7106,3.7765,3.8407,3.9001,3.9001,3.892,3.8756,3.7825,3.7328,3.7148,3.6693,3.6492,3.6492,3.6492,3.6492,3.6492,3.6492,3.646,3.6429,3.6383,3.6398,3.6352,3.6211,3.6053,3.5894,3.5752,3.5621,3.5504,3.5504,3.5863,3.6252,3.6252,3.7075,3.7973,3.8123,3.8556,3.9073,3.9638,3.9461,3.9476,4.0557,4.0504,4.0402,4.0925,4.0639,4.0262,4.0262,3.9598,3.8874,3.833,3.7566,3.6863,3.6337,3.6341,3.6337,3.6196,3.6784,3.7101,3.6966,3.6492,3.6399,3.6936,3.7071,3.7161,3.7161,3.7861,3.8236,3.8236,3.9023,3.9633,4.004,4.0456,4.0831,4.1226,4.1902,4.2324,1.4655,1.5962,1.7448,1.9366,1.8256,1.7919,2.2622,2.1582,2.0231,2.2415,2.2507,2.2913,2.5214,2.787,2.9602,2.9252,2.965,2.995,2.9889,0.0,2.9695,2.9222,2.9698,2.9868,2.9437,0.0,0.0,0.0,0.0,0.0,3.2345,3.2422,3.3082,3.444,3.4532,3.521,3.6538,3.7147,3.7767,3.8362,3.8362,3.8067,3.7519,3.7447,3.7088,3.6554,3.6523,3.6492,3.6492,3.6492,3.6492,3.6492,3.6492,3.6383,3.6211,3.6068,3.6037,3.6037,3.6037,3.5894,3.572,3.5688,3.5621,3.5504,3.5504,3.5534,3.5579,3.5579,3.6088,3.6761,3.733,3.7524,3.7554,3.7623,3.8053,3.8502,3.8592,3.9131,3.9573,3.964,3.9593,3.9581,3.9581,3.8513,3.7636,3.7572,3.6459,3.5644,3.5579,3.6052,3.6196,3.5619,3.6116,3.6258,3.5683,3.5587,3.5602,3.5619,3.6164,3.6461,3.6461,3.7118,3.7478,3.7478,3.8638,3.9019,3.8643,4.033,4.0963,4.0567,4.1185,4.1856,1.3821,1.5547,1.7448,1.8442,1.8714,2.0016,2.4888,2.4904,2.4422,2.6224,2.5902,2.5575,2.6509,2.8218,2.939,2.9144,2.9069,2.9116,2.9312,2.9469,2.9587,2.9698,3.0054,3.0386,0.0,0.0,0.0,0.0,0.0,0.0,3.2382,3.2398,3.2628,3.3195,3.3583,3.4275,3.526,3.5917,3.6546,3.7193,3.7562,3.7637,3.7387,3.7013,3.6723,3.6492,3.6492,3.6492,3.6492,3.6492,3.6492,3.6492,3.6352,3.6274,3.6164,3.6068,3.6005,3.6005,3.6005,3.5863,3.5688,3.5688,3.5621,3.5504,3.5504,3.5504,3.5504,3.5504,3.5684,3.6028,3.6671,3.712,3.7507,3.7965,3.8243,3.8536,3.8976,3.9305,3.9388,3.8956,3.8553,3.8136,3.7701,3.6875,3.6256,3.6256,3.5834,3.5504,3.5504,3.5701,3.5765,3.5537,3.5701,3.5733,3.5537,3.5504,3.5504,3.5504,3.5701,3.5861,3.5861,3.6085,3.6211,3.6211,3.6676,3.7188,3.7824,3.8494,3.9149,3.9764,4.0336,4.0727,1.4517,1.5962,1.776,1.8728,1.9483,2.1203,2.5882,2.627,2.625,2.8437,2.8154,2.7507,2.7507,2.8253,2.8873,2.8873,2.8621,2.8594,2.9124,2.931,2.9599,3.0132,3.0494,0.0,0.0,0.0,0.0,0.0,0.0,0.0,0.0,3.2598,3.2721,3.2721,3.3583,3.4291,3.4813,3.5491,3.6045,3.6492,3.6922,3.7134,3.7088,3.6693,3.6492,3.6492,3.6492,3.6492,3.6492,3.6492,3.646,3.6383,3.6211,3.6116,3.6022,3.5878,3.5829,3.5829,3.5829,3.575,3.5653,3.5653,3.5572,3.5504,3.5504,3.5504,3.5504,3.5504,3.5504,3.5609,3.6058,3.6492,3.694,3.7423,3.7673,3.7952,3.8427,3.8558,3.8424,3.7966,3.7342,3.6723,3.6262,3.5804,3.5504,3.5504,3.5504,3.5504,3.5504,3.5504,3.5504,3.5504,3.5504,3.5504,3.5504,3.5504,3.5504,3.5504,3.5504,3.5504,3.5504,3.5504,3.5504,3.5504,3.5814,3.6352,3.7071,3.7605,3.8197,3.8931,3.9468,3.9813,1.7347,1.7685,1.8714,2.0764,2.032,2.0533,2.4989,2.4619,2.4415,2.8311,2.8724,2.8411,2.8411,2.8411,2.8411,2.8411,2.8411,2.8642,2.9294,2.9402,2.9664,3.0325,0.0,0.0,0.0,0.0,0.0,0.0,0.0,0.0,0.0,3.3029,3.3398,3.3398,3.4737,3.5506,3.5506,3.6153,3.6476,3.6492,3.6492,3.6492,3.6492,3.6492,3.6492,3.6492,3.6492,3.6492,3.6492,3.6492,3.6383,3.6164,3.6053,3.5863,3.5688,3.5554,3.5504,3.5504,3.5504,3.5504,3.5504,3.5504,3.5504,3.5504,3.5504,3.5504,3.5504,3.5504,3.5504,3.5504,3.5504,3.5504,3.5504,3.5504,3.6013,3.6492,3.6477,3.6492,3.6492,3.6477,3.5953,3.5504,3.5504,3.5504,3.5504,3.5504,3.5504,3.5504,3.5504,3.5504,3.5504,3.5504,3.5504,3.5504,3.5504,3.5504,3.5504,3.5504,3.5504,3.5504,3.5504,3.5504,3.5504,3.5504,3.6538,3.686,3.6399,3.7998,3.8567,3.81,3.8567,3.9198,1.5147,1.733,1.9592,1.9207,2.1683,2.4446,2.5304,2.545,2.614,2.8774,2.9203,2.8965,2.8488,2.8411,2.8411,2.8411,2.8812,2.9156,2.9356,3.0212,3.0874,3.1074,0.0,0.0,0.0,0.0,0.0,0.0,0.0,0.0,0.0,3.2582,3.2906,3.3398,3.3814,3.4491,3.5506,3.5722,3.6014,3.6492,3.6492,3.6492,3.6492,3.6492,3.6492,3.6492,3.6492,3.6414,3.6274,3.6195,3.61,3.6022,3.5863,3.5752,3.5688,3.5554,3.5504,3.5504,3.5504,3.5504,3.5504,3.5504,3.5504,3.5504,3.5504,3.5504,3.5504,3.5504,3.5504,3.5504,3.5504,3.5504,3.5504,3.5504,3.6013,3.6357,3.5893,3.6163,3.6357,3.5893,3.5639,3.5504,3.5504,3.5504,3.5504,3.5504,3.5504,3.5504,3.5504,3.5504,3.5504,3.5504,3.5504,3.5504,3.5504,3.5504,3.5504,3.5504,3.5504,3.5504,3.5504,3.5504,3.5439,3.5294,3.607,3.6554,3.6753,3.7709,3.8371,3.8733,3.8683,3.8825,1.7992,2.0208,2.227,2.2267,2.4097,2.6081,2.6757,2.7034,2.748,2.8725,2.9012,2.8889,2.8473,2.8627,2.8812,2.8812,2.9356,2.9879,3.0166,3.0889,3.1516,0.0,0.0,0.0,0.0,0.0,0.0,0.0,0.0,0.0,0.0,3.2644,3.2982,3.3398,3.3937,3.4629,3.5506,3.5753,3.6091,3.6492,3.6492,3.6492,3.6492,3.6492,3.6492,3.6492,3.6414,3.6274,3.6116,3.6037,3.5941,3.5863,3.5752,3.5671,3.5621,3.5522,3.5504,3.5504,3.5504,3.5504,3.5504,3.5504,3.5504,3.5504,3.5504,3.5504,3.5504,3.5504,3.5504,3.5504,3.5504,3.5504,3.5504,3.5504,3.5804,3.5983,3.5594,3.5818,3.5983,3.5579,3.5504,3.5504,3.5504,3.5504,3.5504,3.5504,3.5504,3.5504,3.5504,3.5504,3.5504,3.5504,3.5504,3.5504,3.5504,3.5504,3.5504,3.5504,3.5439,3.5359,3.5359,3.5651,3.5604,3.5213,3.6305,3.6875,3.689,3.7754,3.8415,3.8849,3.8616,3.856,2.3183,2.4425,2.5665,2.7642,2.6857,2.6234,2.8725,2.8842,2.8427,2.8488,2.8442,2.8427,2.8488,2.8996,2.9417,2.9464,3.0048,3.0705,3.1305,3.1455,0.0,0.0,0.0,0.0,0.0,0.0,0.0,0.0,0.0,0.0,0.0,3.3044,3.3429,3.3506,3.4783,3.5537,3.5598,3.6184,3.6492,3.6492,3.6492,3.6492,3.6492,3.6492,3.6492,3.646,3.6242,3.6085,3.5973,3.5973,3.5846,3.5688,3.5688,3.5604,3.5504,3.5504,3.5504,3.5504,3.5504,3.5504,3.5504,3.5504,3.5504,3.5504,3.5504,3.5504,3.5504,3.5504,3.5504,3.5504,3.5504,3.5549,3.5579,3.5519,3.5549,3.5594,3.5594,3.5594,3.5594,3.5594,3.5549,3.5504,3.5504,3.5504,3.5504,3.5504,3.5504,3.5504,3.5504,3.5504,3.5504,3.5504,3.5504,3.5504,3.5504,3.5504,3.5504,3.5472,3.5294,3.518,3.518,3.5767,3.5831,3.5246,3.6906,3.7519,3.6966,3.8046,3.8604,3.8588,3.8448,3.8408,1.8733,2.1636,2.4743,2.5711,2.6849,2.7888,2.8488,2.8504,2.855,2.9089,2.8781,2.8565,2.9104,2.9294,2.9556,3.0094,3.0751,3.1228,3.1366,0.0,0.0,0.0,0.0,0.0,0.0,0.0,0.0,0.0,0.0,0.0,3.2398,3.3044,3.366,3.4258,3.5075,3.5737,3.6261,3.6415,3.6492,0.0,3.6492,3.6492,3.6492,3.6492,3.6414,3.6242,3.5943,3.5784,3.5767,3.5636,3.5587,3.5554,3.5554,3.5537,3.5504,3.5504,3.5504,3.5504,3.5504,3.5504,3.5504,3.5504,3.5504,3.5504,3.5504,3.5504,3.5504,3.5504,3.5504,3.5504,3.5504,3.5893,3.6148,3.5624,3.5893,3.6267,3.6267,3.6267,3.6267,3.6267,3.5863,3.5504,3.5504,3.5504,3.5504,3.5504,3.5504,3.5504,3.5504,3.5504,3.5504,3.5504,3.5504,3.5504,3.5504,3.5504,3.5407,3.518,3.518,3.5115,3.4968,3.5085,3.5314,3.5606,3.6492,3.7072,3.7282,3.8062,3.8504,3.8588,3.8448,3.8464,2.0061,2.2694,2.5096,2.6434,2.7611,2.8411,2.8411,2.8411,2.8596,2.9248,2.911,2.9064,2.9756,3.0151,3.0474,3.0828,3.1443,3.1859,3.1859,0.0,0.0,0.0,0.0,0.0,0.0,0.0,0.0,0.0,0.0,3.2398,3.2398,3.2736,3.3398,3.4474,3.4844,3.5506,3.6476,3.6492,3.6492,3.6492,3.6492,3.646,3.6352,3.6352,3.6211,3.5943,3.5784,3.5671,3.5589,3.5522,3.5504,3.5504,3.5504,3.5504,3.5504,3.5504,3.5504,3.5504,3.5504,3.5504,3.5504,3.5504,3.5504,3.5504,3.5504,3.5729,3.5968,3.5968,3.5968,3.6043,3.6342,3.6447,3.6477,3.6432,3.6447,3.6402,3.6088,3.6013,3.6013,3.6013,3.5744,3.5504,3.5504,3.5504,3.5504,3.5504,3.5504,3.5504,3.5504,3.5504,3.5504,3.5504,3.5504,3.5439,3.5213,3.5261,3.5261,3.5115,3.5016,3.4916,3.4817,3.4716,3.4835,3.5216,3.6102,3.6523,3.643,3.7117,3.7474,3.7533,3.749,3.7474,2.1904,2.401,2.565,2.7857,2.8411,2.8411,2.8411,2.8488,2.8765,2.9417,2.9464,2.9633,3.0417,3.1028,3.1455,3.1563,3.2028,3.2398,0.0,0.0,0.0,0.0,0.0,0.0,0.0,0.0,0.0,0.0,0.0,3.2398,3.2398,3.2505,3.3152,3.4459,3.4613,3.5275,3.6476,3.6492,3.6492,3.6492,3.646,3.6352,3.6164,3.6148,3.5943,3.5688,3.5671,3.5589,3.5504,3.5504,3.5504,3.5504,3.5504,3.5504,3.5504,3.5504,3.5504,3.5504,3.5504,3.5504,3.5504,3.5504,3.5504,3.5504,3.5504,3.5893,3.6312,3.6312,3.6312,3.6462,3.709,3.6941,3.6776,3.7285,3.7105,3.6671,3.6118,3.5908,3.5863,3.5983,3.5908,3.5818,3.5744,3.5789,3.5759,3.5534,3.5699,3.5759,3.5534,3.5639,3.5669,3.5519,3.5504,3.5359,3.5034,3.5115,3.5115,3.4983,3.4817,3.4698,3.4664,3.4481,3.4481,3.4631,3.5689,3.6009,3.5578,3.6134,3.6415,3.6415,3.6508,3.6569,1.7417,2.0861,2.5072,2.775,2.8411,2.8411,2.8411,2.8858,2.9448,3.0125,2.9787,2.9797,3.1028,3.132,3.1609,3.2167,3.2336,3.2398,0.0,0.0,0.0,0.0,0.0,0.0,0.0,0.0,0.0,0.0,3.2398,3.2398,3.2398,3.2952,3.3644,3.4474,3.5075,3.5722,3.6476,3.6492,3.6492,3.6492,3.6305,3.6148,3.6037,3.5863,3.5752,3.5688,3.5572,3.5537,3.5504,3.5504,3.5504,3.5504,3.5504,3.5504,3.5504,3.5504,3.5504,3.5504,3.5504,3.5504,3.5504,3.5504,3.5504,3.5504,3.5504,3.5564,3.5639,3.5639,3.5639,3.5789,3.6447,3.6941,3.73,3.7389,3.7778,3.8108,3.8018,3.7554,3.733,3.7898,3.7539,3.7045,3.6701,3.6926,3.6776,3.5669,3.6447,3.6761,3.5654,3.6163,3.6342,3.5594,3.5504,3.5472,3.5439,3.5439,3.5162,3.4549,3.4664,3.4664,3.4448,3.4414,3.4414,3.4448,3.5154,3.577,3.6259,3.6353,3.6415,3.6415,3.6996,3.7252,1.8285,2.1661,2.4964,2.7719,2.8688,2.8965,2.8965,2.9464,3.014,3.0828,3.072,3.0812,3.1767,3.1951,3.2044,3.2336,3.2398,0.0,0.0,0.0,0.0,0.0,0.0,0.0,0.0,0.0,0.0,0.0,3.2398,3.2398,3.2398,3.2675,3.3152,3.3844,3.4582,3.5275,3.5922,3.6307,3.6492,3.6492,3.6305,3.6116,3.6005,3.5799,3.5671,3.5572,3.5537,3.5504,3.5504,3.5504,3.5504,3.5504,3.5504,3.5504,3.5504,3.5504,3.5504,3.5504,3.5504,3.5504,3.5504,3.5504,3.5504,3.5504,3.5504,3.5759,3.6058,3.6058,3.6058,3.6207,3.6836,3.721,3.7494,3.7868,3.8182,3.8497,3.8886,3.8153,3.7419,3.7494,3.727,3.7165,3.7479,3.6881,3.6402,3.6552,3.6447,3.6671,3.7584,3.6746,3.5923,3.5549,3.5504,3.5504,3.5504,3.5129,3.475,3.4414,3.4515,3.4515,3.4414,3.4414,3.4414,3.4414,3.4687,3.499,3.527,3.527,3.527,3.5317,3.5961,3.6102,1.8731,2.1486,2.3482,2.6595,2.8134,2.8996,2.931,3.0033,3.0812,0.0,3.1547,3.1797,3.2305,3.2398,3.2398,3.2398,0.0,0.0,0.0,0.0,0.0,0.0,0.0,0.0,0.0,0.0,0.0,0.0,3.2398,3.2398,3.2398,3.2398,3.2705,3.3383,3.4135,3.4828,3.5506,3.6153,3.646,3.6414,3.6242,3.6085,3.5926,3.5735,3.5589,3.5504,3.5504,3.5504,3.5504,3.5504,3.5504,3.5504,3.5504,3.5504,3.5504,3.5504,3.5504,3.5504,3.5504,3.5504,3.5504,3.5504,3.5504,3.5504,3.5504,3.5848,3.6237,3.6237,3.6237,3.6387,3.7015,3.718,3.7345,3.7988,3.8138,3.8272,3.8796,3.8392,3.7778,3.73,3.7345,3.7674,3.8332,3.736,3.6821,3.7778,3.7105,3.6971,3.8257,3.73,3.6252,3.5579,3.5922,3.5907,3.5288,3.4731,3.4414,3.4414,3.4414,3.4414,3.4414,3.4414,3.4414,3.4414,3.4414,3.4414,3.4414,3.4414,3.4414,3.4414,3.5088,3.5121,1.6271,1.7946,1.9482,2.3497,2.6026,2.7842,2.9095,3.0412,3.1378,3.1393,3.1917,3.2351,3.2382,3.2398,3.2398,3.2398,0.0,0.0,0.0,0.0,0.0,0.0,0.0,0.0,0.0,0.0,0.0,0.0,3.2398,3.2398,3.2398,3.2398,3.2705,3.3383,3.4135,3.4828,3.5506,3.6153,3.6383,3.6211,3.6068,3.5894,3.572,3.5572,3.5504,3.5504,3.5504,3.5504,3.5504,3.5504,3.5504,3.5504,3.5504,3.5504,3.5504,3.5504,3.5504,3.5504,3.5504,3.5504,3.5504,3.5504,3.5504,3.5504,3.5504,3.5534,3.5549,3.5549,3.5549,3.5714,3.6357,3.6537,3.6686,3.7315,3.7464,3.7464,3.7509,3.8467,3.911,3.8437,3.8841,3.9269,3.9313,3.9239,3.9209,3.9305,3.926,3.8362,3.6013,3.7764,3.8257,3.5774,3.704,3.7063,3.4651,3.4414,3.4414,3.4414,3.4414,3.4414,3.4414,3.4414,3.4414,3.4414,3.4414,3.4414,3.4414,3.4414,3.4414,3.4414,3.5088,3.54,1.5039,1.6408,1.7777,2.1455,2.4579,2.6995,2.7919,3.0151,3.2028,3.2028,3.2228,3.2398,3.2398,3.2398,3.2398,0.0,0.0,0.0,0.0,0.0,0.0,0.0,0.0,0.0,0.0,0.0,0.0,0.0,0.0,3.2398,3.2398,3.2398,3.2505,3.2752,3.3904,3.5044,3.6122,3.6368,3.6383,3.6196,3.6053,3.5894,3.5688,3.5554,3.5504,3.5504,3.5504,3.5504,3.5504,3.5504,3.5504,3.5504,3.5504,3.5504,3.5504,3.5504,3.5504,3.5504,3.5504,3.5504,3.5504,3.5504,3.5504,3.5504,3.5504,3.5504,3.5504,3.5504,3.5504,3.5564,3.5804,3.6178,3.6537,3.6761,3.712,3.73,3.6911,3.7509,3.8317,3.8931,3.9245,3.9388,3.9388,3.9388,3.9388,3.9388,3.9388,3.8467,3.5848,3.6327,3.6975,3.721,3.7813,3.7839,3.6925,3.5343,3.4414,3.4414,3.4414,3.4414,3.4414,3.4414,3.4414,3.4414,3.4414,3.4414,3.4414,3.4414,3.4414,3.4414,3.5088,3.5187,1.3575,1.4839,1.6346,1.9763,2.2336,2.4739,2.7457,2.9443,3.1028,3.2167,3.2398,3.2398,3.2398,3.2398,3.2398,0.0,0.0,0.0,0.0,0.0,0.0,0.0,0.0,0.0,0.0,0.0,0.0,0.0,0.0,0.0,3.2398,3.2398,3.2613,3.3075,3.4012,3.5152,3.6476,3.6414,3.632,3.6148,3.5958,3.5814,3.5621,3.5554,3.5504,3.5504,3.5504,3.5504,3.5504,3.5504,3.5504,3.5504,3.5504,3.5504,3.5504,3.5504,3.5504,3.5504,3.5504,3.5504,3.5504,3.5504,3.5439,3.5392,3.5392,3.5359,3.5326,3.5359,3.5392,3.5407,3.5472,3.5833,3.6148,3.6148,3.6462,3.6656,3.6252,3.6821,3.7674,3.8571,3.8871,3.908,3.9328,3.9388,3.9388,3.9388,3.9388,3.8361,3.5503,3.5129,3.5918,3.7964,3.8202,3.8202,3.8202,3.6649,3.5314,3.4472,3.4414,3.4414,3.4414,3.4414,3.4414,3.4414,3.4414,3.4414,3.4414,3.4414,3.4414,3.4414,3.4854,3.482,0.0,0.0,0.0,1.8285,1.9179,2.0965,2.7596,2.815,2.8211,3.1582,3.2259,3.2275,3.2382,3.2398,3.2398,0.0,0.0,0.0,0.0,0.0,0.0,0.0,0.0,0.0,0.0,0.0,0.0,0.0,3.2398,3.2398,3.2398,3.2398,3.3057,3.4428,3.4489,3.5136,3.6445,3.6305,3.6148,3.6005,3.5799,3.5621,3.5504,3.5504,3.5504,3.5504,3.5504,3.5504,3.5504,3.5504,3.5504,3.5504,3.5504,3.5504,3.5504,3.5504,3.5504,3.5504,3.5504,3.5504,3.5504,3.5504,3.5359,3.518,3.518,3.5082,3.4935,3.5148,3.518,3.5261,3.5439,3.5504,3.5504,3.5504,3.5504,3.5504,3.5504,3.6477,3.736,3.7375,3.7734,3.8317,3.9215,3.9334,3.9334,3.9373,3.9313,3.8094,3.4835,3.4414,3.5372,3.7883,3.8188,3.8202,3.8202,3.8202,3.7114,3.4574,3.4443,3.4457,3.4414,3.4414,3.4414,3.4414,3.4414,3.4414,3.4414,3.4414,3.4414,3.4414,3.4414,3.4414,1.1303,0.0,0.0,0.0,0.0,0.0,2.1427,2.2936,2.481,2.8704,2.9119,2.952,3.1951,3.2398,0.0,0.0,0.0,0.0,0.0,0.0,0.0,0.0,0.0,0.0,0.0,0.0,0.0,0.0,3.2398,3.2398,3.2398,3.2398,3.2798,3.3675,3.4227,3.4846,3.5539,3.5997,3.607,3.5784,3.572,3.5621,3.5504,3.5504,3.5504,3.5504,3.5504,3.5504,3.5504,3.5504,3.5504,3.5504,3.5504,3.5504,3.5504,3.5504,3.5504,3.5504,3.5504,3.5504,3.5504,3.5504,3.5359,3.518,3.518,3.5082,3.4902,3.4968,3.4968,3.5034,3.5213,3.5294,3.5326,3.5472,3.5504,3.5504,3.5504,3.5789,3.6178,3.6641,3.6462,3.6596,3.7764,3.7195,3.724,3.914,3.7325,3.5453,3.4501,3.4414,3.5038,3.6649,3.7651,3.8202,3.8202,3.8202,3.7114,3.4574,3.527,3.5372,3.4443,3.4414,3.4414,3.4414,3.4414,3.4414,3.4414,3.4414,3.4414,3.4414,3.4414,3.4654,0.0,0.0,1.2908,1.4132,0.0,0.0,2.078,2.2074,0.0,0.0,2.975,3.0074,3.2028,3.2398,0.0,0.0,0.0,0.0,0.0,0.0,0.0,0.0,0.0,0.0,0.0,3.2398,3.2398,3.2398,3.2398,3.2398,3.2398,3.2398,3.2705,3.3383,3.3814,3.4417,3.5187,3.5538,3.5701,3.5688,3.5638,3.5572,3.5504,3.5504,3.5504,3.5504,3.5504,3.5504,3.5504,3.5504,3.5504,3.5504,3.5407,3.5359,3.5359,3.5294,3.5261,3.5261,3.5261,3.5294,3.5359,3.5294,3.518,3.5082,3.5016,3.485,3.4702,3.4783,3.4868,3.4935,3.5034,3.5082,3.5115,3.5294,3.5439,3.5504,3.5504,3.5504,3.5624,3.6013,3.5774,3.5744,3.6492,3.5998,3.5914,3.7124,3.5648,3.4414,3.4414,3.4414,3.4907,3.617,3.6504,3.7056,3.8115,3.8202,3.7564,3.6083,3.5691,3.5183,3.4443,3.4414,3.4414,3.4414,3.4414,3.4414,3.4414,3.4414,3.4414,3.4414,3.4687,3.5037,0.0,0.0,0.0,0.0,1.4298,0.0,2.2221,2.2624,0.0,0.0,3.0766,3.0843,3.1305,0.0,0.0,0.0,0.0,0.0,0.0,0.0,0.0,0.0,0.0,0.0,3.2398,3.2398,3.2398,3.2398,3.2398,3.2398,3.2398,3.2398,3.2675,3.3247,3.3339,3.3913,3.5019,3.4988,3.5212,3.5671,3.5554,3.5504,3.5504,3.5504,3.5504,3.5504,3.5504,3.5504,3.5504,3.5472,3.5472,3.5439,3.5261,3.518,3.5148,3.4968,3.4902,3.4902,3.4902,3.5001,3.5148,3.4968,3.4902,3.4883,3.4731,3.4563,3.4448,3.4631,3.475,3.4868,3.4868,3.4868,3.4902,3.5049,3.5294,3.5504,3.5504,3.5504,3.5504,3.5504,3.5504,3.5504,3.5504,3.5439,3.5162,3.4515,3.4414,3.4414,3.4414,3.4414,3.4849,3.5981,3.5082,3.5444,3.7984,3.7941,3.7781,3.7781,3.5923,3.4704,3.4428,3.4414,3.4414,3.4414,3.4414,3.4414,3.4414,3.4414,3.4414,3.4414,3.5088,3.5432,1.5101,1.4809,1.4763,1.4637,1.5009,0.0,1.5545,1.5668,1.6776,0.0,2.0545,2.1175,2.4471,0.0,0.0,0.0,0.0,0.0,0.0,0.0,0.0,0.0,0.0,0.0,3.2398,3.2398,3.2398,3.2398,3.2398,3.2398,3.2398,3.2398,3.2404,3.243,3.2966,3.3479,3.3985,3.4499,3.5023,3.5554,3.5504,3.5504,3.5504,3.5504,3.5504,3.5504,3.5504,3.5504,3.5504,3.5326,3.5261,3.5261,3.5213,3.5115,3.4935,3.4902,3.4902,3.4902,3.4902,3.4935,3.4935,3.4902,3.485,3.4731,3.4698,3.4563,3.4414,3.4448,3.4481,3.4549,3.4683,3.4798,3.4831,3.4831,3.521,3.5504,3.5504,3.5504,3.5504,3.5504,3.5504,3.5504,3.5504,3.4997,3.4582,3.4414,3.4414,3.4414,3.4414,3.4414,3.4516,3.4748,3.4559,3.5444,3.7984,3.633,3.5154,3.5154,3.6606,3.6548,3.4501,3.4414,3.4414,3.4414,3.4414,3.4414,3.4414,3.4414,3.4414,3.4414,3.5088,3.5706,1.5839,1.5193,1.5167,1.5023,1.4764,0.0,0.0,1.5726,1.6555,1.9899,2.0139,2.0435,2.2723,0.0,0.0,0.0,0.0,0.0,0.0,0.0,0.0,0.0,0.0,0.0,0.0,3.2398,3.2398,3.2398,3.2398,3.2398,3.2398,3.2342,3.2274,3.2191,3.2471,3.2786,3.3216,3.3879,3.4464,3.4996,3.534,3.5504,3.5504,3.5504,3.5504,3.5504,3.5504,3.5439,3.5326,3.5261,3.5082,3.4964,3.4964,3.4883,3.4783,3.4668,3.4635,3.4635,3.4635,3.4716,3.4783,3.4668,3.4683,3.4664,3.4597,3.4481,3.4414,3.4414,3.4414,3.4414,3.4515,3.4597,3.4597,3.4597,3.4798,3.4964,3.4964,3.4964,3.4964,3.4964,3.4964,3.4964,3.4964,3.465,3.4414,3.4414,3.4414,3.4414,3.4414,3.4716,3.4831,3.4448,3.4414,3.4922,3.6214,3.514,3.4414,3.4414,3.5604,3.5735,3.4472,3.4414,3.4414,3.4414,3.4414,3.4414,3.4414,3.4957,3.4909,3.4414,3.5432,3.5882,1.6914,1.6083,1.6136,1.5927,1.4964,1.4634,0.0,0.0,0.0,0.0,0.0,0.0,0.0,0.0,0.0,0.0,0.0,0.0,0.0,0.0,0.0,0.0,0.0,0.0,0.0,3.1505,3.169,3.2336,3.177,3.1666,3.2339,3.2247,3.215,3.2107,3.2025,3.2201,3.266,3.3322,3.3937,3.4518,3.5175,3.5504,3.5504,3.5504,3.5472,3.5439,3.5439,3.5326,3.5148,3.5115,3.4931,3.4698,3.4698,3.4664,3.4631,3.4448,3.4414,3.4414,3.4414,3.4515,3.4631,3.4448,3.4515,3.4597,3.4448,3.4414,3.4414,3.4414,3.4414,3.4414,3.4414,3.4414,3.4414,3.4414,3.4414,3.4414,3.4414,3.4414,3.4414,3.4414,3.4414,3.4414,3.4414,3.4414,3.4414,3.4414,3.4515,3.4616,3.4616,3.4997,3.5096,3.465,3.4481,3.4414,3.4414,3.4414,3.4414,3.4481,3.4582,3.4582,3.4515,3.4448,3.4414,3.4414,3.4414,3.4414,3.4414,3.5417,3.5385,3.4448,3.5787,3.6072,1.9749,1.9271,1.9162,1.6749,1.7242,1.7319,0.0,0.0,1.3988,1.3082,0.0,0.0,0.0,0.0,0.0,0.0,0.0,0.0,1.8113,2.1633,2.4548,0.0,0.0,0.0,0.0,0.0,2.9147,3.2167,2.949,2.9022,3.2066,3.2094,3.1968,3.1841,3.1841,3.2043,3.2512,3.3201,3.386,3.4518,3.5175,3.5504,3.5504,3.5504,3.5392,3.5213,3.5213,3.5115,3.4935,3.4831,3.4731,3.4698,3.4698,3.4597,3.4414,3.4414,3.4414,3.4414,3.4414,3.4414,3.4414,3.4414,3.4414,3.4414,3.4414,3.4414,3.4414,3.4414,3.4414,3.4414,3.4414,3.4414,3.4414,3.4414,3.4414,3.4414,3.4414,3.4414,3.4414,3.4414,3.4414,3.4414,3.4414,3.4414,3.4414,3.4414,3.4964,3.5374,3.5374,3.4898,3.475,3.5294,3.4783,3.4414,3.4414,3.4414,3.4549,3.4835,3.5195,3.5228,3.4868,3.4582,3.4414,3.4414,3.4414,3.4414,3.4414,3.518,3.5148,3.4448,3.5914,3.6259,1.9501,1.9763,2.0191,1.7273,0.0,0.0,1.3519,0.0,1.2373,0.0,0.0,0.0,0.0,0.0,0.0,0.0,1.5327,0.0,0.0,0.0,2.236,0.0,0.0,0.0,0.0,0.0,0.0,0.0,0.0,2.855,3.1926,3.1968,3.187,3.1799,3.1698,3.1732,3.1914,3.2976,3.3634,3.3918,3.4996,3.5504,3.5504,3.5359,3.5294,3.518,3.5082,3.4949,3.4783,3.4731,3.4631,3.4515,3.4515,3.4481,3.4414,3.4414,3.4414,3.4414,3.4414,3.4414,3.4414,3.4414,3.4414,3.4414,3.4414,3.4414,3.4414,3.4414,3.4414,3.4414,3.4414,3.4515,3.4631,3.4631,3.465,3.4702,3.4702,3.4549,3.4414,3.4414,3.475,3.503,3.503,3.503,3.503,3.503,3.5309,3.5341,3.4931,3.4582,3.4515,3.4817,3.4582,3.4414,3.4414,3.4783,3.4983,3.4902,3.5082,3.4983,3.4635,3.4481,3.4414,3.4414,3.4817,3.503,3.503,3.5341,3.5326,3.5063,3.5817,3.5817,2.0487,0.0,0.0,0.0,0.0,0.0,0.0,0.0,0.0,0.0,0.0,0.0,0.0,0.0,0.0,0.0,0.0,1.5081,0.0,1.6149,0.0,0.0,0.0,0.0,0.0,0.0,0.0,0.0,0.0,0.0,3.1713,3.1813,3.1727,3.1727,3.1568,3.1511,3.1511,3.2841,3.3499,3.3514,3.4797,3.5439,3.5407,3.5213,3.5115,3.5049,3.4916,3.475,3.4631,3.4631,3.4515,3.4414,3.4414,3.4414,3.4414,3.4414,3.4414,3.4414,3.4414,3.4414,3.4414,3.4414,3.4414,3.4414,3.4414,3.4414,3.4414,3.4414,3.4414,3.4414,3.4414,3.4549,3.4698,3.4779,3.4931,3.5016,3.4802,3.475,3.4683,3.4683,3.5049,3.5294,3.5195,3.5374,3.5439,3.5228,3.5195,3.4997,3.4481,3.4414,3.4414,3.4414,3.4414,3.4414,3.4414,3.5096,3.5294,3.4802,3.4935,3.4883,3.4414,3.4414,3.4481,3.4683,3.5228,3.5504,3.5504,3.5504,3.5472,3.5392,3.5799,3.5559,0.0,0.0,0.0,1.7395,0.0,0.0,0.0,0.0,1.3112,0.0,0.0,0.0,0.0,0.0,0.0,0.0,0.0,0.0,0.0,0.0,0.0,0.0,0.0,0.0,0.0,0.0,0.0,0.0,0.0,0.0,3.1438,3.1626,3.1511,3.1511,3.1511,3.1511,3.1511,3.2841,3.3499,3.3514,3.4654,3.5213,3.518,3.5001,3.485,3.4731,3.4698,3.4582,3.4414,3.4414,3.4414,3.4414,3.4414,3.4414,3.4414,3.4414,3.4414,3.4414,3.4414,3.4414,3.4414,3.4414,3.4414,3.4414,3.4414,3.4414,3.4414,3.4414,3.4414,3.4414,3.4414,3.4414,3.4481,3.4731,3.5144,3.5294,3.4582,3.4964,3.5472,3.5472,3.518,3.4835,3.4481,3.503,3.5261,3.4549,3.4448,3.4414,3.4414,3.4414,3.4414,3.4414,3.4414,3.4414,3.4414,3.5096,3.5195,3.4448,3.5096,3.5162,3.4414,3.4414,3.475,3.5439,3.5504,3.5504,3.5504,3.5504,3.5359,3.5148,3.5863,3.5831,0.0,0.0,2.6357,2.0878,0.0,0.0,0.0,0.0,0.0,0.0,0.0,0.0,0.0,0.0,0.0,0.0,0.0,0.0,0.0,0.0,0.0,0.0,0.0,0.0,0.0,0.0,0.0,0.0,0.0,0.0,0.0,3.1117,3.1029,3.1511,3.1058,3.0837,3.0837,3.1717,3.2332,3.2662,3.3456,3.3983,3.4254,3.407,3.3934,3.3914,3.4332,3.4448,3.4414,3.4414,3.4414,3.4414,3.4414,3.4414,3.4414,3.4414,3.4414,3.4414,3.4414,3.4414,3.4414,3.4414,3.4414,3.4414,3.4414,3.4414,3.4414,3.4414,3.4414,3.4414,3.4414,3.4481,3.4631,3.4698,3.4879,3.4964,3.4949,3.485,3.485,3.518,3.5034,3.4802,3.4448,3.4616,3.4683,3.4448,3.4414,3.4582,3.5063,3.5129,3.4931,3.4448,3.485,3.5129,3.5129,3.4916,3.485,3.5096,3.5374,3.5407,3.5129,3.5129,3.5243,3.5504,3.5504,3.5504,3.5504,3.5504,3.5439,3.5359,3.5619,3.5782,2.7665,2.8411,0.0,2.3488,2.2452,0.0,1.6455,0.0,1.6,0.0,0.0,0.0,0.0,0.0,0.0,0.0,0.0,0.0,0.0,0.9827,0.0,0.0,0.0,0.0,0.0,0.0,0.0,0.0,0.0,0.0,0.0,0.0,3.0584,3.0777,3.0614,3.0389,3.0133,3.0733,3.1427,3.2219,3.2719,3.323,3.3679,3.3762,3.352,3.3038,3.4011,3.4196,3.3908,3.4264,3.4346,3.4312,3.438,3.4414,3.4414,3.4414,3.4414,3.4414,3.4414,3.4414,3.4414,3.4414,3.4414,3.4414,3.4414,3.4414,3.4414,3.4414,3.4414,3.4414,3.4414,3.4481,3.4597,3.4597,3.4664,3.4731,3.4883,3.4783,3.475,3.4916,3.4968,3.4935,3.4683,3.4582,3.4515,3.4414,3.4414,3.4582,3.5063,3.5341,3.5309,3.485,3.5096,3.5326,3.5504,3.4817,3.4616,3.5096,3.5096,3.5228,3.5504,3.5504,3.5504,3.5504,3.5504,3.5504,3.5504,3.5504,3.5504,3.5504,3.5504,3.5765]}]]